[[{"header":{"parameterUnit":"m.s-1","parameterCategory":1,"la1":30.6,"la2":28.766,"lo1":-90.7593,"lo2":-88.6598,"dy":0.0162,"dx":0.0183,"nx":116,"ny":114,"refTime":"2023-05-13T12:00:00:Z","depth":0,"parameterNumber":2,"parameterNumberName":"U-component_of_WINDS"},"data":[0.0,0.0,0.0,0.0,0.0,0.0,0.0,0.0,0.0,0.0,0.0,0.0,0.0,0.0,0.0,0.0,0.0,0.0,0.0,0.0,0.0,0.0,0.0,0.0,0.0,0.0,0.0,0.0,0.0,0.0,0.0,0.0,0.0,0.0,0.0,0.0,0.0,0.0,0.0,0.0,0.0,0.0,0.0,0.0,0.0,0.0,0.0,0.0,0.0,0.0,0.0,0.0,0.0,0.0,0.0,0.0,0.0,0.0,0.0,0.0,0.0,0.0,0.0,0.0,0.0,0.0,0.0,0.0,0.0,0.0,0.0,0.0,0.0,0.0,0.0,0.0,0.0,0.0,0.0,0.0,0.0,0.0,0.0,0.0,0.0,0.0,0.0,0.0,0.0,0.0,0.0,0.0,0.0,0.0,0.0,0.0,0.0,0.0,0.0,0.0,0.0,0.0,0.0,0.0,0.0,0.0,0.0,0.0,0.0,0.0,0.0,0.0,0.0,0.0,0.0,0.0,0.0,0.0,0.0,0.0,0.0,0.0,0.0,0.0,0.0,0.0,0.0,0.0,0.0,0.0,0.0,0.0,0.0,0.0,0.0,0.0,0.0,0.0,0.0,0.0,0.0,0.0,0.0,0.0,0.0,0.0,0.0,0.0,0.0,0.0,0.0,0.0,0.0,0.0,0.0,0.0,0.0,0.0,0.0,0.0,0.0,0.0,0.0,0.0,0.0,0.0,0.0,0.0,0.0,0.0,0.0,0.0,0.0,0.0,0.0,0.0,0.0,0.0,0.0,0.0,0.0,0.0,0.0,0.0,0.0,0.0,0.0,0.0,0.0,0.0,0.0,0.0,0.0,0.0,0.0,0.0,0.0,0.0,0.0,0.0,0.0,0.0,0.0,0.0,0.0,0.0,0.0,0.0,0.0,0.0,0.0,0.0,0.0,0.0,0.0,0.0,0.0,0.0,0.0,0.0,0.0,0.0,0.0,0.0,0.0,0.0,0.0,0.0,0.0,0.0,0.0,0.0,0.0,0.0,0.0,0.0,0.0,0.0,0.0,0.0,0.0,0.0,0.0,0.0,0.0,0.0,0.0,0.0,0.0,0.0,0.0,0.0,0.0,0.0,0.0,0.0,0.0,0.0,0.0,0.0,0.0,0.0,0.0,0.0,0.0,0.0,0.0,0.0,0.0,0.0,0.0,0.0,0.0,0.0,0.0,0.0,0.0,0.0,0.0,0.0,0.0,0.0,0.0,0.0,0.0,0.0,0.0,0.0,0.0,0.0,0.0,0.0,0.0,0.0,0.0,0.0,0.0,0.0,0.0,0.0,0.0,0.0,0.0,0.0,0.0,0.0,0.0,0.0,0.0,0.0,0.0,0.0,0.0,0.0,0.0,0.0,0.0,0.0,0.0,0.0,0.0,0.0,0.0,0.0,0.0,0.0,0.0,0.0,0.0,0.0,0.0,0.0,0.0,0.0,0.0,0.0,0.0,0.0,0.0,0.0,0.0,0.0,0.0,0.0,0.0,0.0,0.0,0.0,0.0,0.0,0.0,0.0,0.0,0.0,0.0,0.0,0.0,0.0,0.0,0.0,0.0,0.0,0.0,0.0,0.0,0.0,0.0,0.0,0.0,0.0,0.0,0.0,0.0,0.0,0.0,0.0,0.0,0.0,0.0,0.0,0.0,0.0,0.0,0.0,0.0,0.0,0.0,0.0,0.0,0.0,0.0,0.0,0.0,0.0,0.0,0.0,0.0,0.0,0.0,0.0,0.0,0.0,0.0,0.0,0.0,0.0,0.0,0.0,0.0,0.0,0.0,0.0,0.0,0.0,0.0,0.0,0.0,0.0,0.0,0.0,0.0,0.0,0.0,0.0,0.0,0.0,0.0,0.0,0.0,0.0,0.0,0.0,0.0,0.0,0.0,0.0,0.0,0.0,0.0,0.0,0.0,0.0,0.0,0.0,0.0,0.0,0.0,0.0,0.0,0.0,0.0,0.0,0.0,0.0,0.0,0.0,0.0,0.0,0.0,0.0,0.0,0.0,0.0,0.0,0.0,0.0,0.0,0.0,0.0,0.0,0.0,0.0,0.0,0.0,0.0,0.0,0.0,0.0,0.0,0.0,0.0,0.0,0.0,0.0,0.0,0.0,0.0,0.0,0.0,0.0,0.0,0.0,0.0,0.0,0.0,0.0,0.0,0.0,0.0,0.0,0.0,0.0,0.0,0.0,0.0,0.0,0.0,0.0,0.0,0.0,0.0,0.0,0.0,0.0,0.0,0.0,0.0,0.0,0.0,0.0,0.0,0.0,0.0,0.0,0.0,0.0,0.0,0.0,0.0,0.0,0.0,0.0,0.0,0.0,0.0,0.0,0.0,0.0,0.0,0.0,0.0,0.0,0.0,0.0,0.0,0.0,0.0,0.0,0.0,0.0,0.0,0.0,0.0,0.0,0.0,0.0,0.0,0.0,0.0,0.0,0.0,0.0,0.0,0.0,0.0,0.0,0.0,0.0,0.0,0.0,0.0,0.0,0.0,0.0,0.0,0.0,0.0,0.0,0.0,0.0,0.0,0.0,0.0,0.0,0.0,0.0,0.0,0.0,0.0,0.0,0.0,0.0,0.0,0.0,0.0,0.0,0.0,0.0,0.0,0.0,0.0,0.0,0.0,0.0,0.0,0.0,0.0,0.0,0.0,0.0,0.0,0.0,0.0,0.0,0.0,0.0,0.0,0.0,0.0,0.0,0.0,0.0,0.0,0.0,0.0,0.0,0.0,0.0,0.0,0.0,0.0,0.0,0.0,0.0,0.0,0.0,0.0,0.0,0.0,0.0,0.0,0.0,0.0,0.0,0.0,0.0,0.0,0.0,0.0,0.0,0.0,0.0,0.0,0.0,0.0,0.0,0.0,0.0,0.0,0.0,0.0,0.0,0.0,0.0,0.0,0.0,0.0,0.0,0.0,0.0,0.0,0.0,0.0,0.0,0.0,0.0,0.0,0.0,0.0,0.0,0.0,0.0,0.0,0.0,0.0,0.0,0.0,0.0,0.0,0.0,0.0,0.0,0.0,0.0,0.0,0.0,0.0,0.0,0.0,0.0,0.0,0.0,0.0,0.0,0.0,0.0,0.0,0.0,0.0,0.0,0.0,0.0,0.0,0.0,0.0,0.0,0.0,0.0,0.0,0.0,0.0,0.0,0.0,0.0,0.0,0.0,0.0,0.0,0.0,0.0,0.0,0.0,0.0,0.0,0.0,0.0,0.0,0.0,0.0,0.0,0.0,0.0,0.0,0.0,0.0,0.0,0.0,0.0,0.0,0.0,0.0,0.0,0.0,0.0,0.0,0.0,0.0,0.0,0.0,0.0,0.0,0.0,0.0,0.0,0.0,0.0,0.0,0.0,0.0,0.0,0.0,0.0,0.0,0.0,0.0,0.0,0.0,0.0,0.0,0.0,0.0,0.0,0.0,0.0,0.0,0.0,0.0,0.0,0.0,0.0,0.0,0.0,0.0,0.0,0.0,0.0,0.0,0.0,0.0,0.0,0.0,0.0,0.0,0.0,0.0,0.0,0.0,0.0,0.0,0.0,0.0,0.0,0.0,0.0,0.0,0.0,0.0,0.0,0.0,0.0,0.0,0.0,0.0,0.0,0.0,0.0,0.0,0.0,0.0,0.0,0.0,0.0,0.0,0.0,0.0,0.0,0.0,0.0,0.0,0.0,0.0,0.0,0.0,0.0,0.0,0.0,0.0,0.0,0.0,0.0,0.0,0.0,0.0,0.0,0.0,0.0,0.0,0.0,0.0,0.0,0.0,0.0,0.0,0.0,0.0,0.0,0.0,0.0,0.0,0.0,0.0,0.0,0.0,0.0,0.0,0.0,0.0,0.0,0.0,0.0,0.0,0.0,0.0,0.0,0.0,0.0,0.0,0.0,0.0,0.0,0.0,0.0,0.0,0.0,0.0,0.0,0.0,0.0,0.0,0.0,0.0,0.0,0.0,0.0,0.0,0.0,0.0,0.0,0.0,0.0,0.0,0.0,0.0,0.0,0.0,0.0,0.0,0.0,0.0,0.0,0.0,0.0,0.0,0.0,0.0,0.0,0.0,0.0,0.0,0.0,0.0,0.0,0.0,0.0,0.0,0.0,0.0,0.0,0.0,0.0,0.0,0.0,0.0,0.0,0.0,0.0,0.0,0.0,0.0,0.0,0.0,0.0,0.0,0.0,0.0,0.0,0.0,0.0,0.0,0.0,0.0,0.0,0.0,0.0,0.0,0.0,0.0,0.0,0.0,0.0,0.0,0.0,0.0,0.0,0.0,0.0,0.0,0.0,0.0,0.0,0.0,0.0,0.0,0.0,0.0,0.0,0.0,0.0,0.0,0.0,0.0,0.0,0.0,0.0,0.0,0.0,0.0,0.0,0.0,0.0,0.0,0.0,0.0,0.0,0.0,0.0,0.0,0.0,0.0,0.0,0.0,0.0,0.0,0.0,0.0,0.0,0.0,0.0,0.0,0.0,0.0,0.0,0.0,0.0,0.0,0.0,0.0,0.0,0.0,0.0,0.0,0.0,0.0,0.0,0.0,0.0,0.0,0.0,0.0,0.0,0.0,0.0,0.0,0.0,0.0,0.0,0.0,0.0,0.0,0.0,0.0,0.0,0.0,0.0,0.0,0.0,0.0,0.0,0.0,0.0,0.0,0.0,0.0,0.0,0.0,0.0,0.0,0.0,0.0,0.0,0.0,0.0,0.0,0.0,0.0,0.0,0.0,0.0,0.0,0.0,0.0,0.0,0.0,0.0,0.0,0.0,0.0,0.0,0.0,0.0,0.0,0.0,0.0,0.0,0.0,0.0,0.0,0.0,0.0,0.0,0.0,0.0,0.0,0.0,0.0,0.0,0.0,0.0,0.0,0.0,0.0,0.0,0.0,0.0,0.0,0.0,0.0,0.0,0.0,0.0,0.0,0.0,0.0,0.0,0.0,0.0,0.0,0.0,0.0,0.0,0.0,0.0,0.0,0.0,0.0,0.0,0.0,0.0,0.0,0.0,0.0,0.0,0.0,0.0,0.0,0.0,0.0,0.0,0.0,0.0,0.0,0.0,0.0,0.0,0.0,0.0,0.0,0.0,0.0,0.0,0.0,0.0,0.0,0.0,0.0,0.0,0.0,0.0,0.0,0.0,0.0,0.0,0.0,0.0,0.0,0.0,0.0,0.0,0.0,0.0,0.0,0.0,0.0,0.0,0.0,0.0,0.0,0.0,0.0,0.0,0.0,0.0,0.0,0.0,0.0,0.0,0.0,0.0,0.0,0.0,0.0,0.0,0.0,0.0,0.0,0.0,0.0,0.0,0.0,0.0,0.0,0.0,0.0,0.0,0.0,0.0,0.0,0.0,0.0,0.0,0.0,0.0,0.0,0.0,0.0,0.0,0.0,0.0,0.0,0.0,0.0,0.0,0.0,0.0,0.0,0.0,0.0,0.0,0.0,0.0,0.0,0.0,0.0,0.0,0.0,0.0,0.0,0.0,0.0,0.0,0.0,0.0,0.0,0.0,0.0,0.0,0.0,0.0,0.0,0.0,0.0,0.0,0.0,0.0,0.0,0.0,0.0,0.0,0.0,0.0,0.0,0.0,0.0,0.0,0.0,0.0,0.0,0.0,0.0,0.0,0.0,0.0,0.0,0.0,0.0,0.0,0.0,0.0,0.0,0.0,0.0,0.0,0.0,0.0,0.0,0.0,0.0,0.0,0.0,0.0,0.0,0.0,0.0,0.0,0.0,0.0,0.0,0.0,0.0,0.0,0.0,0.0,0.0,0.0,0.0,0.0,0.0,0.0,0.0,0.0,0.0,0.0,0.0,0.0,0.0,0.0,0.0,0.0,0.0,0.0,0.0,0.0,0.0,0.0,0.0,0.0,0.0,0.0,0.0,0.0,0.0,0.0,0.0,0.0,0.0,0.0,0.0,0.0,0.0,0.0,0.0,0.0,0.0,0.0,0.0,0.0,0.0,0.0,0.0,0.0,0.0,0.0,0.0,0.0,0.0,0.0,0.0,0.0,0.0,0.0,0.0,0.0,0.0,0.0,0.0,0.0,0.0,0.0,0.0,0.0,-1.4461,-1.4022,0.0,0.0,0.0,0.0,0.0,0.0,0.0,0.0,0.0,0.0,0.0,0.0,0.0,0.0,0.0,0.0,0.0,0.0,0.0,0.0,0.0,0.0,0.0,0.0,0.0,0.0,0.0,0.0,0.0,0.0,0.0,0.0,0.0,0.0,0.0,0.0,0.0,0.0,0.0,0.0,0.0,0.0,0.0,0.0,0.0,0.0,0.0,0.0,0.0,0.0,0.0,0.0,0.0,0.0,0.0,0.0,0.0,0.0,0.0,0.0,0.0,0.0,0.0,0.0,0.0,0.0,0.0,0.0,0.0,0.0,0.0,0.0,0.0,0.0,0.0,0.0,0.0,0.0,0.0,0.0,0.0,0.0,0.0,0.0,0.0,0.0,0.0,0.0,0.0,0.0,0.0,0.0,0.0,0.0,0.0,0.0,0.0,0.0,0.0,0.0,0.0,0.0,0.0,0.0,0.0,0.0,0.0,0.0,0.0,0.0,0.0,0.0,0.0,0.0,-1.3773,-1.3507,0.0,0.0,0.0,0.0,0.0,0.0,0.0,0.0,0.0,0.0,0.0,0.0,0.0,0.0,0.0,0.0,0.0,0.0,0.0,0.0,0.0,0.0,0.0,0.0,0.0,0.0,0.0,0.0,0.0,0.0,0.0,0.0,0.0,0.0,0.0,0.0,0.0,0.0,0.0,0.0,0.0,0.0,0.0,0.0,0.0,0.0,0.0,0.0,0.0,0.0,0.0,0.0,0.0,0.0,0.0,0.0,0.0,0.0,0.0,0.0,0.0,0.0,0.0,0.0,0.0,0.0,0.0,0.0,0.0,0.0,0.0,0.0,0.0,0.0,0.0,0.0,0.0,0.0,0.0,0.0,0.0,0.0,0.0,0.0,0.0,0.0,0.0,0.0,0.0,0.0,0.0,0.0,0.0,0.0,0.0,0.0,0.0,0.0,0.0,0.0,0.0,0.0,0.0,0.0,0.0,0.0,0.0,0.0,-1.334,-1.3367,-1.3367,-1.3367,-1.3494,-1.3707,-1.3467,-1.3474,-1.3607,-1.3106,0.0,0.0,0.0,0.0,0.0,0.0,0.0,0.0,0.0,0.0,0.0,0.0,0.0,0.0,0.0,0.0,0.0,0.0,0.0,0.0,0.0,0.0,0.0,0.0,0.0,0.0,0.0,0.0,0.0,0.0,0.0,0.0,0.0,0.0,0.0,0.0,0.0,0.0,-1.181,-1.181,-1.1352,-1.0438,-1.017,0.0,0.0,0.0,0.0,0.0,0.0,0.0,0.0,0.0,0.0,0.0,0.0,0.0,0.0,0.0,0.0,0.0,0.0,0.0,0.0,0.0,0.0,0.0,0.0,0.0,0.0,0.0,0.0,0.0,0.0,0.0,0.0,0.0,0.0,0.0,0.0,0.0,0.0,0.0,0.0,0.0,0.0,0.0,-0.9908,-0.9908,0.0,0.0,0.0,0.0,0.0,0.0,0.0,0.0,0.0,0.0,0.0,0.0,0.0,-1.3166,-1.3213,-1.346,-1.3587,-1.3587,-1.3848,-1.3968,-1.3968,-1.3968,-1.3995,-1.4028,-1.3988,0.0,-1.3552,-1.3554,0.0,0.0,0.0,0.0,0.0,0.0,0.0,0.0,0.0,0.0,0.0,0.0,0.0,0.0,0.0,0.0,0.0,0.0,0.0,0.0,0.0,0.0,0.0,0.0,0.0,0.0,0.0,0.0,0.0,0.0,0.0,0.0,0.0,0.0,0.0,0.0,-1.1948,-1.1951,-1.2111,-1.2111,-1.1589,-1.0613,-0.9845,-0.9378,-0.8959,-0.8885,0.0,0.0,0.0,0.0,0.0,0.0,0.0,0.0,0.0,0.0,0.0,0.0,0.0,0.0,0.0,0.0,0.0,0.0,0.0,0.0,0.0,0.0,0.0,0.0,0.0,0.0,0.0,0.0,0.0,0.0,0.0,0.0,0.0,0.0,0.0,0.0,0.0,0.0,0.0,-1.1276,-1.119,-1.0475,-1.1403,-1.1973,0.0,0.0,0.0,0.0,0.0,0.0,0.0,0.0,0.0,-1.3447,-1.3454,-1.3534,-1.3701,-1.3828,-1.3895,-1.3895,-1.4021,-1.4088,-1.4088,-1.4088,-1.373,-1.3112,-1.3112,-1.262,-1.1989,-1.2438,-1.2149,-1.1358,0.0,0.0,0.0,0.0,-1.028,-1.0152,0.0,0.0,0.0,0.0,0.0,0.0,0.0,0.0,0.0,0.0,0.0,0.0,0.0,0.0,0.0,-1.4924,0.0,0.0,0.0,0.0,0.0,0.0,0.0,0.0,0.0,0.0,0.0,0.0,-1.1944,-1.2091,-1.2298,-1.207,-1.1391,-1.034,-0.9367,-0.8635,-0.8132,-0.8132,-0.8434,0.0,0.0,0.0,0.0,0.0,0.0,0.0,0.0,0.0,0.0,0.0,0.0,0.0,0.0,0.0,0.0,0.0,0.0,0.0,0.0,0.0,0.0,0.0,0.0,0.0,0.0,0.0,0.0,0.0,0.0,0.0,0.0,0.0,0.0,0.0,0.0,0.0,0.0,-1.1684,-1.1751,-1.0813,-1.1811,-1.246,0.0,0.0,0.0,0.0,0.0,0.0,-1.332,-1.332,-1.3454,-1.3748,-1.3761,-1.3861,-1.4082,-1.4088,-1.4088,-1.4088,-1.4088,-1.4088,-1.4088,-1.3822,-1.3118,-1.2237,-1.198,-1.1209,-1.0255,-1.1191,-1.1004,-1.0183,-0.9935,-0.9754,-0.9634,-0.9447,-0.9379,-0.9247,0.0,0.0,0.0,0.0,0.0,0.0,0.0,0.0,0.0,0.0,0.0,0.0,0.0,0.0,-1.3638,-1.3925,-1.3958,-1.395,0.0,0.0,0.0,0.0,0.0,0.0,0.0,0.0,0.0,-1.187,-1.2144,-1.2285,-1.2305,-1.1316,-1.034,-0.9296,-0.8313,-0.7744,-0.7552,-0.74,-0.7296,-0.7345,0.0,0.0,0.0,0.0,0.0,0.0,0.0,0.0,0.0,0.0,0.0,0.0,0.0,0.0,0.0,0.0,0.0,0.0,0.0,0.0,0.0,0.0,0.0,0.0,0.0,0.0,0.0,0.0,0.0,0.0,0.0,0.0,0.0,0.0,0.0,0.0,0.0,0.0,0.0,-0.9796,-1.1018,0.0,0.0,0.0,0.0,-1.3186,-1.32,-1.3327,-1.3607,-1.3539,-1.3761,-1.4055,-1.4062,-1.4075,-1.4088,-1.4088,-1.4088,-1.4088,-1.4088,-1.4088,-1.4088,-1.2936,-1.2328,-1.2242,-1.1128,-1.0009,-0.9065,-1.0168,-1.0469,-1.0198,-1.0188,-0.997,-0.9567,-0.8782,-0.8429,-0.8369,0.0,0.0,0.0,0.0,0.0,0.0,0.0,0.0,0.0,0.0,0.0,0.0,0.0,-1.3605,-1.3353,-1.3484,-1.3127,-1.3023,-1.3439,0.0,0.0,0.0,0.0,0.0,0.0,0.0,-1.1957,-1.2144,-1.2251,-1.2305,-1.2305,-1.1236,-1.0265,-0.9221,-0.8237,-0.7367,-0.6703,-0.6703,-0.6903,-0.7244,-0.7317,-0.7505,0.0,0.0,0.0,0.0,0.0,0.0,0.0,0.0,0.0,0.0,0.0,0.0,0.0,0.0,0.0,0.0,0.0,0.0,0.0,0.0,0.0,0.0,0.0,0.0,0.0,0.0,0.0,0.0,0.0,0.0,0.0,0.0,0.0,0.0,0.0,0.0,0.0,-1.0864,-1.2131,0.0,-1.2657,-1.3126,-1.3487,-1.3487,-1.3667,-1.3821,-1.3928,-1.3928,-1.3975,-1.4082,-1.4088,-1.4088,-1.4088,-1.4088,-1.4088,-1.4088,-1.4088,-1.373,-1.2942,-1.2504,-1.1472,-1.0096,-0.9666,-0.8798,-0.7753,-0.8185,-0.8321,-0.8178,-0.8178,-0.8143,-0.801,-0.7642,-0.7581,-0.7501,0.0,0.0,0.0,0.0,0.0,0.0,0.0,0.0,0.0,0.0,0.0,-1.3035,-1.3305,-1.2852,-1.2608,-1.2825,-1.2398,-1.2473,-1.3219,0.0,0.0,0.0,0.0,0.0,0.0,-1.2244,-1.2111,-1.2305,-1.2305,-1.2305,-1.2305,-1.0944,-0.997,-0.9226,-0.7859,-0.6945,-0.6338,-0.6338,-0.6576,-0.6915,-0.6563,-0.6585,-0.6818,0.0,0.0,0.0,0.0,0.0,0.0,0.0,0.0,0.0,0.0,0.0,0.0,0.0,0.0,0.0,0.0,0.0,0.0,0.0,0.0,0.0,0.0,0.0,0.0,0.0,0.0,0.0,0.0,0.0,0.0,0.0,0.0,0.0,0.0,-1.1028,-1.1359,-1.1513,-1.2455,-1.3251,-1.33,-1.3192,-1.3188,-1.3188,-1.3361,-1.347,-1.347,-1.3906,-1.4088,-1.4088,-1.4088,-1.4088,-1.4088,-1.4088,-1.4088,-1.4088,-1.4088,-1.347,-1.2322,-1.1895,-1.0697,-0.889,-0.8452,-0.7841,-0.7139,-0.7139,-0.7139,-0.7139,-0.7139,-0.7139,-0.7139,-0.7139,-0.7139,-0.7139,0.0,0.0,0.0,0.0,0.0,0.0,0.0,0.0,0.0,0.0,-1.1961,-1.166,-1.1643,-1.1254,-1.1223,-1.179,-1.1857,-1.2407,-1.3548,-1.329,0.0,0.0,0.0,0.0,-1.1884,-1.2158,-1.2305,-1.2305,-1.2305,-1.2305,-1.2224,-1.0276,-0.9296,-0.9221,-0.7176,-0.6338,-0.6338,-0.6338,-0.6338,-0.6321,-0.6978,-0.6862,-0.6374,0.0,0.0,0.0,0.0,0.0,0.0,0.0,0.0,0.0,0.0,0.0,0.0,0.0,0.0,0.0,0.0,0.0,0.0,0.0,0.0,0.0,0.0,0.0,0.0,0.0,0.0,0.0,0.0,0.0,0.0,0.0,0.0,0.0,-0.9505,-0.999,-1.046,-1.1376,-1.1945,-1.2662,-1.3517,-1.2788,-1.2322,-1.2237,-1.2242,-1.2242,-1.2242,-1.3379,-1.3997,-1.3997,-1.3997,-1.4088,-1.4088,-1.4088,-1.4088,-1.4088,-1.4088,-1.347,-1.2242,-1.1123,-0.9923,-0.8803,-0.7577,-0.7139,-0.7139,-0.7139,-0.7139,-0.7139,-0.7139,-0.7139,-0.7139,-0.7139,-0.7139,-0.7139,0.0,0.0,0.0,0.0,0.0,0.0,0.0,0.0,0.0,0.0,-1.2506,-1.1947,-1.2554,-1.1632,-1.1062,-1.1216,-1.1623,-1.1952,-1.2019,0.0,0.0,0.0,0.0,0.0,-1.2178,-1.2265,-1.2305,-1.2305,-1.2305,-1.2305,-1.2224,-1.0276,-0.9296,-0.9221,-0.7176,-0.6338,-0.6338,-0.6338,-0.6338,-0.6335,-0.6517,-0.6377,-0.6095,0.0,0.0,0.0,0.0,0.0,0.0,0.0,0.0,0.0,0.0,0.0,0.0,0.0,0.0,0.0,0.0,0.0,0.0,0.0,0.0,0.0,0.0,0.0,0.0,0.0,0.0,0.0,0.0,0.0,0.0,0.0,-0.7959,-0.851,-0.8707,-0.9033,-0.9647,-1.0688,-1.173,-1.2383,-1.2662,-1.2462,-1.198,-1.1123,-1.1037,-1.1037,-1.1037,-1.1386,-1.1906,-1.2766,-1.2766,-1.3209,-1.4088,-1.4088,-1.4088,-1.4088,-1.4088,-1.3039,-1.1042,-1.0783,-0.9488,-0.7577,-0.7228,-0.7139,-0.7139,-0.7139,-0.7139,-0.7139,-0.7139,-0.7139,-0.7139,-0.7139,-0.7139,-0.7139,0.0,0.0,0.0,0.0,0.0,0.0,0.0,0.0,0.0,0.0,-1.2512,-1.1889,-1.2432,-1.1517,-1.0862,-1.0982,-1.1196,-1.1349,-1.1423,0.0,0.0,0.0,0.0,-1.2499,-1.2298,-1.2305,-1.2305,-1.2305,-1.2305,-1.2077,-1.162,-1.0045,-0.9069,-0.8618,-0.7022,-0.6338,-0.6338,-0.6268,-0.6268,-0.6268,-0.6274,-0.6217,-0.6129,-0.6156,-0.6152,-0.6135,-0.6162,-0.6637,-0.7141,-0.7141,0.0,0.0,0.0,0.0,0.0,0.0,0.0,0.0,0.0,0.0,0.0,0.0,0.0,0.0,0.0,0.0,0.0,0.0,0.0,0.0,0.0,0.0,0.0,0.0,-0.7425,-0.7872,-0.7872,-0.8039,-0.8536,-0.9749,-1.0438,-1.1037,-1.1552,-1.1128,-1.0611,-0.9923,-0.9923,-0.9923,-0.9923,-1.0351,-1.0864,-1.1558,-1.1552,-1.2163,-1.3294,-1.3379,-1.3379,-1.3379,-1.3379,-1.2169,-0.9923,-0.9923,-0.8882,-0.7139,-0.7139,-0.7139,-0.7139,-0.7139,-0.7139,-0.7139,0.0,0.0,0.0,0.0,-0.7139,-0.7139,0.0,0.0,0.0,0.0,0.0,0.0,0.0,0.0,0.0,0.0,0.0,-1.1889,-1.2058,-1.1288,-1.0832,-1.0999,-1.0907,-1.0972,0.0,0.0,0.0,-1.2902,-1.2324,-1.2037,-1.2291,-1.2305,-1.2305,-1.2305,-1.2305,-1.1774,-1.0783,-0.9744,-0.8765,-0.7783,-0.6721,-0.6264,-0.6264,-0.6274,-0.6197,-0.596,-0.597,-0.6122,-0.6251,-0.6112,-0.6152,-0.6261,-0.5815,-0.578,-0.5922,-0.5938,0.0,0.0,0.0,0.0,0.0,0.0,0.0,0.0,0.0,0.0,0.0,0.0,0.0,0.0,0.0,0.0,0.0,0.0,0.0,0.0,0.0,0.0,0.0,0.0,-0.7048,-0.7139,-0.7139,-0.7139,-0.7577,-0.8715,-0.889,-0.9323,-1.0269,-0.9492,-0.8803,-0.8715,-0.8715,-0.8715,-0.8715,-0.9662,0.0,0.0,0.0,-1.0956,-1.2072,-1.2072,-1.2072,-1.2072,-1.2072,-1.0956,-0.889,-0.889,-0.8281,-0.7139,-0.7139,-0.7139,-0.7139,-0.7139,-0.7139,-0.7139,-0.7139,-0.7139,-0.7139,-0.7139,-0.7139,-0.7139,0.0,0.0,0.0,0.0,0.0,0.0,0.0,0.0,0.0,-1.3801,-1.3195,-1.2928,-1.3639,-1.2443,-1.1512,-1.1245,-1.1641,-1.208,0.0,0.0,-1.1626,-1.2134,-1.2163,-1.2245,-1.2305,-1.2305,-1.2305,-1.2305,-1.2305,-1.1774,-1.0783,-0.9744,-0.8765,-0.7783,-0.6729,-0.6274,-0.6278,-0.6288,-0.5332,-0.375,-0.375,-0.4776,-0.6285,-0.6254,-0.6264,-0.6048,-0.4278,-0.3669,-0.371,-0.3702,-0.3737,-0.3759,-0.3731,0.0,0.0,0.0,0.0,0.0,0.0,0.0,0.0,0.0,0.0,0.0,0.0,0.0,0.0,0.0,0.0,0.0,0.0,0.0,0.0,-0.6922,-0.7048,-0.7139,-0.7139,-0.7139,-0.7577,-0.8715,-0.889,-0.8978,-0.9235,-0.9065,-0.8452,-0.7492,-0.7489,-0.7489,-0.7489,-0.7661,-0.8185,-0.9235,-0.9235,-0.9749,-1.0956,-1.095,-1.095,-1.095,-1.095,0.0,-0.889,-0.889,-0.8281,-0.7139,-0.7139,-0.7139,-0.7139,-0.7139,-0.7139,-0.7139,-0.7139,-0.7139,-0.7139,-0.7139,-0.7139,-0.7139,0.0,0.0,0.0,0.0,0.0,0.0,0.0,0.0,0.0,0.0,-1.3115,-1.286,-1.3498,-1.2447,-1.1674,-1.1495,-1.1594,0.0,0.0,-1.1383,-1.1557,-1.1857,-1.2144,-1.2305,-1.2305,-1.2305,-1.2077,-1.1545,-1.1545,-1.0789,-0.9286,-0.8765,-0.8012,-0.7034,-0.6507,-0.5721,-0.4774,-0.5824,-0.5671,-0.4633,-0.353,-0.3767,-0.4719,-0.4706,-0.5341,-0.6152,-0.511,-0.3317,-0.1517,-0.1535,-0.1565,-0.1511,-0.1511,-0.1521,-0.1946,0.0,0.0,0.0,0.0,0.0,0.0,0.0,0.0,0.0,0.0,0.0,0.0,0.0,0.0,-0.6722,-0.68,0.0,-0.6953,-0.7024,-0.7095,-0.7139,-0.7139,-0.7139,-0.7316,-0.7929,-0.8017,-0.8017,-0.8017,-0.8017,-0.7753,-0.7139,-0.7139,-0.7139,-0.7139,-0.7139,-0.7439,-0.8143,-0.8147,-0.8714,-0.9961,-0.9961,-0.9961,-0.9961,-0.9855,-0.9287,-0.8143,-0.8055,-0.7665,-0.7139,-0.7139,-0.7139,-0.7139,-0.7139,-0.7139,-0.7139,-0.7139,-0.7139,-0.7139,-0.7139,-0.7139,-0.7139,0.0,0.0,0.0,0.0,0.0,0.0,0.0,0.0,0.0,0.0,0.0,-1.2704,-1.3095,-1.241,-1.1894,0.0,0.0,0.0,0.0,-1.0981,-1.1503,-1.1857,-1.2091,-1.2245,-1.2305,-1.2305,-1.1842,-1.0783,-1.0783,-0.9734,-0.7783,-0.7863,-0.7338,-0.6278,-0.6285,-0.5335,-0.3759,-0.4721,-0.5529,-0.609,-0.3544,-0.2518,-0.2516,-0.2504,-0.3608,-0.5048,-0.5048,-0.2866,-0.0,-0.0,-0.0,-0.0,-0.0,-0.0256,-0.0941,-0.2635,-0.47,0.0,0.0,0.0,0.0,0.0,0.0,0.0,0.0,-0.6586,-0.6603,-0.6756,-0.6787,-0.6824,-0.6946,-0.697,-0.7007,-0.7122,-0.7139,-0.7139,-0.7139,-0.7139,-0.7139,-0.7139,-0.7139,-0.7139,-0.7139,-0.7139,-0.7139,-0.7139,-0.717,-0.7183,-0.7183,-0.7214,-0.7288,-0.7411,-0.7414,-0.7926,-0.8975,-0.8979,-0.8979,-0.8975,-0.883,-0.8314,-0.7411,-0.7288,-0.7231,-0.7227,-0.7197,-0.7183,-0.7183,-0.7153,-0.7139,-0.7139,-0.7139,-0.7139,-0.7139,-0.7139,-0.7139,-0.7139,0.0,0.0,0.0,0.0,0.0,0.0,0.0,0.0,0.0,0.0,0.0,0.0,0.0,0.0,0.0,0.0,0.0,0.0,-1.1559,-1.1281,-1.1289,-1.1844,-1.1904,-1.2037,-1.2291,-1.2305,-1.1842,-1.0783,-1.0783,-0.9734,-0.7783,-0.8115,-0.7512,-0.6281,-0.6312,-0.6162,-0.5683,-0.22,-0.2833,-0.5943,-0.1965,-0.0314,-0.0314,-0.0314,-0.0471,-0.0707,-0.0707,-0.0393,-0.0,-0.0,-0.0,-0.0,-0.0,-0.1286,-0.2787,-0.3013,-0.4625,-0.6341,-0.6312,-0.6311,-0.5894,-0.3906,-0.4768,-0.6189,0.0,-0.6734,-0.6843,-0.6977,-0.7092,-0.7095,-0.7112,-0.7115,-0.7122,-0.7139,-0.7139,-0.7139,-0.7139,-0.7139,-0.7139,-0.7139,-0.7139,-0.7139,-0.7139,-0.7139,-0.7139,-0.7139,-0.7268,-0.7346,-0.7346,-0.7475,-0.7556,-0.7573,-0.7573,-0.7674,-0.7782,-0.7782,-0.7782,-0.7782,-0.7768,-0.7667,-0.7573,-0.7556,-0.755,-0.7543,-0.7404,-0.7346,-0.7333,-0.7197,-0.7139,-0.7139,-0.7139,-0.7139,-0.7139,-0.7139,-0.7139,-0.7139,0.0,0.0,0.0,0.0,0.0,0.0,0.0,0.0,0.0,0.0,0.0,0.0,0.0,0.0,0.0,0.0,0.0,0.0,-1.0611,-1.0826,-1.1176,-1.159,-1.1777,-1.2004,-1.2291,-1.1694,-1.0938,-0.9895,-0.9362,-0.8304,-0.6945,-0.7042,-0.618,-0.446,-0.5755,-0.4967,-0.2515,-0.0785,-0.1021,-0.2518,-0.0707,-0.0,-0.0,-0.0,-0.0,-0.0,-0.0,-0.0,0.0,0.0,-0.0,-0.0401,-0.2907,-0.4294,-0.4711,-0.3467,-0.4702,-0.6483,-0.6503,-0.641,-0.5501,-0.2123,-0.1964,-0.3005,-0.4287,-0.5684,-0.6827,-0.7044,-0.7071,-0.7068,-0.7143,-0.7139,-0.7139,-0.7139,-0.7139,-0.7139,-0.7139,-0.7139,-0.7139,-0.7139,-0.7139,-0.7139,-0.7139,-0.7221,-0.7275,-0.7275,-0.7417,-0.7506,-0.7506,-0.7563,-0.7638,-0.7719,-0.7723,-0.7767,-0.7855,-0.7855,-0.7855,-0.7855,-0.7767,-0.7723,-0.7719,-0.7638,-0.76,-0.7597,-0.7533,-0.7506,-0.7499,-0.7434,-0.7353,-0.7275,-0.7275,-0.7221,-0.7139,-0.7139,-0.7139,-0.7139,0.0,0.0,0.0,0.0,0.0,0.0,0.0,0.0,0.0,0.0,0.0,0.0,0.0,0.0,0.0,0.0,0.0,0.0,0.0,-1.0471,-1.0915,-1.1289,-1.159,-1.1735,-1.1799,-1.1125,-1.019,-0.8917,-0.8161,-0.7253,-0.6268,-0.6278,-0.5491,-0.3995,-0.4406,-0.2829,-0.0,-0.0,-0.0,-0.0,-0.0,-0.0,-0.0,-0.0,-0.0,-0.0151,-0.1136,-0.1507,0.0,0.0,-0.0682,-0.2011,-0.5099,-0.6176,-0.5984,-0.435,-0.5122,-0.6558,-0.6548,-0.646,-0.5588,-0.2501,-0.0871,-0.0437,-0.1922,-0.3587,-0.5105,-0.598,-0.6634,-0.7084,-0.7064,-0.7064,-0.7061,-0.7143,-0.7058,-0.7058,-0.7143,-0.7139,-0.7139,-0.7139,-0.7139,-0.7156,-0.72,-0.7305,-0.737,-0.737,-0.755,-0.7658,-0.7658,-0.7699,-0.777,-0.7872,-0.7875,-0.7926,-0.8038,-0.8038,-0.8038,-0.8038,-0.7926,-0.7875,-0.7872,-0.777,-0.7723,-0.7719,-0.7678,-0.7658,-0.7655,-0.7614,-0.7536,-0.7434,-0.7434,-0.7363,-0.7085,-0.7085,-0.7121,-0.7139,0.0,0.0,0.0,0.0,0.0,0.0,0.0,0.0,0.0,0.0,0.0,0.0,0.0,0.0,0.0,0.0,0.0,0.0,0.0,-1.0317,-1.0401,-1.0982,-1.1283,-1.1077,-1.0485,-1.066,-0.9809,-0.7859,-0.7783,-0.7257,-0.6278,-0.6291,-0.6227,-0.6009,-0.1963,-0.0157,-0.0,-0.0,-0.0,-0.0,-0.0,-0.0,-0.0,-0.0,-0.0,-0.0454,-0.3947,0.0,0.0,-0.1164,-0.2332,-0.5237,-0.5373,-0.5809,-0.6222,-0.6012,-0.6126,-0.6325,-0.6314,-0.6305,-0.6288,-0.6165,-0.3005,-0.0,-0.0089,-0.0179,-0.0893,-0.3212,-0.5552,-0.7098,-0.7088,-0.7094,-0.7091,-0.7058,-0.7071,-0.7078,-0.7143,-0.7139,-0.7139,-0.7139,-0.7139,-0.72,-0.735,-0.7366,-0.737,-0.737,-0.7641,-0.7804,-0.7804,-0.7943,-0.8028,-0.8031,-0.8031,-0.8035,-0.8038,-0.8038,-0.8038,-0.8038,-0.8035,-0.8031,-0.8031,-0.8028,-0.8024,-0.8018,-0.7868,-0.7804,-0.7794,-0.7655,-0.7597,-0.7594,-0.7594,-0.7396,-0.7198,-0.7198,-0.7116,-0.7139,0.0,0.0,0.0,0.0,0.0,0.0,0.0,0.0,0.0,0.0,0.0,0.0,0.0,0.0,0.0,0.0,0.0,0.0,0.0,-1.0755,-1.0856,-1.0969,-1.1269,-1.1064,-1.0401,-0.9994,-0.914,-0.7783,-0.7099,-0.6651,-0.6278,-0.4854,-0.4948,-0.609,-0.1885,-0.0,-0.0,-0.0,-0.0,-0.0,-0.0,-0.0,-0.0,-0.0,-0.1454,-0.3548,0.0,0.0,0.0,-0.3977,-0.3617,-0.3632,-0.3584,-0.4654,-0.5949,-0.6006,-0.6112,-0.6301,-0.6296,-0.6279,-0.5637,-0.283,-0.1072,-0.0,-0.0,-0.0,-0.0269,-0.1073,-0.2917,-0.4642,-0.5249,-0.6222,-0.6937,-0.6924,-0.7014,-0.7081,-0.7074,-0.7061,-0.7139,-0.7139,-0.7139,-0.72,-0.7356,-0.7461,-0.756,-0.7655,-0.7848,-0.7963,-0.7963,-0.8011,-0.8038,-0.8038,-0.8038,-0.8038,-0.8038,-0.8038,-0.7942,-0.7746,-0.754,-0.7437,-0.7437,-0.7437,-0.7437,-0.7434,-0.7387,-0.7368,-0.7365,-0.7321,-0.7249,-0.7171,-0.7171,-0.7114,-0.6935,-0.6935,-0.6876,-0.6888,0.0,0.0,0.0,0.0,0.0,0.0,0.0,0.0,0.0,0.0,0.0,0.0,0.0,0.0,0.0,0.0,0.0,0.0,0.0,0.0,-1.0823,-1.0571,-1.1009,-1.0729,-0.9558,-0.9228,-0.8468,-0.7249,-0.6506,-0.6213,-0.6278,-0.4142,-0.3444,-0.3932,-0.1178,-0.0,-0.0,-0.0,-0.0,-0.0,-0.0,-0.0781,-0.1938,-0.1938,-0.3008,0.0,0.0,0.0,0.0,-0.5398,-0.4626,-0.3662,-0.3657,-0.452,-0.5656,-0.5999,-0.6162,-0.6322,-0.6276,-0.5175,-0.3411,-0.0715,-0.0,-0.0,-0.0,-0.0,-0.0,-0.0,-0.2289,-0.4424,-0.5023,-0.599,-0.6675,-0.6783,-0.6109,-0.6019,-0.6825,-0.6991,-0.7001,-0.7058,-0.7064,-0.7231,-0.7434,-0.7543,-0.7658,-0.7801,-0.7953,-0.8038,-0.8038,-0.8038,-0.8038,-0.8038,-0.8038,-0.7939,-0.7842,-0.7842,-0.7743,-0.7444,-0.7238,-0.7238,-0.7238,-0.7238,-0.7238,-0.7238,-0.7238,-0.7238,-0.7238,-0.7238,-0.7189,-0.7116,-0.7116,-0.6964,-0.6792,-0.6792,-0.6696,-0.6678,0.0,0.0,0.0,0.0,0.0,0.0,0.0,0.0,0.0,0.0,0.0,0.0,0.0,0.0,0.0,0.0,0.0,0.0,0.0,0.0,0.0,-0.9795,-1.0571,-1.0091,-0.8068,-0.8433,-0.7898,-0.6314,-0.617,-0.6184,-0.6268,-0.4217,-0.2187,-0.0157,-0.0078,-0.0079,-0.0157,-0.0079,-0.0078,-0.0157,-0.0235,-0.2241,-0.5237,-0.5391,0.0,0.0,0.0,0.0,0.0,-0.5379,-0.5322,-0.5272,-0.5286,-0.5278,-0.5405,-0.6066,-0.6275,-0.6223,-0.6046,-0.3048,-0.0,-0.0,-0.0,-0.0,-0.0,-0.0,-0.009,-0.0269,-0.3439,-0.618,-0.6254,-0.6263,-0.6309,-0.6476,-0.4697,-0.4078,-0.6433,-0.6694,-0.6743,-0.6887,-0.7002,-0.7205,-0.7573,-0.7607,-0.7672,-0.7814,-0.7957,-0.8038,-0.8038,-0.8038,-0.8038,-0.8038,-0.7939,-0.7842,-0.7646,-0.7547,-0.7444,-0.7138,-0.7138,-0.7138,-0.7138,-0.7138,-0.7138,-0.7138,-0.7138,-0.7138,-0.7138,-0.7138,-0.7138,-0.7138,-0.7138,-0.7039,-0.6745,-0.6745,-0.6642,-0.6404,0.0,0.0,0.0,0.0,0.0,0.0,0.0,0.0,0.0,0.0,0.0,0.0,0.0,0.0,0.0,0.0,0.0,0.0,0.0,0.0,0.0,0.0,0.0,0.0,0.0,0.0,0.0,0.0,0.0,-0.6716,-0.6266,-0.5752,-0.438,-0.2266,-0.0704,-0.0861,-0.2189,-0.0627,-0.0776,-0.2134,0.0,-0.3766,-0.3528,0.0,0.0,0.0,0.0,0.0,-0.5432,-0.5376,-0.4493,-0.3411,-0.3407,-0.3375,-0.3716,-0.5209,-0.5915,-0.5593,-0.2429,-0.0792,-0.0,-0.0,-0.0,-0.0,-0.0,-0.0,-0.0894,-0.4053,-0.4306,-0.438,-0.5976,-0.6303,-0.5762,-0.4277,-0.486,-0.5711,-0.634,-0.5245,-0.444,-0.4463,-0.6172,-0.7326,-0.7402,-0.7604,-0.7821,-0.797,-0.8018,-0.8038,-0.8038,-0.8038,-0.8038,-0.8038,-0.7842,-0.7646,-0.7646,-0.7244,-0.6942,-0.6942,-0.6736,-0.6637,-0.6637,-0.6637,-0.6637,-0.6637,-0.6637,-0.6637,-0.6637,-0.6637,-0.6637,-0.6637,-0.6637,-0.6537,-0.6539,-0.6453,-0.6458,-0.6448,0.0,0.0,0.0,0.0,0.0,0.0,0.0,0.0,0.0,0.0,0.0,0.0,0.0,0.0,0.0,0.0,0.0,0.0,0.0,0.0,0.0,0.0,0.0,0.0,0.0,0.0,0.0,0.0,0.0,0.0,0.0,-0.6088,-0.5544,-0.4319,-0.3109,-0.2652,-0.2876,0.0,0.0,0.0,0.0,0.0,0.0,0.0,0.0,0.0,0.0,0.0,-0.5277,-0.4502,-0.4077,-0.3581,-0.1988,-0.1523,-0.1733,-0.2749,-0.328,-0.3051,-0.0616,-0.0,-0.0,-0.0,-0.0,-0.0,-0.0,-0.1417,-0.3434,-0.5789,-0.5307,-0.4859,-0.6115,-0.6309,-0.5618,-0.3472,-0.3348,-0.416,-0.6042,-0.5403,-0.4074,-0.223,-0.3276,-0.5023,-0.723,-0.7661,-0.7801,-0.7952,-0.7955,-0.8048,-0.8038,-0.8048,-0.7949,-0.7842,-0.7646,-0.7447,-0.7244,-0.6945,-0.6742,-0.6639,-0.6437,-0.6437,-0.6437,-0.6437,-0.6437,-0.6437,-0.6437,-0.6437,-0.6437,-0.6437,-0.6437,-0.6437,-0.6437,-0.6442,-0.645,-0.6358,-0.5854,-0.5041,0.0,0.0,0.0,0.0,0.0,0.0,0.0,0.0,0.0,0.0,0.0,0.0,0.0,0.0,0.0,0.0,0.0,0.0,0.0,0.0,0.0,0.0,0.0,0.0,0.0,0.0,0.0,0.0,0.0,0.0,0.0,0.0,0.0,0.0,0.0,0.0,0.0,0.0,0.0,0.0,0.0,0.0,0.0,0.0,0.0,0.0,0.0,0.0,0.0,-0.3313,-0.3576,-0.412,-0.0963,-0.0,-0.0,-0.0,-0.0,-0.0,-0.0,-0.0,-0.0,-0.0,-0.0,-0.0179,-0.0699,-0.3655,-0.6328,-0.6341,-0.6276,-0.6337,-0.6324,-0.6028,-0.5245,-0.3426,-0.1348,-0.1302,-0.4986,-0.5431,-0.4134,-0.0447,-0.0,-0.1772,-0.6189,-0.6918,-0.7251,-0.7466,-0.7779,-0.7865,-0.7537,-0.7759,-0.7865,-0.7646,-0.7547,-0.7344,-0.6845,-0.6745,-0.6642,-0.6437,-0.6439,-0.6439,-0.6437,-0.6437,-0.6437,-0.6437,-0.6437,-0.6437,-0.6439,-0.6439,-0.6439,-0.6442,-0.6442,-0.635,-0.6364,-0.6366,-0.5247,-0.3629,0.0,0.0,0.0,0.0,0.0,0.0,0.0,0.0,0.0,0.0,-1.456,-1.4329,0.0,0.0,0.0,0.0,0.0,0.0,0.0,0.0,0.0,0.0,0.0,0.0,0.0,0.0,0.0,0.0,-0.8276,0.0,0.0,0.0,0.0,0.0,0.0,0.0,0.0,0.0,0.0,0.0,0.0,0.0,0.0,0.0,0.0,0.0,0.0,0.0,0.0,0.0,-0.1917,-0.0836,-0.0161,-0.0,-0.0,-0.0,-0.0,-0.0,-0.0,-0.0,-0.0,-0.0,-0.0,-0.0893,-0.4376,-0.5759,-0.63,-0.6276,-0.628,-0.6301,-0.6329,-0.4813,-0.352,-0.3155,-0.1365,-0.0263,-0.098,-0.1072,-0.0805,-0.009,-0.0,-0.0379,-0.1236,-0.3333,-0.4606,-0.4722,-0.677,-0.7077,-0.482,-0.6748,-0.7865,-0.7646,-0.7341,-0.7141,-0.6845,-0.6556,-0.6453,-0.6437,-0.635,-0.635,-0.6437,-0.6437,-0.6437,-0.6437,-0.6437,-0.6445,-0.6358,-0.6358,-0.6364,-0.6369,-0.6369,-0.6372,-0.6374,-0.6382,-0.6181,-0.5569,0.0,0.0,0.0,0.0,0.0,0.0,0.0,-1.6479,-1.6194,-1.5276,-1.5186,-1.4687,-1.3467,-1.3324,-1.3238,0.0,0.0,0.0,0.0,0.0,0.0,0.0,0.0,0.0,0.0,-0.9886,-0.9743,-0.893,0.0,-0.826,-0.7293,-0.6566,-0.6245,-0.6245,-0.5786,0.0,0.0,0.0,0.0,0.0,0.0,0.0,0.0,0.0,0.0,0.0,0.0,0.0,0.0,0.0,-0.2365,-0.0,-0.0,-0.0,-0.0,-0.0,-0.0,-0.0,-0.0,-0.0,-0.0,-0.0,-0.0,-0.1069,-0.5357,-0.6266,-0.6263,-0.6288,-0.6301,-0.6274,-0.6285,-0.5427,-0.4392,-0.3285,-0.1356,-0.0,-0.0,-0.0,-0.0,-0.0,-0.0,-0.0,-0.0,-0.2465,-0.4541,-0.5969,-0.5977,-0.5356,-0.4117,-0.6545,-0.7869,-0.7563,-0.7347,-0.7039,-0.6639,-0.6656,-0.6653,-0.6437,-0.6356,-0.6358,-0.645,-0.645,-0.645,-0.635,-0.6356,-0.6358,-0.6361,-0.5244,-0.474,-0.4744,-0.4744,-0.5459,-0.6385,-0.639,-0.496,-0.293,0.0,0.0,0.0,0.0,0.0,0.0,0.0,-1.6522,-1.6281,-1.5676,-1.5499,-1.4824,-1.3238,-1.3104,-1.3065,0.0,0.0,0.0,0.0,0.0,0.0,0.0,0.0,0.0,0.0,0.0,0.0,-0.893,-0.917,0.0,0.0,0.0,0.0,0.0,-0.6075,-0.5686,-0.5686,0.0,0.0,0.0,0.0,-0.5428,0.0,0.0,0.0,0.0,0.0,-0.5376,-0.5441,-0.5626,-0.3756,-0.1209,-0.0799,-0.0988,-0.126,-0.0862,-0.0792,-0.0625,-0.0179,-0.0359,-0.0897,-0.1437,-0.1167,-0.1774,-0.5535,-0.6328,-0.6318,-0.6339,-0.6268,-0.6264,-0.6274,-0.6294,-0.5731,-0.4046,-0.2419,-0.1028,-0.0086,-0.0,-0.0,-0.0,-0.0,-0.0,-0.0,-0.1878,-0.405,-0.6095,-0.4356,-0.313,-0.3114,-0.5127,-0.6653,-0.7578,-0.7356,-0.7048,-0.6545,-0.6762,-0.6456,-0.5734,-0.6158,-0.6369,-0.6366,-0.5957,-0.5751,-0.5751,-0.6171,-0.6374,-0.6268,-0.4541,-0.3327,-0.2519,-0.2519,-0.3533,-0.5061,-0.5061,-0.293,-0.0,0.0,0.0,0.0,0.0,0.0,0.0,0.0,-1.6522,-1.6281,-1.5676,-1.5096,-1.4514,-1.3779,-1.3732,-1.3515,0.0,0.0,0.0,0.0,0.0,0.0,0.0,0.0,0.0,0.0,0.0,0.0,-0.9953,-0.9511,0.0,0.0,0.0,0.0,0.0,0.0,-0.6593,-0.6523,-0.5752,0.0,0.0,0.0,0.0,0.0,0.0,0.0,0.0,0.0,-0.5372,-0.543,-0.5661,-0.5623,-0.5108,-0.3408,-0.4153,-0.5372,-0.3772,-0.3296,-0.2792,-0.0623,-0.1608,-0.3755,-0.5941,-0.4844,-0.3888,-0.6033,-0.6566,-0.6562,-0.6325,-0.6338,-0.6338,-0.6264,-0.6281,-0.6264,-0.607,-0.5875,-0.4392,-0.0517,-0.0,-0.0,-0.0,-0.0,-0.0,-0.0,-0.0198,-0.0505,-0.0707,-0.0505,-0.0404,-0.0402,-0.0603,-0.2916,-0.7785,-0.7481,-0.7181,-0.7077,-0.6684,-0.5461,-0.3525,-0.5461,-0.6382,-0.6374,-0.4336,-0.3527,-0.3627,-0.5557,-0.638,-0.6388,-0.6183,-0.3841,-0.0303,-0.0303,-0.0404,-0.0606,-0.0606,-0.0303,-0.0,0.0,0.0,0.0,0.0,0.0,0.0,-1.6522,-1.6522,-1.6151,-1.5186,-1.4835,-1.434,-1.3382,-1.3238,-1.3152,-1.2929,0.0,0.0,0.0,0.0,0.0,0.0,0.0,0.0,0.0,0.0,-1.0631,-1.0479,-1.019,0.0,0.0,0.0,0.0,0.0,0.0,-0.7502,-0.7437,-0.6527,0.0,0.0,0.0,0.0,0.0,0.0,0.0,0.0,0.0,0.0,-0.5396,-0.5613,-0.6324,-0.6897,-0.5357,-0.6045,-0.7255,-0.5899,-0.5567,-0.5505,-0.4541,-0.3933,-0.4198,-0.6474,-0.6319,-0.5675,-0.6441,-0.6493,-0.6367,-0.6308,-0.6338,-0.6338,-0.6338,-0.6264,-0.6288,-0.6267,-0.6281,-0.5722,-0.4068,-0.2895,-0.165,-0.0176,-0.0,-0.0,-0.0,-0.0,-0.0,-0.0,-0.0,-0.0,-0.0,-0.0,-0.1006,-0.3122,-0.4533,-0.5142,-0.4841,-0.5871,-0.5363,-0.3224,-0.2723,-0.3939,-0.6385,-0.5564,-0.3734,-0.1309,-0.2219,-0.4043,-0.6186,-0.3639,-0.1515,-0.0,-0.0,-0.0,-0.0,-0.0,-0.0,-0.0,0.0,0.0,0.0,0.0,0.0,-1.6479,-1.6522,-1.6522,-1.6194,-1.5344,-1.4926,-1.4387,-1.3525,-1.3113,-1.2881,-1.2881,-1.2881,0.0,0.0,0.0,0.0,0.0,0.0,0.0,0.0,0.0,-1.0899,-1.0679,-1.0629,-1.0624,0.0,0.0,-0.9658,-0.9658,0.0,0.0,0.0,0.0,0.0,0.0,0.0,0.0,0.0,0.0,0.0,0.0,0.0,0.0,0.0,0.0,0.0,-0.7929,-0.7066,0.0,0.0,-0.703,-0.6776,-0.7018,-0.7082,-0.588,-0.5001,-0.6729,-0.69,-0.6748,-0.6676,-0.6522,-0.6368,-0.6295,-0.6338,-0.6338,-0.6338,-0.6338,-0.6338,0.0,-0.6277,-0.6284,-0.6334,-0.5173,-0.3842,-0.2249,-0.145,-0.0751,-0.0095,-0.0,-0.0,-0.0,-0.0,-0.0,-0.0,-0.0,-0.0,-0.0,-0.1813,-0.2619,-0.2217,-0.3739,-0.3739,-0.2217,-0.0706,-0.1614,-0.4552,-0.4552,-0.2827,-0.0,-0.0,-0.1717,-0.4248,-0.1212,-0.0,-0.0,-0.0,-0.0,-0.0,-0.0,-0.0,-0.0,0.0,0.0,0.0,0.0,0.0,0.0,-1.6479,-1.6522,-1.6522,-1.6466,-1.5421,-1.4698,-1.4698,-1.361,-1.2881,-1.2881,-1.2881,0.0,0.0,0.0,0.0,0.0,0.0,0.0,0.0,0.0,-1.1343,-1.0679,-1.0629,-1.0624,-1.0624,-1.0561,-1.0561,-1.0561,0.0,0.0,0.0,0.0,0.0,0.0,0.0,0.0,0.0,0.0,0.0,0.0,0.0,0.0,0.0,0.0,0.0,0.0,0.0,0.0,0.0,0.0,-0.6583,-0.6739,-0.6994,-0.7044,-0.7054,-0.7081,-0.6964,-0.6888,-0.6736,-0.6583,-0.643,-0.6291,-0.6338,-0.6338,-0.6338,-0.6338,-0.6338,-0.6338,-0.6264,-0.6318,-0.6318,-0.626,-0.646,-0.6946,-0.496,-0.2638,-0.019,-0.0,-0.0,-0.0,-0.0,-0.0,-0.0,-0.0,-0.0,-0.0,-0.0,-0.0,-0.0,-0.0101,-0.0101,-0.0,-0.0,-0.0,-0.0101,-0.0101,-0.0,-0.0,-0.0,-0.0,-0.0101,-0.0,-0.0,-0.0,-0.0,-0.0,-0.0,-0.0,-0.0,-0.0,0.0,0.0,0.0,0.0,0.0,0.0,0.0,-1.6479,-1.6337,-1.5952,-1.5543,-1.5005,-1.419,-1.3732,-1.3324,-1.2929,-1.2881,0.0,0.0,0.0,0.0,0.0,0.0,0.0,0.0,0.0,0.0,0.0,-1.139,-1.117,-1.0624,-1.0624,-1.0624,-1.0561,-1.0301,-1.0174,0.0,0.0,0.0,0.0,0.0,0.0,-0.8027,0.0,0.0,0.0,0.0,0.0,0.0,0.0,0.0,0.0,0.0,0.0,0.0,0.0,-0.7994,-0.7619,-0.7804,-0.7388,-0.6841,-0.6848,-0.7224,-0.7647,-0.7592,-0.745,-0.739,-0.7338,-0.6795,-0.6338,-0.6338,-0.6338,-0.6338,-0.6338,-0.6338,-0.6278,-0.6329,-0.6431,-0.6632,-0.6847,-0.6353,-0.4436,-0.0395,-0.0,-0.0,-0.0,-0.0,-0.0,-0.0,-0.0,-0.0,-0.0,-0.0,-0.0,-0.0,-0.0,-0.0,-0.0,-0.0,-0.0,-0.0,-0.0,-0.0,-0.0,-0.0,-0.0,-0.0,-0.0,-0.0,-0.0,-0.0,-0.0,-0.0,-0.0,-0.0,-0.0,0.0,0.0,0.0,0.0,0.0,0.0,0.0,-1.6362,-1.625,-1.5888,-1.5656,-1.5197,-1.4468,-1.419,-1.3826,-1.32,-1.32,0.0,0.0,0.0,0.0,0.0,0.0,0.0,0.0,0.0,0.0,0.0,0.0,0.0,-1.1045,-1.1045,-1.0863,-1.0624,-1.0624,-1.0624,0.0,0.0,0.0,0.0,0.0,0.0,-0.9,0.0,0.0,0.0,0.0,0.0,0.0,0.0,0.0,0.0,0.0,0.0,0.0,0.0,-0.9695,-0.8989,-0.8724,-0.8273,-0.7839,-0.7839,-0.8184,-0.8593,-0.8593,-0.8449,-0.8389,-0.8389,-0.7859,-0.7403,-0.7403,-0.7099,-0.6872,-0.6872,-0.6567,-0.6281,-0.6332,-0.6498,-0.6715,-0.6897,-0.6199,-0.4632,-0.1693,-0.0502,-0.0,-0.0,-0.0,-0.0,-0.0,-0.0,-0.0,-0.0,-0.0,-0.0,-0.0,-0.0,-0.0,-0.0,-0.0,-0.0,-0.0,-0.0,-0.0,-0.0,-0.0,-0.0,0.0,-0.0,-0.0,-0.0,-0.0,-0.0,-0.0,-0.0,-0.0,-0.0,0.0,0.0,0.0,0.0,0.0,0.0,0.0,-1.6188,-1.62,-1.62,-1.5724,-1.5355,-1.5311,-1.488,-1.4329,-1.3705,0.0,0.0,0.0,0.0,0.0,0.0,0.0,0.0,0.0,0.0,0.0,-1.2967,-1.3016,-1.2696,-1.1888,0.0,-1.1469,-1.0744,-1.0744,-1.0744,0.0,0.0,0.0,0.0,0.0,0.0,0.0,0.0,0.0,0.0,0.0,0.0,0.0,0.0,0.0,0.0,0.0,0.0,0.0,0.0,0.0,0.0,0.0,-0.9662,-0.9661,-0.9661,-0.9667,-0.9589,-0.9589,-0.9515,0.0,-0.9372,-0.9372,-0.9296,-0.9296,-0.8466,-0.7859,-0.7859,-0.7022,-0.6386,-0.661,-0.6589,-0.6692,-0.7109,-0.5195,-0.372,-0.3421,-0.1295,-0.0,-0.0,-0.0,-0.0,-0.0,-0.0,-0.0,-0.0,-0.0,-0.0,-0.0,-0.0,-0.0,-0.0,-0.0,-0.0,-0.0,-0.0,-0.0,-0.0,-0.0,-0.0,-0.0,-0.0,-0.0,-0.0,-0.0,-0.0,-0.0,-0.0,-0.0,-0.0,0.0,0.0,0.0,0.0,0.0,0.0,0.0,0.0,0.0,0.0,-1.61,-1.5824,-1.5355,-1.5164,-1.4846,0.0,0.0,0.0,0.0,0.0,0.0,0.0,0.0,0.0,0.0,0.0,0.0,-1.3435,-1.3735,-1.3485,-1.2704,-1.2704,0.0,0.0,-1.2458,0.0,0.0,0.0,0.0,0.0,0.0,0.0,0.0,0.0,0.0,0.0,-1.0624,-1.0624,0.0,0.0,0.0,0.0,0.0,0.0,0.0,0.0,-1.1926,-1.1935,-1.1702,0.0,-0.9376,-0.9376,-0.9937,-1.0494,0.0,-1.0455,-1.0415,-1.0415,-0.982,-0.9296,-0.9296,-0.8466,-0.8084,-0.8846,-0.748,-0.6617,-0.7553,-0.737,-0.7204,-0.7329,-0.7158,-0.537,-0.1274,-0.0299,-0.0,-0.0,-0.0,-0.0,-0.0,-0.0,-0.0,-0.0,-0.0,-0.0,-0.0,-0.0,-0.0,-0.0,-0.0,-0.0,-0.0,-0.0,-0.0,-0.0,-0.0,-0.0,-0.0,-0.0,-0.0,-0.0,-0.0,-0.0,-0.0,-0.0,-0.0,-0.0,0.0,0.0,0.0,0.0,0.0,0.0,0.0,0.0,0.0,0.0,0.0,-1.5881,-1.5558,-1.5591,0.0,0.0,0.0,0.0,0.0,0.0,0.0,0.0,0.0,0.0,0.0,0.0,0.0,0.0,0.0,-1.4332,0.0,0.0,0.0,0.0,0.0,0.0,0.0,0.0,0.0,0.0,-1.2143,0.0,0.0,0.0,0.0,0.0,-1.1288,-1.1163,0.0,-1.0744,-1.0624,-1.0651,0.0,0.0,0.0,0.0,-1.1971,-1.2305,-1.2305,-1.1477,-1.0651,-1.0651,-1.1093,-1.1465,-1.1465,-1.1465,-1.1465,-1.1465,-1.1093,-1.0571,-1.0045,-0.9219,-0.8567,-0.8632,-0.7383,-0.6753,-0.739,-0.7361,-0.7322,-0.7475,-0.7677,-0.6761,-0.3968,-0.14,-0.0,-0.0,-0.0,-0.0,-0.0,-0.0,-0.0,-0.0,-0.0,-0.0,-0.0,-0.0,-0.0,-0.0,-0.0,-0.0,-0.0,-0.0,-0.0,-0.0,-0.0,-0.0,-0.0,-0.0,-0.0,-0.0,-0.0,-0.0,-0.0,-0.0,-0.0,-0.0,0.0,0.0,0.0,0.0,0.0,0.0,0.0,0.0,0.0,0.0,0.0,0.0,0.0,0.0,0.0,0.0,0.0,0.0,0.0,0.0,0.0,0.0,0.0,0.0,0.0,0.0,0.0,0.0,0.0,0.0,0.0,0.0,-1.4025,0.0,0.0,0.0,0.0,0.0,0.0,0.0,-1.2504,0.0,0.0,0.0,0.0,0.0,0.0,0.0,0.0,-1.117,-1.087,-1.0807,-1.0807,0.0,0.0,0.0,0.0,0.0,-1.2305,-1.2338,-1.2358,-1.2311,-1.2305,-1.2305,-1.2305,0.0,-1.2305,-1.2305,-1.2305,-1.2009,-1.0986,-1.0073,-0.9131,-0.8227,-0.7396,-0.6927,-0.6936,-0.7105,-0.7305,-0.7567,-0.7664,-0.7821,-0.7942,-0.3513,-0.0403,-0.0,-0.0,-0.0,-0.0,-0.0,-0.0,-0.0,-0.0,-0.0,-0.0,-0.0,-0.0,-0.0,-0.0,-0.0,-0.0,-0.0,-0.0,-0.0,-0.0,-0.0,-0.0,-0.0,-0.0,-0.0,-0.0,-0.0,-0.0,-0.0,-0.0,-0.0,0.0,0.0,0.0,0.0,0.0,0.0,0.0,0.0,0.0,0.0,0.0,0.0,0.0,0.0,0.0,0.0,0.0,0.0,0.0,0.0,0.0,0.0,0.0,0.0,0.0,0.0,0.0,0.0,0.0,0.0,-1.5235,-1.5235,-1.5177,-1.505,0.0,0.0,0.0,0.0,0.0,0.0,-1.4145,0.0,0.0,0.0,0.0,0.0,0.0,0.0,0.0,-1.2642,-1.2212,-1.1648,-1.1648,0.0,0.0,0.0,0.0,0.0,-1.2305,-1.2485,-1.2694,-1.2365,-1.2305,-1.2305,-1.2305,0.0,-1.2305,-1.2305,-1.2305,-1.2,-1.1153,-1.0056,-0.9316,-0.9228,-0.8506,-0.7788,-0.7155,-0.735,-0.7546,-0.7594,-0.7841,-0.7875,-0.7791,-0.5079,-0.241,-0.0201,-0.0,-0.0,-0.0,-0.0,-0.0,-0.0,-0.0,-0.0,-0.0,-0.0,-0.0,-0.0,-0.0,-0.0,-0.0,-0.0,-0.0,-0.0,-0.0,-0.0,-0.0,-0.0,-0.0,-0.0,-0.0,-0.0,-0.0,-0.0,-0.0,-0.0,0.0,0.0,0.0,0.0,0.0,0.0,0.0,0.0,0.0,0.0,0.0,0.0,0.0,0.0,0.0,0.0,0.0,0.0,0.0,0.0,0.0,0.0,0.0,0.0,0.0,0.0,0.0,0.0,0.0,-1.541,-1.541,-1.541,-1.541,-1.541,0.0,0.0,0.0,0.0,0.0,0.0,0.0,0.0,0.0,0.0,0.0,0.0,0.0,0.0,0.0,0.0,-1.2451,-1.1896,-1.2328,0.0,0.0,0.0,0.0,0.0,-1.2305,-1.2405,-1.2512,-1.2532,-1.2196,-1.1676,-1.1051,0.0,-1.101,-1.1493,-1.1614,-1.1341,-1.0373,-0.9792,-0.9204,-0.8363,-0.7745,-0.733,-0.73,-0.7316,-0.7441,-0.7685,-0.7834,-0.7929,-0.7865,-0.6819,-0.4425,-0.0302,-0.0,-0.0,-0.0,-0.0,-0.0,-0.0,-0.0,-0.0,-0.0,-0.0,-0.0,-0.0,-0.0,-0.0,-0.0,-0.0,-0.0,-0.0,-0.0,-0.0,-0.0,-0.0,-0.0,-0.0,-0.0,-0.0,-0.0,-0.0,-0.0,-0.0,0.0,0.0,0.0,0.0,0.0,0.0,0.0,0.0,0.0,0.0,0.0,0.0,0.0,0.0,0.0,0.0,0.0,0.0,0.0,0.0,-1.3848,-1.4268,-1.4609,0.0,0.0,0.0,-1.5088,-1.541,-1.541,-1.541,-1.541,-1.541,-1.541,-1.541,0.0,0.0,-1.541,-1.541,0.0,0.0,0.0,0.0,0.0,0.0,0.0,0.0,0.0,0.0,0.0,0.0,0.0,0.0,0.0,0.0,0.0,-1.2579,-1.2684,-1.2592,-1.2372,-1.2351,-1.2384,-1.2374,-1.1995,0.0,0.0,0.0,0.0,-1.0583,-1.0718,-1.0399,-0.9375,-0.911,-0.8665,-0.7512,-0.7045,-0.6909,-0.7363,-0.7322,-0.74,-0.7818,-0.7865,-0.7919,-0.7959,-0.7982,-0.6255,-0.2213,-0.0706,-0.0,-0.0,-0.0,-0.0,-0.0,-0.0,-0.0,-0.0,-0.0,-0.0,-0.0,-0.0,-0.0,-0.0,-0.0,-0.0,-0.0,-0.0,-0.0,-0.0,-0.0,-0.0,-0.0,-0.0,-0.0,-0.0,-0.0,-0.0,-0.0,0.0,0.0,0.0,0.0,0.0,0.0,0.0,0.0,0.0,0.0,0.0,0.0,0.0,0.0,0.0,0.0,0.0,0.0,0.0,0.0,-1.4277,-1.4717,-1.4766,0.0,0.0,-1.5166,-1.5381,-1.541,-1.541,-1.541,-1.541,-1.541,-1.541,-1.541,0.0,-1.541,-1.541,-1.541,-1.541,-1.541,0.0,0.0,0.0,0.0,0.0,0.0,0.0,0.0,0.0,0.0,0.0,0.0,0.0,0.0,-1.376,-1.2916,-1.3097,-1.3382,-1.2519,-1.2505,-1.2483,-1.1408,-1.1702,0.0,-1.1538,-1.114,0.0,-0.9968,-0.9766,-0.9523,-0.847,-0.7506,-0.7195,-0.7954,-0.7418,-0.7071,-0.7519,-0.7573,-0.7682,-0.7987,-0.8024,-0.8035,-0.7969,-0.7982,-0.7795,-0.7403,-0.2827,-0.0,-0.0,-0.0,-0.0,-0.0,-0.0,-0.0,-0.0,-0.0,-0.0,-0.0,-0.0,-0.0,-0.0,-0.0,-0.0,-0.0,-0.0,-0.0,-0.0,-0.0,-0.0,-0.0,-0.0,-0.0,-0.0,-0.0,-0.0,-0.0,0.0,0.0,0.0,0.0,0.0,0.0,0.0,0.0,0.0,0.0,0.0,0.0,0.0,0.0,0.0,0.0,0.0,0.0,0.0,0.0,-1.4727,-1.5156,-1.5176,-1.5338,-1.5725,-1.5496,-1.541,-1.541,-1.541,-1.541,-1.541,-1.541,0.0,0.0,-1.541,-1.541,-1.541,-1.541,-1.541,-1.541,-1.541,0.0,0.0,0.0,0.0,0.0,0.0,0.0,0.0,0.0,-1.4874,-1.4273,0.0,-1.456,-1.4016,-1.3561,-1.3577,-1.3528,-1.2519,-1.2518,-1.2669,-1.2197,-1.2348,0.0,0.0,-1.0582,-1.034,-0.9953,-0.9896,-0.962,-0.8431,-0.7517,-0.7028,-0.7355,-0.7221,-0.7187,-0.755,-0.76,-0.7709,-0.8004,-0.8038,-0.8041,-0.7952,-0.6539,-0.5536,-0.5543,-0.2117,-0.0,-0.0,-0.0,-0.0,-0.0,-0.0,-0.0,-0.0,-0.0,-0.0,-0.0,-0.0,-0.0,-0.0,-0.0,-0.0,-0.0,-0.0,-0.0,-0.0,-0.0,-0.0,-0.0,-0.0,-0.0,-0.0,-0.0,-0.0,-0.0,0.0,0.0,0.0,0.0,0.0,0.0,0.0,0.0,0.0,0.0,0.0,0.0,0.0,0.0,0.0,0.0,0.0,0.0,0.0,0.0,-1.5335,-1.54,0.0,-1.5575,-1.6026,-1.5633,-1.5584,-1.6036,-1.5864,-1.5633,-1.541,0.0,0.0,0.0,0.0,-1.541,-1.541,-1.541,-1.541,-1.541,-1.541,-1.541,0.0,0.0,0.0,0.0,0.0,0.0,0.0,0.0,-1.505,-1.4688,0.0,-1.5195,-1.4811,-1.409,-1.4055,-1.4041,-1.2803,-1.2667,-1.2849,-1.2943,0.0,0.0,-1.1506,-1.0891,-1.0419,-0.9742,-0.9391,-0.899,-0.8359,-0.7614,-0.7128,-0.7368,-0.7219,-0.7248,-0.7556,-0.76,-0.7709,-0.8004,-0.8038,-0.8041,-0.8048,-0.6337,-0.4524,-0.2912,-0.1008,-0.0,-0.0,-0.0,-0.0,-0.0,-0.0,-0.0,-0.0,-0.0,-0.0,-0.0,-0.0,-0.0,-0.0,-0.0,-0.0,-0.0,-0.0,-0.0,-0.0,-0.0,-0.0,-0.0,-0.0,-0.0,-0.0,-0.0,-0.0,-0.0,0.0,0.0,0.0,0.0,0.0,0.0,0.0,0.0,0.0,0.0,0.0,0.0,0.0,0.0,0.0,0.0,0.0,0.0,0.0,0.0,0.0,0.0,0.0,-1.541,-1.541,-1.541,-1.6083,-1.7379,-1.6765,-1.6151,-1.541,-1.541,0.0,0.0,0.0,-1.541,-1.541,-1.541,-1.541,-1.541,-1.541,-1.541,-1.541,0.0,0.0,0.0,0.0,0.0,0.0,0.0,-1.541,-1.541,0.0,0.0,-1.6338,-1.4484,-1.471,-1.5176,-1.3334,-1.2822,-1.2903,-1.3126,-1.2979,-1.2913,-1.3507,-1.25,-1.1061,-0.9243,-0.7887,-0.7182,-0.8191,-0.7606,-0.7268,-0.8191,-0.7646,-0.7248,-0.7556,-0.76,-0.7709,-0.8004,-0.8038,-0.8048,-0.7972,-0.7982,-0.5744,-0.0402,-0.0,-0.0,-0.0,-0.0,-0.0,-0.0,-0.0,-0.0,-0.0,-0.0,-0.0,-0.0,-0.0,-0.0,-0.0,-0.0,-0.0,-0.0,-0.0,-0.0,-0.0,-0.0,-0.0,-0.0,-0.0,-0.0,-0.0,-0.0,-0.0,-0.0,0.0,0.0,0.0,0.0,0.0,0.0,0.0,0.0,0.0,0.0,0.0,0.0,0.0,0.0,0.0,0.0,0.0,0.0,0.0,0.0,0.0,0.0,0.0,0.0,0.0,0.0,-1.6539,-1.5968,-1.5806,-1.5633,0.0,0.0,0.0,-1.541,0.0,0.0,-1.541,-1.541,-1.541,-1.541,-1.541,-1.541,-1.541,0.0,0.0,0.0,0.0,0.0,0.0,0.0,0.0,0.0,-1.541,0.0,-1.6338,-1.4484,-1.4599,-1.4889,-1.2938,-1.2746,-1.3046,-1.2913,-1.3133,-1.3427,-1.3519,-1.3241,-1.2441,-1.0469,-0.9077,-0.8021,-0.7432,-0.718,-0.7131,-0.7282,-0.7219,-0.7248,-0.7556,-0.76,-0.7709,-0.8004,-0.8038,-0.8041,-0.8048,-0.7965,-0.6548,-0.3112,-0.1106,-0.0,-0.0,-0.0,-0.0,-0.0,-0.0,-0.0,-0.0,-0.0,-0.0,-0.0,-0.0,-0.0,-0.0,-0.0,-0.0,-0.0,-0.0,-0.0,-0.0,-0.0,-0.0,-0.0,-0.0,-0.0,-0.0,-0.0,-0.0,-0.0,0.0,0.0,0.0,0.0,0.0,0.0,0.0,0.0,0.0,0.0,0.0,0.0,0.0,0.0,0.0,0.0,0.0,0.0,0.0,0.0,0.0,0.0,0.0,0.0,0.0,-1.6368,-1.6197,0.0,0.0,0.0,0.0,0.0,-1.541,-1.541,0.0,-1.541,-1.541,-1.541,-1.541,-1.541,-1.541,-1.541,-1.541,0.0,0.0,0.0,0.0,0.0,0.0,0.0,0.0,0.0,-1.541,0.0,-1.5891,-1.4455,-1.4399,-1.4506,-1.3217,-1.3019,-1.322,-1.3267,-1.346,-1.3503,-1.3188,-1.2708,-1.1899,-1.0245,-0.8966,-0.7865,-0.7097,-0.7082,-0.7112,-0.7027,-0.7085,-0.7248,-0.7556,-0.76,-0.7709,-0.8004,-0.8038,-0.8038,-0.8038,-0.7959,-0.7359,-0.5737,-0.211,-0.0,-0.0,-0.0,-0.0,-0.0,-0.0,-0.0,-0.0,-0.0,-0.0,-0.0,-0.0,-0.0,-0.0,-0.0,-0.0,-0.0,-0.0,-0.0,-0.0,-0.0,-0.0,-0.0,-0.0,-0.0,-0.0,-0.0,-0.0,-0.0,0.0,0.0,0.0,0.0,0.0,0.0,0.0,0.0,0.0,0.0,0.0,0.0,0.0,0.0,0.0,0.0,0.0,0.0,0.0,0.0,0.0,0.0,0.0,0.0,0.0,0.0,0.0,0.0,0.0,0.0,0.0,0.0,-1.541,-1.541,0.0,-1.541,-1.541,-1.541,-1.541,-1.541,-1.541,-1.541,-1.541,-1.541,0.0,0.0,0.0,0.0,0.0,0.0,0.0,0.0,-1.541,-1.535,-1.5145,-1.4461,-1.4244,-1.4033,-1.3641,-1.3407,-1.338,-1.3915,-1.3778,-1.3239,-1.219,-1.1214,-1.0183,-0.9148,-0.8013,-0.7228,-0.7139,-0.7139,-0.7139,-0.7139,-0.7139,-0.7241,-0.7539,-0.759,-0.7702,-0.7984,-0.8031,-0.8038,-0.8038,-0.7959,-0.7975,-0.7989,-0.3218,-0.0302,-0.0,-0.0,-0.0,-0.0,-0.0,-0.0,-0.0,-0.0,-0.0,-0.0,-0.0,-0.0,-0.0,-0.0,-0.0,-0.0,-0.0,-0.0,-0.0,-0.0,-0.0,-0.0,-0.0,-0.0,-0.0,-0.0,-0.0,-0.0,0.0,0.0,0.0,0.0,0.0,0.0,0.0,0.0,0.0,0.0,0.0,0.0,0.0,0.0,0.0,0.0,0.0,0.0,0.0,0.0,0.0,0.0,0.0,0.0,0.0,0.0,0.0,0.0,0.0,0.0,0.0,0.0,0.0,-1.541,0.0,-1.541,-1.541,-1.541,-1.541,-1.541,-1.541,-1.541,-1.541,-1.541,-1.541,0.0,0.0,0.0,0.0,0.0,0.0,0.0,-1.541,-1.5213,-1.4881,-1.4156,-1.3886,-1.3719,-1.314,-1.324,-1.3581,-1.3707,-1.3169,-1.2093,-1.0086,-0.9405,-0.9235,-0.8978,-0.8715,-0.8189,-0.7316,-0.7139,-0.7139,-0.7139,-0.7139,-0.7207,-0.7394,-0.7522,-0.7665,-0.7838,-0.7967,-0.8038,-0.8038,-0.8045,-0.7955,-0.7975,-0.5027,-0.221,-0.0101,-0.0,-0.0,-0.0,-0.0,-0.0,-0.0,-0.0,-0.0,-0.0,-0.0,-0.0,-0.0,-0.0,-0.0,-0.0,-0.0,-0.0,-0.0,-0.0,-0.0,-0.0,-0.0,-0.0,-0.0,-0.0,-0.0,-0.0,0.0,0.0,0.0,0.0,0.0,0.0,0.0,0.0,0.0,0.0,0.0,0.0,0.0,0.0,0.0,0.0,0.0,0.0,0.0,0.0,0.0,0.0,0.0,0.0,0.0,0.0,0.0,0.0,0.0,0.0,0.0,0.0,0.0,-1.541,0.0,-1.541,-1.541,-1.541,-1.541,-1.541,-1.541,-1.541,-1.541,-1.541,-1.541,-1.541,-1.541,0.0,0.0,0.0,0.0,0.0,0.0,0.0,-1.4153,-1.4114,-1.3515,-1.2903,-1.3135,-1.33,-1.3338,-1.301,-1.2234,-1.1037,-0.9323,-0.8452,-0.8013,-0.8013,-0.8013,-0.7841,-0.7228,-0.7139,-0.7139,-0.7139,-0.7139,-0.7193,-0.735,-0.7441,-0.757,-0.7784,-0.7882,-0.796,-0.8031,-0.8038,-0.8048,-0.7972,-0.6751,-0.4223,-0.0201,-0.0,-0.0,-0.0,-0.0,-0.0,-0.0,-0.0,-0.0,-0.0,-0.0,-0.0,-0.0,-0.0,-0.0,-0.0,-0.0,-0.0,-0.0,-0.0,-0.0,-0.0,-0.0,-0.0,-0.0,-0.0,-0.0,-0.0,0.0,0.0,0.0,0.0,0.0,0.0,0.0,0.0,0.0,0.0,0.0,0.0,0.0,0.0,0.0,0.0,0.0,0.0,0.0,0.0,0.0,0.0,-1.5468,0.0,0.0,0.0,0.0,0.0,0.0,0.0,0.0,0.0,0.0,-1.541,0.0,-1.541,-1.541,-1.541,-1.541,-1.541,-1.541,-1.541,-1.541,-1.541,-1.541,-1.541,-1.541,-1.541,-1.541,-1.541,0.0,0.0,0.0,0.0,-1.3459,-1.4044,-1.313,-1.2104,-1.3193,-1.3387,-1.3078,-1.2216,-1.1295,-1.0265,-0.8886,-0.7841,-0.7139,-0.7139,-0.7139,-0.7139,-0.7139,-0.7139,-0.7139,-0.7139,-0.7139,-0.7183,-0.7312,-0.7356,-0.7461,-0.7706,-0.778,-0.7862,-0.7987,-0.8024,-0.8048,-0.7965,-0.7979,-0.5844,-0.0905,-0.0202,-0.0,-0.0,-0.0,-0.0,-0.0,-0.0,-0.0,-0.0,-0.0,-0.0,-0.0,-0.0,-0.0,-0.0,-0.0,-0.0,-0.0,-0.0,-0.0,-0.0,-0.0,-0.0,-0.0,-0.0,-0.0,-0.0,0.0,0.0,0.0,0.0,0.0,0.0,0.0,0.0,0.0,0.0,0.0,0.0,0.0,0.0,0.0,0.0,0.0,0.0,-1.8221,0.0,0.0,-1.6368,-1.5748,-1.569,0.0,0.0,0.0,0.0,0.0,0.0,0.0,0.0,0.0,-1.541,0.0,0.0,-1.541,-1.541,-1.541,-1.541,-1.541,-1.541,-1.541,-1.541,-1.541,-1.541,-1.541,-1.541,-1.541,-1.541,-1.541,0.0,0.0,0.0,-1.3161,-1.3754,-1.2959,-1.2017,-1.2685,-1.322,-1.3073,-1.1321,-1.0697,-1.0005,-0.7837,-0.7228,-0.7139,-0.7139,-0.7139,-0.7139,-0.7139,-0.7139,-0.7139,-0.7139,-0.7139,-0.7146,-0.717,-0.7285,-0.7387,-0.7428,-0.7655,-0.7821,-0.7838,-0.7963,-0.8041,-0.8045,-0.7962,-0.6648,-0.3613,-0.1307,-0.0,-0.0,-0.0,-0.0,-0.0,-0.0,-0.0,-0.0,-0.0,-0.0,-0.0,-0.0,-0.0,-0.0,-0.0,-0.0,-0.0,-0.0,-0.0,-0.0,-0.0,-0.0,-0.0,-0.0,-0.0,-0.0,0.0,0.0,0.0,0.0,0.0,0.0,0.0,0.0,0.0,0.0,0.0,0.0,0.0,0.0,0.0,-1.8715,-1.8394,-1.8178,-1.8112,-1.7468,-1.7146,-1.7146,-1.68,-1.68,-1.709,0.0,0.0,0.0,0.0,0.0,0.0,-1.5526,-1.541,0.0,0.0,0.0,0.0,-1.541,-1.541,-1.541,-1.541,-1.5557,-1.5752,-1.5508,-1.5566,-1.5742,-1.5498,-1.541,-1.541,-1.541,-1.541,-1.541,-1.541,0.0,0.0,0.0,-1.2929,-1.2037,-1.2799,-1.2821,-1.2355,-1.0898,-1.0096,-0.9231,-0.7489,-0.7139,-0.7139,-0.7139,-0.7139,-0.7139,-0.7139,-0.7139,-0.7139,-0.7139,-0.7139,-0.7139,-0.7139,-0.72,-0.7275,-0.736,-0.7485,-0.7631,-0.7794,-0.7872,-0.7946,-0.8031,-0.7959,-0.7463,-0.6339,-0.2311,-0.0,-0.0,-0.0,-0.0,-0.0,-0.0,-0.0,-0.0,-0.0,-0.0,-0.0,-0.0,-0.0,-0.0,-0.0,-0.0,-0.0,-0.0,-0.0,-0.0,-0.0,-0.0,-0.0,-0.0,-0.0,-0.0,0.0,0.0,0.0,0.0,0.0,0.0,0.0,0.0,0.0,0.0,0.0,0.0,0.0,0.0,0.0,0.0,-1.8555,-1.8167,-1.7633,-1.7578,-1.7578,-1.7578,-1.7413,-1.7302,-1.7302,0.0,0.0,0.0,0.0,0.0,-1.569,-1.569,-1.5584,0.0,-1.541,-1.541,0.0,0.0,0.0,-1.542,-1.5527,-1.5771,-1.6096,-1.583,-1.5947,-1.6172,-1.5732,-1.5576,-1.5557,-1.5449,-1.541,-1.541,-1.541,-1.4475,0.0,0.0,0.0,-1.2138,-1.2893,-1.259,-1.1829,-1.0799,-0.9842,-0.8827,-0.7394,-0.7139,-0.7139,-0.7139,-0.7139,-0.7139,-0.7139,-0.7139,-0.7139,-0.7139,-0.7139,-0.7139,-0.7139,-0.7139,-0.7183,-0.7299,-0.735,-0.7458,-0.7678,-0.7736,-0.7804,-0.7919,-0.7977,-0.8007,-0.8018,-0.421,-0.1407,-0.0,-0.0,-0.0,-0.0,-0.0,-0.0,-0.0,-0.0,-0.0,-0.0,-0.0,-0.0,-0.0,-0.0,-0.0,-0.0,-0.0,-0.0,-0.0,-0.0,-0.0,-0.0,-0.0,-0.0,-0.0,0.0,0.0,0.0,0.0,0.0,0.0,0.0,0.0,0.0,0.0,0.0,0.0,0.0,-1.8768,-1.8715,-1.8715,-1.8058,-1.7633,-1.7578,-1.7578,-1.7578,-1.7578,-1.6922,0.0,-1.6549,0.0,0.0,0.0,0.0,0.0,-1.6436,-1.6436,-1.6093,-1.541,-1.541,-1.541,-1.541,0.0,0.0,0.0,-1.5859,-1.6105,-1.6164,-1.6514,-1.668,-1.6641,-1.6191,-1.6086,-1.6027,-1.5557,-1.541,-1.541,-1.541,-1.4475,-1.3484,0.0,0.0,0.0,-1.2679,-1.2779,-1.2369,-1.0605,-1.0218,-0.9592,-0.7541,-0.7139,-0.7139,-0.7139,-0.7139,-0.7139,-0.7139,-0.7139,-0.7139,-0.7139,-0.7139,-0.7139,-0.7139,-0.7139,-0.7143,-0.7149,-0.7282,-0.7377,-0.7394,-0.7526,-0.7614,-0.7621,-0.7746,-0.7834,-0.7959,-0.7694,-0.5229,-0.0201,-0.0,-0.0,-0.0,-0.0,-0.0,-0.0,-0.0,-0.0,-0.0,-0.0,-0.0,-0.0,-0.0,-0.0,-0.0,-0.0,-0.0,-0.0,-0.0,-0.0,-0.0,-0.0,-0.0,-0.0,0.0,0.0,0.0,0.0,0.0,0.0,0.0,0.0,0.0,0.0,0.0,0.0,0.0,-1.9423,-1.9423,-1.9423,-1.915,-1.898,-1.898,-1.898,-1.898,-1.898,-1.8286,-1.7895,-1.7895,0.0,0.0,0.0,0.0,-1.6026,-1.5806,-1.5806,-1.5642,-1.541,-1.541,-1.541,-1.541,-1.541,0.0,-1.5449,-1.5889,-1.623,-1.6484,-1.6357,-1.665,-1.7061,-1.6328,-1.6125,-1.6096,-1.5889,-1.5644,-1.5342,-1.5065,-1.4353,-1.3613,-1.302,-1.2632,-1.2365,-1.2741,-1.2197,-1.1415,-1.0314,-0.9511,-0.8713,-0.7249,-0.7075,-0.7139,-0.7139,-0.7139,-0.7139,-0.7139,-0.7139,-0.7139,-0.7139,-0.7139,-0.7139,-0.7139,-0.7139,-0.7139,-0.7139,-0.719,-0.7261,-0.7363,-0.7421,-0.7495,-0.7594,-0.7648,-0.7678,-0.7784,-0.775,-0.6897,-0.5041,-0.3196,-0.2326,-0.2329,-0.2329,-0.2136,-0.1845,-0.0583,-0.0,-0.0,-0.0,-0.0,-0.0,-0.0,-0.0,-0.0,-0.0,-0.0,-0.0,-0.0,-0.0,-0.0,-0.0,-0.0,-0.0,0.0,0.0,0.0,0.0,0.0,0.0,0.0,0.0,0.0,0.0,0.0,0.0,0.0,0.0,-1.9798,-1.9798,-1.9798,-1.9798,-1.9798,-1.9579,-1.9307,-1.9097,-1.8328,-1.7841,-1.7622,0.0,0.0,0.0,0.0,0.0,0.0,-1.541,-1.541,-1.541,-1.541,-1.541,0.0,-1.541,-1.541,-1.5459,-1.6055,-1.6465,-1.6665,-1.6719,-1.708,-1.7453,-1.652,-1.6182,-1.6173,-1.579,-1.5478,-1.5151,-1.4705,-1.4139,-1.3446,-1.2587,-1.2305,-1.2345,-1.2545,-1.2056,-1.1266,-1.0491,-0.9786,-0.8949,-0.7661,-0.7512,-0.7428,-0.7129,-0.7139,-0.7139,-0.7139,-0.7139,-0.7139,-0.7139,-0.7139,-0.7139,-0.7139,-0.7139,-0.7139,-0.7139,-0.7139,-0.718,-0.7285,-0.7292,-0.7336,-0.7438,-0.7495,-0.7522,-0.7522,-0.758,-0.7614,-0.7617,-0.58,-0.4752,-0.4752,-0.4759,-0.4571,-0.4288,-0.2667,-0.1247,-0.0,-0.0,-0.0,-0.0,-0.0,-0.0,-0.0,-0.0,-0.0,-0.0,-0.0,-0.0,-0.0,-0.0,-0.0,-0.0,0.0,0.0,0.0,0.0,0.0,0.0,0.0,0.0,0.0,0.0,0.0,0.0,0.0,0.0,0.0,-1.9747,-1.9747,-1.9747,-1.9747,-1.9097,-1.834,-1.7633,-1.6866,-1.6151,-1.5468,0.0,0.0,0.0,0.0,0.0,0.0,0.0,-1.541,-1.541,-1.541,-1.541,-1.541,-1.541,-1.541,-1.5488,-1.6387,-1.6748,-1.6846,-1.7705,-1.8037,-1.7901,-1.6811,-1.6437,-1.6289,-1.5242,-1.4807,-1.4719,-1.4388,-1.3747,-1.2989,-1.2437,-1.2305,-1.2305,0.0,0.0,0.0,-1.1177,-1.1016,-1.0521,-0.8844,-0.8437,-0.8154,-0.7278,-0.7136,-0.7139,-0.7139,-0.7139,-0.7139,-0.7139,-0.7139,-0.7139,-0.7139,-0.7139,-0.7139,-0.7139,-0.7139,-0.7139,-0.7139,-0.7139,-0.7139,-0.7139,-0.7278,-0.7363,-0.7363,-0.7506,-0.7496,-0.7409,-0.7237,-0.7054,-0.7054,-0.7076,-0.7086,-0.7086,-0.6124,-0.3721,-0.0095,-0.0,-0.0,-0.0,-0.0,-0.0,-0.0,-0.0,-0.0,-0.0,-0.0,-0.0,-0.0,-0.0,-0.0,-0.0,0.0,0.0,0.0,0.0,0.0,0.0,0.0,0.0,0.0,0.0,0.0,0.0,0.0,0.0,-1.8232,-1.8232,-1.8232,-1.8232,-1.8232,-1.8015,-1.7786,-1.7633,-1.6866,-1.6368,-1.6208,0.0,0.0,0.0,0.0,0.0,0.0,0.0,0.0,0.0,-1.541,-1.541,-1.541,-1.541,-1.541,-1.5518,-1.6719,-1.7207,-1.7295,-1.8135,-1.8662,-1.8896,-1.8203,-1.7827,-1.7411,-1.6634,-1.5809,-1.4941,-1.3823,-1.3494,-1.3338,-1.2565,-1.2305,-1.2305,-1.2305,0.0,0.0,0.0,0.0,0.0,-0.9453,-0.8743,-0.8373,-0.808,-0.7498,-0.7139,-0.7139,-0.7139,-0.7139,-0.7139,-0.7139,-0.7139,-0.7139,-0.7139,-0.7139,-0.7139,-0.7139,-0.7139,-0.7139,-0.7139,-0.7139,-0.7139,-0.718,-0.7204,-0.7204,-0.7244,-0.7178,-0.7182,-0.7095,-0.7098,-0.7098,-0.7105,-0.6924,-0.6563,-0.528,-0.3758,-0.2047,-0.0652,-0.0,-0.0,-0.0,-0.0,-0.0,-0.0,-0.0,-0.0,-0.0,-0.0,-0.0,-0.0,-0.0,-0.0,0.0,0.0,0.0,0.0,0.0,0.0,0.0,0.0,0.0,0.0,0.0,0.0,0.0,0.0,0.0,-1.8015,-1.7797,-1.7578,-1.7578,-1.7302,-1.7135,-1.7135,-1.6425,-1.6036,-1.6036,0.0,0.0,0.0,0.0,0.0,0.0,0.0,0.0,0.0,0.0,0.0,0.0,-1.541,-1.5518,-1.5781,-1.6924,-1.749,-1.7734,-1.8584,-1.9072,-1.9204,-1.867,-1.8044,-1.7451,-1.7177,-1.6207,-1.4944,-1.4023,-1.3455,-1.3098,-1.2952,-1.2592,-1.2305,-1.2305,-1.2305,-1.215,-1.1539,0.0,0.0,-0.9869,-0.9227,-0.8703,-0.8014,-0.7425,-0.7139,-0.7139,-0.7139,-0.7139,-0.7139,-0.7139,-0.7139,-0.7139,-0.7139,-0.7139,-0.7139,-0.7139,-0.7139,-0.7139,-0.7139,-0.7139,-0.7139,-0.7139,-0.7139,-0.7139,-0.7139,-0.7139,-0.7139,-0.7139,-0.7139,-0.7139,-0.7061,-0.6887,-0.6526,-0.563,-0.486,-0.4286,-0.2366,-0.139,-0.1148,-0.0386,-0.0,-0.0,-0.0,-0.0,-0.0,-0.0,-0.0,-0.0,-0.0,-0.0,-0.0,0.0,0.0,0.0,0.0,0.0,0.0,0.0,0.0,0.0,0.0,0.0,0.0,0.0,0.0,0.0,0.0,-1.7855,-1.7434,-1.7434,-1.6786,-1.6379,-1.6379,-1.5748,-1.541,-1.541,0.0,0.0,0.0,0.0,0.0,0.0,0.0,0.0,0.0,0.0,0.0,0.0,-1.541,-1.5723,-1.6279,-1.707,-1.7666,-1.8174,-1.9033,-1.9385,-1.9399,-1.8766,-1.7838,-1.6901,-1.7111,-1.6174,-1.4987,-1.4694,-1.3769,-1.2822,-1.3404,-1.2973,-1.2345,-1.2311,-1.2305,-1.2305,-1.2305,-1.2305,0.0,-1.0338,-0.9893,-0.937,-0.7865,-0.7425,-0.7348,-0.7348,-0.7348,-0.7348,-0.7264,-0.7278,-0.7207,-0.7136,-0.7139,-0.7139,-0.7139,-0.7139,-0.7139,-0.7139,-0.7139,-0.7139,-0.7139,-0.7139,-0.7139,-0.7139,-0.7139,-0.7139,-0.7139,-0.7139,-0.7139,-0.7139,-0.7071,-0.6989,-0.6716,-0.6545,-0.6462,-0.6382,-0.4652,-0.3704,-0.3232,-0.141,-0.048,-0.0392,-0.04,-0.0202,-0.0,-0.0,-0.0,-0.0,-0.0,-0.0,-0.0,-2.133,0.0,0.0,0.0,0.0,0.0,0.0,0.0,0.0,0.0,0.0,0.0,0.0,0.0,0.0,0.0,-1.6668,-1.6397,-1.6397,-1.5889,-1.5633,-1.5633,-1.5468,-1.541,-1.541,-1.541,0.0,0.0,0.0,0.0,0.0,0.0,0.0,0.0,0.0,0.0,0.0,-1.541,-1.6074,-1.7139,-1.7314,-1.7842,-1.8613,-1.9463,-2.001,-2.0322,-2.0169,-1.9186,-1.7846,-1.6748,-1.6387,-1.61,-1.4873,-1.4865,-1.5075,-1.3167,-1.2621,-1.2605,-1.2365,-1.2305,-1.2305,-1.2305,-1.2305,0.0,-1.1834,-1.126,-1.0651,-1.0349,-0.971,-0.9174,-0.9174,-0.9174,-0.8926,-0.8105,-0.8062,-0.7861,-0.721,-0.7139,-0.7139,-0.7139,-0.7139,-0.7139,-0.7139,-0.7139,-0.7139,-0.7139,-0.7139,-0.7139,-0.7139,-0.7139,-0.7139,-0.7139,-0.7139,-0.7139,-0.7139,-0.7058,-0.6972,-0.6799,-0.671,-0.6713,-0.6634,-0.6002,-0.5713,-0.5652,-0.4924,-0.3794,-0.2546,-0.2557,-0.1592,-0.0,-0.0,-0.0,-0.0,-0.0,-0.0,-0.0,-2.1895,0.0,0.0,0.0,0.0,0.0,0.0,0.0,0.0,0.0,0.0,0.0,0.0,0.0,0.0,0.0,0.0,0.0,0.0,-1.5986,-1.5732,-1.5732,-1.5527,-1.541,-1.541,-1.541,-1.541,0.0,0.0,0.0,0.0,0.0,0.0,0.0,0.0,0.0,0.0,-1.5732,-1.625,-1.71,-1.7519,-1.833,-1.9346,-1.999,-2.0381,-2.0566,-2.0001,-1.891,-1.7514,-1.5736,-1.5724,-1.6236,-1.508,-1.4988,-1.4932,-1.3643,-1.3078,-1.2755,-1.2385,-1.2305,-1.2305,-1.2305,-1.2305,0.0,0.0,-1.1318,-1.0901,-1.0469,-1.0028,-0.9705,-0.9705,-0.9705,-0.9543,-0.9059,-0.8651,-0.8191,-0.768,-0.7306,-0.7139,-0.7139,-0.7139,-0.7139,-0.7139,-0.7139,-0.7139,-0.7139,-0.7139,-0.7139,-0.7139,-0.7139,-0.7139,-0.7139,-0.7139,-0.7139,-0.7139,-0.7139,-0.6966,-0.6795,-0.6881,-0.6884,-0.6713,-0.671,-0.6573,-0.6376,-0.6076,-0.5452,-0.4638,-0.4692,-0.4171,-0.293,-0.0807,-0.0,-0.0,-0.0,-0.0,-0.0,-2.2472,0.0,0.0,0.0,0.0,0.0,0.0,0.0,0.0,0.0,0.0,0.0,0.0,0.0,0.0,0.0,0.0,0.0,-1.6982,-1.6562,-1.638,-1.638,-1.582,-1.5576,-1.5664,-1.5498,-1.541,0.0,0.0,0.0,0.0,0.0,0.0,0.0,0.0,0.0,0.0,-1.6123,-1.6494,-1.7051,-1.7822,-1.875,-1.9717,-2.0156,-2.0371,-2.0294,-1.9088,-1.8069,-1.7001,-1.5238,-1.5335,-1.6207,-1.5678,-1.5134,-1.4615,-1.4201,-1.3492,-1.2759,-1.2398,-1.2305,-1.2305,-1.2305,-1.2305,-1.2136,0.0,0.0,0.0,-1.0343,-1.0221,-1.0221,-1.0221,-1.0221,-1.0141,-0.9977,-0.936,-0.8778,-0.8457,-0.7974,-0.7483,-0.7054,-0.7105,-0.7129,-0.7102,-0.7099,-0.7109,-0.7139,-0.7115,-0.7112,-0.7139,-0.7139,-0.7139,-0.7139,-0.7139,-0.7139,-0.7139,-0.7139,-0.7054,-0.6881,-0.7054,-0.7054,-0.6881,-0.6966,-0.6874,-0.6438,-0.628,-0.6143,-0.6108,-0.6321,-0.6358,-0.5979,-0.1715,-0.0,-0.0,-0.0,-0.0,-0.0,-2.2977,-2.3027,0.0,0.0,0.0,0.0,0.0,0.0,0.0,0.0,0.0,0.0,0.0,-1.9334,-1.9066,-1.9128,-1.8643,-1.8262,-1.7891,-1.7471,-1.7236,-1.7236,-1.6436,-1.6172,-1.6572,-1.5811,-1.541,-1.541,0.0,0.0,0.0,0.0,0.0,0.0,-1.584,-1.5801,-1.5537,-1.6318,-1.7119,-1.79,-1.8379,-1.8652,-1.8828,-1.9268,-1.9668,-1.9726,-1.8099,-1.7423,-1.7203,-1.6636,-1.6545,-1.6685,-1.6915,-1.674,-1.6081,-1.4273,-1.3478,-1.3033,-1.2458,-1.2305,-1.2305,-1.2305,-1.2305,-1.2238,-1.219,0.0,-1.2136,-1.2013,0.0,-1.2019,-1.2019,0.0,0.0,-1.0796,-1.0704,-1.0388,-0.9498,-0.9385,-0.8717,-0.7,-0.6983,-0.7092,-0.6966,-0.6953,-0.7004,-0.7132,-0.7024,-0.7007,-0.7132,-0.7139,-0.7139,-0.7139,-0.7139,-0.7139,-0.7139,-0.7139,-0.7051,-0.7051,-0.7051,-0.7051,-0.7051,-0.6881,-0.6792,-0.6707,-0.645,-0.6335,-0.6389,-0.6406,-0.6368,-0.5982,-0.1717,-0.0,-0.0,-0.0,-0.0,-0.0,-2.3078,-2.3078,0.0,0.0,-2.3078,-2.3078,0.0,0.0,0.0,0.0,0.0,0.0,-2.0303,-2.0154,-1.9912,-1.9706,-1.9483,-1.9093,-1.8389,-1.7978,0.0,-1.7393,-1.6787,-1.6416,-1.6348,-1.5977,-1.5664,-1.541,-1.541,0.0,0.0,0.0,0.0,0.0,-1.6037,-1.625,-1.6592,-1.7217,-1.7686,-1.8066,-1.874,-1.8857,-1.874,-1.9668,-1.9745,-1.9279,-1.8567,-1.7827,-1.7236,-1.7072,-1.7136,-1.7192,-1.653,-1.6187,-1.5726,-1.3932,-1.3187,-1.2846,-1.2418,-1.2425,-1.2518,-1.2345,-1.2432,-1.2512,-1.2345,-1.2305,-1.2305,-1.2305,0.0,0.0,0.0,0.0,0.0,0.0,-1.1317,-1.081,-1.0357,-0.9958,-0.938,-0.8574,-0.805,-0.7484,-0.6926,-0.7004,-0.7078,-0.7136,-0.7085,-0.7078,-0.7136,-0.7139,-0.7139,-0.7139,-0.7139,-0.7139,-0.7139,-0.7139,-0.7139,-0.7139,-0.7139,-0.7139,-0.7139,-0.7054,-0.6881,-0.6795,-0.652,-0.6454,-0.6459,-0.5682,-0.5321,-0.4965,-0.2707,-0.1109,-0.0,-0.0,-0.0,-0.0,-2.3078,0.0,0.0,0.0,-2.3078,-2.3017,-2.2823,-2.2261,-2.1815,-2.1553,-2.1088,-2.0781,-2.0781,-2.0764,-2.066,-2.0327,-2.0193,-1.9798,-1.8994,-1.8594,-1.8271,-1.8086,-1.7324,-1.6865,-1.6768,-1.637,-1.5908,-1.5586,0.0,0.0,0.0,0.0,0.0,0.0,-1.6066,-1.6484,-1.7236,-1.7783,-1.8144,-1.8418,-1.916,-1.9346,-1.9258,-2.0078,-1.9984,-1.9362,-1.9125,-1.847,-1.773,-1.7629,-1.7709,-1.7707,-1.6975,-1.655,-1.603,-1.4455,-1.379,-1.3355,-1.26,-1.2585,-1.2755,-1.2378,-1.2465,-1.2565,-1.2351,-1.2305,-1.2305,-1.2305,-1.2305,0.0,0.0,0.0,-1.2305,-1.2305,0.0,-1.131,-1.1192,-1.0727,-1.0243,-0.9692,-0.894,-0.8246,-0.7352,-0.7382,-0.7292,-0.7078,-0.7082,-0.7099,-0.7139,-0.7139,-0.7139,-0.7139,-0.7139,-0.7139,-0.7139,-0.7139,-0.7139,-0.7139,-0.7139,-0.7139,-0.7139,-0.7139,-0.7054,-0.6881,-0.6697,-0.6601,-0.6557,-0.5657,-0.5193,-0.4997,-0.4296,-0.3124,-0.1716,-0.111,-0.0908,-0.0908,-2.3078,-2.3078,0.0,-2.3078,-2.3078,-2.2823,-2.2063,-2.1939,-2.1628,-2.0782,-2.0928,-2.1152,-2.1152,-2.1161,-2.1136,-2.1157,-2.0767,-2.0399,-1.9902,-1.9482,-1.9424,-1.9814,-1.8242,-1.7734,-1.8465,-1.6914,-1.6115,-1.6105,0.0,0.0,0.0,0.0,0.0,0.0,-1.5879,-1.6318,-1.6807,-1.7656,-1.8486,-1.9287,-1.9717,-2.0137,-2.0459,-2.0078,-2.0195,-2.0401,-1.9362,-1.8957,-1.8903,-1.8428,-1.8285,-1.8357,-1.8991,-1.8742,-1.7938,-1.648,-1.5701,-1.4887,-1.3194,-1.2815,-1.2755,-1.2378,-1.2311,-1.2311,-1.2305,-1.2305,-1.2305,-1.2305,-1.2305,-1.2305,-1.2305,-1.2305,-1.2305,-1.2305,-1.2311,0.0,0.0,-1.2244,-1.1502,-0.9544,-0.9421,-0.9077,-0.8237,-0.818,-0.7848,-0.7011,-0.6936,-0.6997,-0.7132,-0.7139,-0.7139,-0.7139,-0.7139,-0.7139,-0.7139,-0.7139,-0.7139,-0.7139,-0.7139,-0.7139,-0.7139,-0.7139,-0.7139,-0.7051,-0.7051,-0.6966,-0.6664,-0.6801,-0.6945,-0.7095,-0.6528,-0.6274,-0.5967,-0.3831,-0.3123,-0.3123,-2.3078,0.0,0.0,-2.3078,-2.3078,-2.3017,-2.2763,-2.2689,-2.2505,-2.1946,-2.2543,-2.2716,-2.1767,-2.2229,-2.2206,-2.1314,-2.1059,-2.0642,-1.9922,-1.9521,-1.9346,-1.9492,-1.8408,-1.793,-1.8213,-1.7373,-1.665,-1.6125,-1.5918,0.0,0.0,0.0,0.0,0.0,0.0,-1.6631,-1.7617,-1.8184,-1.8916,-1.9717,-1.9853,-2.0,-2.0146,-2.0293,-2.0439,-2.0557,-2.0167,-2.0079,-2.006,-1.9917,-1.9602,-1.9317,-1.9152,-1.8118,-1.675,-1.5866,-1.4821,-1.3777,-1.3185,-1.3193,-1.322,-1.2719,-1.2752,-1.2799,-1.2392,-1.2305,-1.2305,-1.2305,-1.2305,-1.2305,-1.2305,-1.2305,-1.2305,-1.2305,-1.2305,-1.2305,0.0,-1.2305,-1.2077,-1.1397,-1.0789,-1.0115,-0.9166,-0.8613,-0.8211,-0.7936,-0.7357,-0.7088,-0.7139,-0.7139,-0.7139,-0.7139,-0.7139,-0.7139,-0.7139,-0.7139,-0.7139,-0.7139,-0.7139,-0.7139,-0.7139,-0.7139,-0.7139,-0.7051,-0.6969,-0.6907,-0.6972,-0.7028,-0.7064,-0.6945,-0.6967,-0.6751,-0.635,-0.5553,-0.5555,-0.5856,-2.3078,-2.3078,-2.3078,-2.3078,-2.3078,-2.3078,-2.3078,-2.2884,-2.2764,-2.2974,-2.3325,-2.3264,-2.2479,-2.2822,-2.2567,-2.1324,-2.1069,-2.0652,-1.9922,-1.9668,-1.9512,-1.9512,-1.8838,-1.8535,-1.8682,-1.7978,-1.7324,-1.6758,-1.6289,-1.5918,0.0,0.0,0.0,0.0,-1.5869,-1.6787,-1.8037,-1.8457,-1.9219,-2.0146,-2.0146,-2.0146,-2.0176,-2.0459,-2.0469,-2.0352,-2.0508,-2.0566,-2.0566,-2.0566,-2.0381,-2.0033,-1.9279,-1.8197,-1.6977,-1.5797,-1.4764,-1.3964,-1.3467,-1.35,-1.3527,-1.3033,-1.306,-1.308,-1.2572,-1.2458,-1.2458,-1.2458,-1.2378,-1.2365,-1.2585,-1.2445,-1.2338,-1.2445,-1.2371,-1.2305,0.0,-1.2305,-1.2305,-1.2305,-1.1778,-1.1077,-1.0156,-0.9313,-0.8713,-0.8514,-0.7609,-0.7088,-0.7136,-0.7139,-0.7139,-0.7139,-0.7139,-0.7139,-0.7139,-0.7139,-0.7139,-0.7139,-0.7139,-0.7139,-0.7139,-0.7139,-0.7139,-0.7051,-0.6969,-0.6966,-0.7071,-0.7135,-0.7076,-0.6954,-0.7082,-0.6898,-0.6639,-0.6456,-0.6665,-0.7068,-2.3078,-2.3078,-2.3078,-2.3078,-2.3078,-2.3078,-2.3078,-2.2469,-2.2428,-2.3704,-2.3259,-2.2858,-2.3234,-2.2889,-2.2248,-2.1303,-2.0837,-2.0391,-1.9971,-1.9922,-1.9922,-1.9941,-1.9521,-1.9482,-1.9902,-1.8682,-1.8037,-1.8008,-1.6748,0.0,0.0,0.0,0.0,0.0,-1.5908,-1.6816,-1.8066,-1.8467,-1.9385,-2.0566,-2.0566,-2.0557,-2.0537,-2.0557,-2.0293,-1.9971,-2.041,-2.0566,-2.0566,-2.0566,-2.0566,-2.0401,-1.9362,-1.9036,-1.847,-1.6429,-1.5696,-1.5306,-1.3974,-1.3585,-1.3594,-1.3307,-1.3233,-1.3153,-1.2916,-1.2842,-1.2842,-1.2842,-1.2545,-1.2518,-1.3086,-1.2712,-1.2412,-1.2755,-1.2485,-1.2305,-1.2305,-1.2305,-1.2305,-1.2305,-1.2318,-1.2052,-1.1307,-1.0245,-0.9407,-0.8901,-0.768,-0.7076,-0.7305,-0.7132,-0.7132,-0.7228,-0.7139,-0.7139,-0.7139,-0.7139,-0.7139,-0.7139,-0.7139,-0.7139,-0.7139,-0.7139,-0.7139,-0.7139,-0.7139,-0.7139,-0.7064,-0.7041,-0.7092,-0.7227,-0.7087,-0.7125,-0.7138,-0.6637,-0.6639,-0.6842,-2.3078,-2.3078,-2.3078,-2.3078,-2.3078,-2.3078,-2.3078,-2.3306,-2.3186,-2.2553,-2.3229,-2.3456,-2.2426,-2.2221,-2.2083,-2.1859,-2.1084,-2.0518,-2.041,-2.0088,-2.0059,-2.0381,-1.9687,-1.9482,-1.9902,-1.8965,-1.832,-1.8008,-1.7363,-1.6875,-1.6562,0.0,0.0,0.0,-1.6514,-1.7275,-1.8486,-1.8594,-1.9385,-2.0566,-2.0566,-2.0371,-2.0117,-2.0439,-2.0293,-1.9971,-2.041,-2.0566,-2.0566,-2.0566,-2.0566,-2.0557,-2.0245,-1.9027,-1.7585,-1.709,-1.5794,-1.4391,-1.4072,-1.3975,-1.3901,-1.3607,-1.3534,-1.3454,-1.316,-1.3093,-1.3093,-1.3093,-1.3033,-1.2953,-1.2879,-1.2815,-1.2585,-1.2438,-1.2351,-1.2305,-1.2305,-1.2305,-1.2305,-1.2305,-1.2498,-1.2496,-1.2052,-1.1397,-1.0958,-1.0757,-0.9192,-0.8687,-0.9648,-0.7985,-0.7375,-0.8448,-0.7577,-0.7139,-0.7139,-0.7139,-0.7139,-0.7139,-0.7139,-0.7139,-0.7139,-0.7139,-0.7139,-0.7139,-0.7139,-0.7139,-0.7153,-0.7218,-0.7273,-0.7227,-0.7276,-0.722,-0.7238,-0.7241,-0.7241,-0.7138,-2.3078,-2.3078,-2.3078,-2.3078,-2.3339,-2.3514,-2.3514,-2.3257,-2.3198,-2.3491,-2.3759,-2.3734,-2.3363,-2.3294,-2.3147,-2.2702,-2.1745,-2.1151,-2.0959,-2.0444,-2.0225,-2.0283,-2.0,-1.9961,-2.0195,-1.9541,-1.8984,-1.8564,-1.7959,-1.7441,-1.7012,0.0,0.0,0.0,-1.6934,-1.7519,-1.8398,-1.8955,-1.9609,-2.0303,-2.0488,-2.042,0.0,-2.0469,-2.041,-2.0234,-2.0478,-2.0566,-2.0566,-2.0566,-2.0566,-2.0489,-2.0079,-1.9036,-1.7827,-1.6846,-1.5711,-1.4734,-1.425,-1.4088,-1.4048,-1.3881,-1.3834,-1.3761,-1.3467,-1.34,-1.34,-1.34,-1.33,-1.324,-1.332,-1.3091,-1.2728,-1.2351,-1.2305,-1.2305,-1.2305,-1.2305,-1.2305,-1.2305,-1.2452,-1.2485,-1.2318,-1.1893,-1.157,-1.1484,-1.006,-0.9526,-1.0144,-0.9043,-0.8658,-0.9447,-0.8412,-0.8097,-0.8619,-0.8097,-0.7929,-0.7929,-0.7929,-0.7577,-0.7139,-0.7139,-0.7139,-0.7139,-0.7139,-0.7139,-0.7146,-0.7234,-0.7305,-0.7426,-0.754,-0.7569,-0.7441,-0.7643,-0.7643,-0.7441,-2.3078,-2.3078,-2.3103,-2.3178,-2.3728,-2.4155,-2.4293,-2.3254,-2.3123,-2.5132,-2.4426,-2.4062,-2.4909,-2.4862,-2.448,-2.3745,-2.2776,-2.2009,-2.1691,-2.1095,-2.0611,-2.0151,-2.0438,-2.0566,-2.0566,-2.0137,-1.9707,-1.9287,-1.8486,-1.7881,0.0,0.0,0.0,0.0,-1.7295,-1.7734,-1.8252,-1.9424,-1.9951,-2.0029,-2.041,-2.0566,-2.0566,-2.0566,-2.0566,-2.0566,-2.0566,-2.0566,-2.0566,-2.0566,-2.0566,-2.0401,-1.952,-1.9116,-1.863,-1.6675,-1.6026,-1.5703,-1.4573,-1.4334,-1.425,-1.4173,-1.4088,-1.4021,-1.3761,-1.3701,-1.3701,-1.3701,-1.35,-1.3467,-1.3941,-1.336,-1.2782,-1.2412,-1.2392,-1.2425,-1.2425,-1.2425,-1.2405,-1.2365,-1.2398,0.0,-1.2311,-1.2023,-1.1768,-1.1677,-1.0701,-1.0085,-1.0238,-1.0151,-1.0267,-1.049,-0.9574,-0.9579,-1.0611,-0.9579,-0.9065,-0.889,-0.889,-0.8277,-0.7139,-0.7139,-0.7139,-0.7139,-0.7139,-0.7139,-0.7139,-0.7139,-0.7322,-0.7631,-0.7926,-0.7842,-0.7646,-0.7942,-0.7842,-0.7646,-2.3078,-2.3078,-2.3288,-2.3766,-2.4305,-2.4983,-2.5887,-2.5403,-2.4863,-2.447,-2.4598,-2.4802,-2.4992,-2.4264,-2.4036,-2.4707,-2.3818,-2.3187,-2.3172,-2.2285,-2.1704,-2.1621,-2.0971,-2.0566,-2.0566,-2.0137,-1.9707,-1.9287,-1.8779,-1.8311,0.0,0.0,0.0,0.0,-1.7871,-1.833,-1.9102,-1.9668,-2.0117,-2.0459,-2.0537,-2.0566,-2.0566,-2.0566,-2.0566,-2.0566,-2.0566,-2.0566,-2.0566,-2.0566,-2.0566,-2.0566,-2.0401,-1.9678,-1.8957,-1.855,-1.7738,-1.6764,-1.5703,-1.5462,-1.522,-1.4328,-1.4088,-1.4075,-1.4021,-1.4008,-1.4008,-1.4008,-1.3968,-1.3888,-1.3748,-1.3394,-1.3026,-1.2795,-1.2886,-1.3053,-1.3053,-1.3053,-1.2959,-1.2775,-1.2893,-1.2852,-1.2351,-1.2467,-1.2588,-1.2588,-1.157,-1.1526,-1.287,-1.1067,-1.0579,-1.1906,-1.0849,-1.0438,-1.0611,-1.0438,-0.9836,-0.889,-0.889,-0.8277,-0.7139,-0.7139,-0.7139,-0.7139,-0.7139,-0.7139,-0.7139,-0.7139,-0.7322,-0.7631,-0.7926,-0.7942,-0.7942,-0.7939,-0.7942,-0.7942,-2.4017,-2.4017,-2.418,-2.4732,-2.5297,-2.595,-2.6766,-2.6892,-2.6751,-2.6257,-2.6233,-2.6331,-2.6613,-2.6178,-2.5985,-2.6174,-2.524,-2.4372,-2.3537,-2.2553,-2.1811,-2.1298,-2.0867,-2.0566,-2.0566,-2.0361,-1.9932,-1.9287,-1.9072,-1.8643,0.0,-1.8008,-1.8008,-1.8018,-1.8242,-1.8564,-1.8994,-1.9639,-2.0029,-2.0244,-2.0478,-2.0566,-2.0566,-2.0566,-2.0566,-2.0566,-2.0566,-2.0566,-2.0566,-2.0566,-2.0566,-2.0566,-2.0566,-2.0245,-1.9678,-1.9195,-1.863,-1.7819,-1.6191,-1.5696,-1.5455,-1.4328,-1.4088,-1.4088,-1.4088,-1.4088,-1.4088,-1.4088,-1.4088,-1.3995,-1.3701,-1.3407,-1.316,-1.3013,-1.2979,-1.3026,-1.3186,-1.3213,-1.3153,-1.3006,-1.2979,-1.2852,-1.2559,-1.2525,-1.2579,-1.2808,-1.2356,-1.2388,-1.3313,-1.2296,-1.199,-1.2977,-1.2008,-1.1815,-1.2431,-1.1815,-1.1209,-1.0697,-1.0697,-1.0091,-0.8877,-0.8794,-0.8794,-0.8794,-0.8619,-0.8532,-0.854,-0.8637,-0.8564,-0.8363,-0.8508,-0.8361,-0.8038,-0.8038,-0.8038,-0.8038,-2.4971,-2.4983,-2.5197,-2.5837,-2.6427,-2.6992,-2.7544,-2.8109,-2.8373,-2.8134,-2.772,-2.762,-2.8059,-2.8109,-2.7934,-2.7494,-2.6649,-2.5502,-2.4061,-2.2979,-2.1886,-2.0934,-2.0712,-2.0566,-2.0566,-2.0566,-2.0185,-1.9424,-1.9336,-1.8896,-1.8144,-1.8047,-1.8057,-1.8154,-1.8486,-1.873,-1.8945,-1.9629,-1.9971,-2.0078,-2.043,-2.0566,-2.0566,-2.0566,-2.0566,-2.0566,-2.0566,-2.0566,-2.0566,-2.0566,-2.0566,-2.0566,-2.0566,-2.0566,-2.0401,-1.9599,-1.9195,-1.863,-1.6838,-1.6026,-1.5538,-1.465,-1.425,-1.4088,-1.4088,-1.4088,-1.4088,-1.4088,-1.4088,-1.3995,-1.3701,-1.3507,-1.3373,-1.3313,-1.3146,-1.312,-1.336,-1.3394,-1.3373,-1.3313,-1.3086,-1.2913,-1.2929,-1.2632,-1.2592,-1.2903,-1.2856,-1.2879,-1.3193,-1.3213,-1.3347,-1.3552,-1.2918,-1.3031,-1.3995,-1.3087,-1.2589,-1.2328,-1.2328,-1.1724,-1.0611,-1.0438,-1.0356,-1.0356,-1.0178,-1.0009,-0.9937,-0.9887,-0.9639,-0.9368,-0.9271,-0.8874,-0.8333,-0.8333,-0.8333,-0.8333,-2.5435,-2.5523,-2.5862,-2.6942,-2.7582,-2.8134,-2.8687,-2.9264,-2.9264,-2.8247,-2.8059,-2.8047,-2.8097,-2.8109,-2.8084,-2.8034,-2.7498,-2.6719,-2.567,-2.4203,-2.2925,-2.1876,-2.1078,-2.0566,-2.0566,-2.0566,-2.0332,-1.9853,-1.9473,-1.9043,-1.8574,-1.8184,-1.8213,-1.8584,-1.8553,-1.9062,-1.9795,-1.9883,-2.0146,-2.0508,-2.0547,-2.0566,-2.0566,-2.0566,-2.0566,-2.0566,-2.0566,-2.0566,-2.0566,-2.0566,-2.0566,-2.0566,-2.0566,-2.0566,-2.0566,-2.0479,-1.9766,-1.8957,-1.8709,-1.7245,-1.5696,-1.5621,-1.4817,-1.4088,-1.4088,-1.4088,-1.4088,-1.4088,-1.4088,-1.3995,-1.3701,-1.3841,-1.3921,-1.3647,-1.3808,-1.3975,-1.4001,-1.4008,-1.3901,-1.3634,-1.3581,-1.3454,-1.3193,-1.314,-1.314,-1.3166,-1.2906,-1.2879,-1.3193,-1.3213,-1.3347,-1.3552,-1.3503,-1.3517,-1.3687,-1.3864,-1.3379,-1.2328,-1.2328,-1.1724,-1.0611,-1.0611,-1.0611,-1.0611,-1.0524,-1.0438,-1.0197,-0.9259,-0.9544,-1.0385,-0.9643,-0.9445,-0.941,-0.941,-0.941,-0.941,-2.7055,-2.7105,-2.7356,-2.8134,-2.8448,-2.8787,-2.9365,-2.9641,-2.9628,-2.9176,-2.9114,-2.9114,-2.9114,-2.9114,-2.8976,-2.8637,-2.7766,-2.6656,-2.5038,-2.3687,-2.2484,-2.1242,-2.0789,-2.0566,-2.0566,-2.0566,-2.0352,-1.9912,-1.9492,-1.9062,-1.8633,-1.8467,-1.8613,-1.9043,-1.9287,-1.959,-1.9932,-2.0195,-2.041,-2.0566,-2.0566,-2.0566,-2.0566,-2.0566,-2.0566,-2.0566,-2.0566,-2.0566,-2.0566,-2.0566,-2.0566,-2.0566,-2.0566,-2.0566,-2.0566,-2.0566,-2.0323,-1.9844,-1.9195,-1.7819,-1.6519,-1.5861,-1.4894,-1.4088,-1.4088,-1.4088,-1.4088,-1.4088,-1.4088,-1.4048,-1.3928,-1.3861,-1.3841,-1.3901,-1.3854,-1.3881,-1.4062,-1.4088,-1.4041,-1.3928,-1.3748,-1.3594,-1.348,-1.3313,-1.3213,-1.3213,-1.3093,-1.308,-1.32,-1.3373,-1.3527,-1.3641,-1.3814,-1.3908,-1.3908,-1.4028,-1.3822,-1.3379,-1.3379,-1.3124,-1.2693,-1.2516,-1.2345,-1.2089,-1.1918,-1.1832,-1.1671,-1.1326,-1.1232,-1.139,-1.1018,-1.0782,-1.0587,-1.0587,-1.0587,-1.0587,-2.831,-2.8348,-2.8524,-2.9089,-2.9176,-2.9315,-2.9729,-2.9792,-2.9792,-2.9792,-2.9792,-2.9792,-2.9792,-2.9792,-2.9628,-2.9214,-2.805,-2.6546,-2.4686,-2.3414,-2.2076,-2.0654,-2.0566,-2.0566,-2.0566,-2.0566,-2.041,-2.0107,-1.9678,-1.9316,-1.9004,-1.8887,-1.9062,-1.9482,-1.9785,-1.999,-2.0127,-2.0439,-2.0566,-2.0566,-2.0566,-2.0566,-2.0566,-2.0566,-2.0566,-2.0566,-2.0566,-2.0566,-2.0566,-2.0566,-2.0566,-2.0566,-2.0566,-2.0566,-2.0566,-2.0489,-2.0245,-1.9923,-1.9362,-1.823,-1.6935,-1.6273,-1.5304,-1.4412,-1.4166,-1.4088,-1.4088,-1.4088,-1.4088,-1.4088,-1.4088,-1.3915,-1.3841,-1.4055,-1.3908,-1.3848,-1.4055,-1.4088,-1.4055,-1.3968,-1.3774,-1.3559,-1.3559,-1.346,-1.334,-1.334,-1.342,-1.3427,-1.3347,-1.3534,-1.3559,-1.3559,-1.3848,-1.3955,-1.3955,-1.4041,-1.4088,-1.3997,-1.3997,-1.3913,-1.3913,-1.3737,-1.3483,-1.3137,-1.2966,-1.279,-1.279,-1.2448,-1.2312,-1.2312,-1.2032,-1.1843,-1.1658,-1.1658,-1.156,-1.156,-2.8812,-2.8925,-2.9101,-2.9679,-2.9779,-2.9779,-2.9792,-2.9792,-2.9792,-2.9792,-2.9792,-2.9792,-2.9792,-2.9792,-2.9792,-2.9779,-2.8281,-2.6698,-2.5271,-2.3608,-2.2076,-2.0654,-2.0566,-2.0566,-2.0566,-2.0566,-2.0566,-2.0557,-2.0117,-1.9902,-1.9893,-1.9473,-1.9502,-1.9902,-1.9912,-2.0156,-2.0557,-2.0566,-2.0566,-2.0566,-2.0566,-2.0566,-2.0566,-2.0566,-2.0566,-2.0566,-2.0566,-2.0566,-2.0566,-2.0566,-2.0566,-2.0566,-2.0566,-2.0566,-2.0566,-2.0342,-1.9529,-1.8798,-1.9696,-1.8318,-1.6772,-1.6919,-1.6198,-1.5151,-1.4334,-1.4088,-1.4088,-1.4088,-1.4088,-1.4088,-1.4088,-1.4082,-1.4082,-1.4088,-1.4082,-1.4082,-1.4088,-1.4088,-1.3981,-1.3687,-1.3566,-1.3559,-1.3559,-1.3641,-1.3641,-1.3641,-1.3908,-1.3948,-1.3572,-1.3641,-1.3559,-1.3559,-1.3566,-1.3647,-1.3647,-1.3941,-1.3997,-1.3737,-1.3737,-1.3568,-1.3398,-1.3398,-1.3398,-1.3392,-1.3137,-1.3137,-1.2966,-1.1843,-1.2141,-1.3423,-1.2484,-1.2312,-1.2727,-1.2727,-1.2538,-1.2344,-2.9478,-2.9515,-2.9578,-2.9767,-2.9792,-2.9792,-2.9792,-2.9792,-2.9792,-2.9792,-2.9792,-2.9792,-2.9792,-2.9792,-2.9792,-2.9792,-2.7965,-2.6291,-2.5305,-2.3307,-2.173,-2.0673,-2.0566,-2.0566,-2.0566,-2.0566,-2.0566,-2.0566,-2.0127,-1.9912,-1.9912,-1.9775,-1.9941,-2.0361,-2.0361,-2.0439,-2.0566,-2.0566,-2.0566,-2.0566,-2.0566,-2.0566,-2.0566,-2.0566,-2.0566,-2.0566,-2.0566,-2.0489,-2.042,-2.042,-2.042,-2.0333,-2.0177,-2.0255,-2.0342,-2.0108,-1.9784,-1.9539,-1.9854,-1.8877,-1.7819,-1.7891,-1.6601,-1.5311,-1.5068,-1.4496,-1.4088,-1.4088,-1.4088,-1.4088,-1.4088,-1.4088,-1.4088,-1.4088,-1.4088,-1.4088,-1.4088,-1.4088,-1.4048,-1.3955,-1.3948,-1.3948,-1.3948,-1.3948,-1.3861,-1.3661,-1.3734,-1.3654,-1.336,-1.3728,-1.3854,-1.3654,-1.3841,-1.3948,-1.3948,-1.4041,-1.4088,-1.3997,-1.3822,-1.3568,-1.3398,-1.3228,-1.3228,-1.3137,-1.2966,-1.279,-1.279,-1.2443,-1.2756,-1.3513,-1.3144,-1.3356,-1.3806,-1.3806,-1.3709,-1.3709,-2.9792,-2.9792,-2.9792,-2.9792,-2.9792,-2.9792,-2.9792,-2.9792,-2.9792,-2.9792,-2.9792,-2.9792,-2.9792,-2.9792,-2.9624,-2.9197,-2.7545,-2.6054,-2.4864,-2.3002,-2.1572,-2.085,-2.0654,-2.0566,-2.0566,-2.0566,-2.0566,-2.0566,-2.0293,-2.0156,-2.0156,-2.0156,-2.0303,-2.0566,-2.0566,-2.0566,-2.0566,-2.0566,-2.0566,-2.0566,-2.0566,-2.0566,-2.0566,-2.0566,-2.0566,-2.0566,-2.0566,-2.0498,-2.0264,-2.0264,-2.0264,-2.0108,-1.9863,-1.9872,-2.0029,-1.9872,-1.9794,-1.9784,-1.9706,-1.9213,-1.855,-1.79,-1.7017,-1.6214,-1.556,-1.4985,-1.4496,-1.4173,-1.4088,-1.4088,-1.4088,-1.4088,-1.4088,-1.4088,-1.4088,-1.4088,-1.4088,-1.4088,-1.4048,-1.3935,-1.3921,-1.3921,-1.3921,-1.3921,-1.3895,-1.3814,-1.3808,-1.3728,-1.3547,-1.3781,-1.3888,-1.3814,-1.3988,-1.4088,-1.4088,-1.4088,-1.4082,-1.3913,-1.3737,-1.3476,-1.3307,-1.3137,-1.3052,-1.2966,-1.279,-1.2705,-1.2705,-1.2705,-1.3025,-1.3513,-1.3513,-1.3833,-1.4298,-1.4298,-1.4202,-1.4112,-2.9792,-2.9792,-2.9792,-2.9792,-2.9792,-2.9792,-2.9792,-2.9792,-2.9792,-2.9792,-2.9792,-2.9792,-2.9792,-2.9792,-2.9365,-2.8176,-2.7128,-2.5859,-2.4312,-2.2754,-2.1689,-2.125,-2.0801,-2.0566,-2.0566,-2.0566,-2.0566,-2.0566,-2.0566,-2.0566,-2.0566,-2.0566,-2.0566,-2.0566,-2.0566,-2.0566,-2.0566,-2.0566,-2.0566,-2.0566,-2.0566,-2.0566,-2.0566,-2.0566,-2.0566,-2.0566,-2.0566,-2.0498,-2.0264,-2.0264,-2.0108,-1.9863,-1.9636,-1.9557,-1.9566,-1.9566,-1.9566,-1.9557,-1.9381,-1.9301,-1.8895,-1.7269,-1.7432,-1.7594,-1.5884,-1.5477,-1.5151,-1.4334,-1.4173,-1.4088,-1.4088,-1.4088,-1.4088,-1.4088,-1.4088,-1.4088,-1.4088,-1.4088,-1.3981,-1.3707,-1.3592,-1.3592,-1.3592,-1.3592,-1.3781,-1.4035,-1.4055,-1.4055,-1.4055,-1.387,-1.3857,-1.4075,-1.4166,-1.4166,-1.425,-1.4173,-1.3997,-1.3737,-1.3476,-1.3307,-1.3137,-1.3137,-1.2966,-1.2705,-1.2705,-1.2705,-1.2705,-1.2619,-1.3025,-1.3513,-1.3513,-1.3839,-1.4298,-1.4298,-1.4112,-1.3931,-2.9792,-2.9792,-2.9792,-2.9792,-2.9792,-2.9792,-2.9792,-2.9792,-2.9792,-2.9792,-2.9792,-2.9792,-2.9792,-2.9792,-2.9365,-2.8176,-2.7128,-2.5859,-2.4312,-2.2754,-2.1689,-2.125,-2.0801,-2.0566,-2.0566,-2.0566,-2.0566,-2.0566,-2.0566,-2.0566,-2.0566,-2.0566,-2.0566,-2.0566,-2.0566,-2.0566,-2.0566,-2.0566,-2.0566,-2.0566,-2.0566,-2.0566,-2.0566,-2.0566,-2.0566,-2.0566,-2.0566,-2.0498,-2.0264,-2.002,-1.9942,-1.9863,-1.9469,-1.9478,-1.9557,-1.939,-1.939,-1.9381,-1.9301,-1.9301,-1.9222,-1.8816,-1.8318,-1.7755,-1.6617,-1.5884,-1.5311,-1.5151,-1.458,-1.4088,-1.4088,-1.4088,-1.4088,-1.4088,-1.4088,-1.4088,-1.4088,-1.4088,-1.4062,-1.3988,-1.3981,-1.3981,-1.3981,-1.3981,-1.3915,-1.3761,-1.3748,-1.3748,-1.3748,-1.4476,-1.4657,-1.4159,-1.4741,-1.5144,-1.5296,-1.4496,-1.3997,-1.3737,-1.3652,-1.3483,-1.3137,-1.3137,-1.2966,-1.2705,-1.2534,-1.2534,-1.2705,-1.2289,-1.2686,-1.3513,-1.3338,-1.3647,-1.4298,-1.4118,-1.3931,-1.3835,-2.9792,-2.9792,-2.9792,-2.9792,-2.9792,-2.9792,-2.9792,-2.9792,-2.9792,-2.9792,-2.9792,-2.9792,-2.9792,-2.9792,-2.9365,-2.8176,-2.7128,-2.5948,-2.4524,-2.2865,-2.1777,-2.1543,-2.0908,-2.0566,-2.0566,-2.0489,-2.0489,-2.0489,-2.0566,-2.0566,-2.0566,-2.0566,-2.0566,-2.0566,-2.0566,-2.0566,-2.0566,-2.0566,-2.0566,-2.0566,-2.0566,-2.0566,-2.0566,-2.0566,-2.0566,-2.0566,-2.0566,-2.0498,-2.0264,-2.002,-1.9863,-1.9715,-1.939,-1.939,-1.9469,-1.9301,-1.9301,-1.9301,-1.9301,-1.9301,-1.9301,-1.9301,-1.8327,-1.7261,-1.678,-1.6049,-1.5311,-1.4908,-1.4419,-1.4088,-1.4088,-1.4088,-1.4088,-1.4088,-1.3975,-1.3928,-1.4068,-1.3968,-1.3935,-1.4075,-1.4088,-1.4088,-1.4088,-1.4088,-1.4021,-1.3854,-1.3848,-1.3848,-1.3848,-1.481,-1.5129,-1.4734,-1.5636,-1.6116,-1.6198,-1.5553,-1.5228,-1.5054,-1.5054,-1.488,-1.4629,-1.4048,-1.362,-1.3275,-1.2784,-1.2454,-1.2375,-1.2203,-1.2522,-1.2986,-1.3012,-1.3391,-1.3945,-1.3884,-1.3931,-1.3835,-2.9792,-2.9792,-2.9792,-2.9792,-2.9792,-2.9792,-2.9792,-2.9792,-2.9792,-2.9792,-2.9792,-2.9792,-2.9792,-2.9792,-2.9365,-2.8347,-2.729,-2.6224,-2.5126,-2.3391,-2.2277,-2.2113,-2.1263,-2.0712,-2.0566,-2.042,-2.0264,-2.0264,-2.0489,-2.0566,-2.0566,-2.0566,-2.0566,-2.0566,-2.0566,-2.0566,-2.0566,-2.0566,-2.0566,-2.0566,-2.0566,-2.0566,-2.0566,-2.0566,-2.0566,-2.0566,-2.0566,-2.0489,-2.0264,-2.002,-1.9794,-1.9636,-1.9381,-1.9301,-1.9301,-1.9301,-1.9301,-1.9301,-1.9301,-1.9301,-1.9301,-1.9301,-1.8158,-1.7017,-1.6944,-1.6206,-1.5311,-1.4496,-1.4173,-1.4088,-1.4088,-1.4088,-1.4075,-1.4028,-1.3848,-1.3781,-1.3988,-1.3841,-1.3801,-1.4055,-1.4088,-1.4088,-1.4088,-1.4088,-1.4088,-1.4088,-1.4088,-1.4088,-1.4088,-1.4985,-1.5394,-1.5394,-1.6281,-1.6683,-1.6535,-1.6772,-1.6854,-1.6698,-1.6698,-1.6527,-1.6191,-1.5199,-1.4364,-1.3853,-1.3033,-1.2454,-1.2123,-1.2283,-1.2441,-1.2526,-1.2779,-1.3216,-1.3661,-1.3831,-1.3931,-1.3931,-2.9792,-2.9792,-2.9792,-2.9792,-2.9792,-2.9792,-2.9792,-2.9792,-2.9792,-2.9792,-2.9792,-2.9792,-2.9792,-2.9792,-2.9611,-2.925,-2.8199,-2.7221,-2.6307,-2.5154,-2.414,-2.3262,-2.2309,-2.1298,-2.0342,-2.0342,-2.0264,-2.0264,-2.0489,-2.0566,-2.0566,-2.0566,-2.0566,-2.0566,-2.0566,-2.0566,-2.0566,-2.0566,-2.0566,-2.0566,-2.0566,-2.0566,-2.0566,-2.0566,-2.0566,-2.0566,-2.0566,-2.0566,-2.0489,-2.002,-1.9863,-1.9784,-1.9381,-1.9301,-1.9301,-1.9301,-1.9301,-1.9301,-1.9301,-1.9301,-1.9301,-1.9301,-1.9134,-1.8727,-1.7997,-1.7098,-1.6206,-1.5394,-1.4573,-1.4088,-1.4088,-1.4088,-1.4008,-1.3754,-1.3881,-1.3948,-1.3741,-1.3888,-1.4035,-1.4082,-1.4088,-1.4088,-1.4088,-1.4088,-1.4088,-1.4088,-1.4088,-1.4088,-1.4088,-1.5054,-1.5545,-1.5394,-1.5553,-1.5636,-1.5643,-1.7253,-1.7577,-1.6698,-1.6698,-1.6198,-1.5206,-1.4873,-1.421,-1.3215,-1.2705,-1.2534,-1.254,-1.2209,-1.2447,-1.2975,-1.314,-1.3401,-1.3848,-1.3933,-1.3931,-1.3835,-2.9792,-2.9792,-2.9792,-2.9792,-2.9792,-2.9792,-2.9792,-2.9792,-2.9792,-2.9792,-2.9792,-2.9792,-2.9792,-2.9792,-2.9779,-2.9611,-2.9028,-2.8409,-2.7727,-2.588,-2.4325,-2.3134,-2.2241,-2.1211,-1.9951,-2.0029,-2.0108,-2.0108,-2.0333,-2.0489,-2.0566,-2.0566,-2.0566,-2.0566,-2.0498,-2.042,-2.042,-2.042,-2.042,-2.0411,-2.0566,-2.0566,-2.0566,-2.0566,-2.0566,-2.0566,-2.0566,-2.0489,-2.0411,-2.002,-1.9872,-1.9715,-1.9381,-1.9301,-1.9301,-1.9301,-1.9301,-1.9301,-1.9301,-1.9301,-1.9301,-1.9301,-1.8975,-1.8487,-1.8078,-1.735,-1.6617,-1.6206,-1.5394,-1.4824,-1.4824,-1.4412,-1.4041,-1.3908,-1.3861,-1.3854,-1.3881,-1.3861,-1.3908,-1.4068,-1.4088,-1.4088,-1.4088,-1.4088,-1.4088,-1.4088,-1.4088,-1.4088,-1.4088,-1.4573,-1.4977,-1.5394,-1.6288,-1.6617,-1.6124,-1.7908,-1.8318,-1.7432,-1.7432,-1.7098,-1.6601,-1.5365,-1.4455,-1.3789,-1.3039,-1.2625,-1.2289,-1.2289,-1.2365,-1.2517,-1.2817,-1.322,-1.3564,-1.3784,-1.3931,-1.3835,-2.9702,-2.9702,-2.9702,-2.9624,-2.9702,-2.9702,-2.9702,-2.9792,-2.9792,-2.9792,-2.9792,-2.9792,-2.9792,-2.9702,-2.9702,-2.9702,-2.9319,-2.8855,-2.8487,-2.6353,-2.458,-2.336,-2.2203,-2.1058,-1.9942,-1.9863,-1.9863,-1.9863,-2.0186,-2.0342,-2.0489,-2.0566,-2.0566,-2.0411,-2.0342,-2.0264,-2.0186,-2.0186,-2.0264,-2.0342,-2.0498,-2.0566,-2.0566,-2.0566,-2.0566,-2.0566,-2.0566,-2.0411,-2.0264,-1.9951,-1.9715,-1.9557,-1.9381,-1.9301,-1.9301,-1.9301,-1.9301,-1.9301,-1.9301,-1.9301,-1.9301,-1.9301,-1.8807,-1.8247,-1.8078,-1.7513,-1.6944,-1.678,-1.6214,-1.5718,-1.5801,-1.4985,-1.4391,-1.44,-1.4014,-1.3801,-1.3961,-1.3848,-1.3834,-1.4062,-1.4088,-1.4088,-1.4088,-1.4088,-1.4088,-1.4088,-1.4088,-1.4088,-1.4088,-1.4088,-1.4496,-1.5394,-1.7098,-1.7755,-1.7025,-1.8567,-1.8975,-1.8318,-1.8078,-1.7836,-1.7594,-1.6026,-1.4873,-1.4119,-1.3633,-1.2966,-1.2209,-1.2369,-1.2283,-1.2175,-1.2586,-1.2968,-1.3215,-1.3642,-1.3835,-1.3835,-2.9509,-2.9419,-2.9341,-2.9209,-2.9275,-2.9419,-2.9419,-2.9611,-2.9792,-2.9792,-2.9792,-2.9792,-2.9792,-2.9599,-2.9419,-2.9419,-2.8651,-2.7995,-2.7606,-2.6761,-2.5922,-2.5124,-2.2583,-2.1135,-2.0981,-2.0089,-1.9715,-1.9863,-2.0186,-2.0342,-2.0342,-2.0489,-2.0411,-1.9942,-2.0186,-2.0186,-1.9942,-1.9942,-2.0098,-2.0264,-2.0342,-2.0411,-2.0566,-2.0566,-2.0566,-2.0566,-2.042,-2.0342,-2.0264,-1.9803,-1.9636,-1.9557,-1.9381,-1.9301,-1.9301,-1.9301,-1.9301,-1.9301,-1.9301,-1.9301,-1.9301,-1.9301,-1.9222,-1.8975,-1.8158,-1.7917,-1.7674,-1.6862,-1.6617,-1.669,-1.6838,-1.6041,-1.5292,-1.5227,-1.4531,-1.3968,-1.3707,-1.3895,-1.4062,-1.4082,-1.4088,-1.4088,-1.4088,-1.4088,-1.4088,-1.4088,-1.4088,-1.4088,-1.4088,-1.4088,-1.4496,-1.5394,-1.7253,-1.8149,-1.7917,-1.8984,-1.9469,-1.9222,-1.8407,-1.7504,-1.6519,-1.6355,-1.5289,-1.3476,-1.4041,-1.3698,-1.2619,-1.2448,-1.2363,-1.2416,-1.267,-1.2962,-1.3117,-1.3446,-1.3539,-1.3539,-2.9197,-2.9197,-2.9197,-2.9131,-2.9131,-2.9197,-2.9197,-2.9287,-2.9378,-2.9378,-2.9378,-2.9378,-2.9378,-2.9287,-2.9197,-2.9197,-2.8472,-2.777,-2.7322,-2.6627,-2.5731,-2.4576,-2.2948,-2.1876,-2.1659,-2.076,-2.0391,-2.0557,-2.0108,-1.9951,-2.002,-2.0098,-2.0098,-1.9863,-1.9872,-1.9794,-1.9715,-1.9715,-1.9794,-1.9872,-2.0186,-2.0342,-2.0411,-2.0411,-2.0411,-2.0411,-2.0108,-1.9951,-1.9872,-1.9645,-1.9557,-1.939,-1.9301,-1.9301,-1.9301,-1.9301,-1.9301,-1.9301,-1.9301,-1.9301,-1.9301,-1.9301,-1.9301,-1.9222,-1.8895,-1.8816,-1.8727,-1.8399,-1.7989,-1.7658,-1.7666,-1.6927,-1.616,-1.5465,-1.5072,-1.4942,-1.4889,-1.442,-1.4334,-1.497,-1.4489,-1.4088,-1.4088,-1.4088,-1.4088,-1.4088,-1.4088,-1.4334,-1.4908,-1.6041,-1.6846,-1.7172,-1.855,-1.8638,-1.7188,-1.8825,-1.9231,-1.8487,-1.8158,-1.7755,-1.7342,-1.6854,-1.6116,-1.5289,-1.553,-1.5274,-1.4685,-1.4378,-1.43,-1.4257,-1.3811,-1.3619,-1.3719,-1.3538,-1.3498,-1.3539,-2.904,-2.9052,-2.8973,-2.8895,-2.8973,-2.9052,-2.9052,-2.9052,-2.9131,-2.9131,-2.9131,-2.9131,-2.9131,-2.9052,-2.8978,-2.8897,-2.8151,-2.7451,-2.698,-2.6299,-2.5457,-2.4504,-2.3441,-2.2776,-2.2478,-2.1659,-2.1221,-2.1395,-2.0847,-2.0615,-2.076,-2.0847,-2.0624,-2.0167,-2.0089,-1.9863,-1.9478,-1.9478,-1.9557,-1.9645,-1.9951,-2.0108,-2.0186,-2.0186,-2.0186,-2.0108,-1.9863,-1.9715,-1.9557,-1.9557,-1.939,-1.9301,-1.9301,-1.9301,-1.9301,-1.9301,-1.9222,-1.9222,-1.9301,-1.9222,-1.9222,-1.9301,-1.9301,-1.9301,-1.9301,-1.9301,-1.9301,-1.9381,-1.8966,-1.863,-1.8559,-1.7908,-1.709,-1.6527,-1.5801,-1.547,-1.5703,-1.4817,-1.4412,-1.5137,-1.4573,-1.4088,-1.4088,-1.4088,-1.4088,-1.4088,-1.4088,-1.4334,-1.4985,-1.6772,-1.7819,-1.7891,-1.9204,-1.9134,-1.7594,-1.8904,-1.9231,-1.8399,-1.8158,-1.7997,-1.7908,-1.735,-1.6854,-1.6437,-1.6683,-1.6511,-1.6003,-1.5613,-1.5379,-1.5173,-1.4289,-1.4229,-1.4417,-1.3519,-1.3406,-1.3817,-2.8803,-2.8791,-2.8724,-2.851,-2.8657,-2.8791,-2.8791,-2.8961,-2.9131,-2.9131,-2.9131,-2.9131,-2.9131,-2.8882,-2.8663,-2.8292,-2.7463,-2.6781,-2.6432,-2.5684,-2.5312,-2.5312,-2.412,-2.3514,-2.3514,-2.2553,-2.2113,-2.2435,-2.2563,-2.2627,-2.2627,-2.2872,-2.2199,-2.0837,-2.0981,-2.045,-1.9301,-1.9301,-1.939,-1.9566,-1.9566,-1.9715,-1.9863,-1.9863,-1.9863,-1.9863,-1.9636,-1.9566,-1.9557,-1.939,-1.9301,-1.9301,-1.9301,-1.9301,-1.9301,-1.9301,-1.9152,-1.9073,-1.9222,-1.9152,-1.9082,-1.9222,-1.9301,-1.9301,-1.9301,-1.9301,-1.9381,-1.9557,-1.9469,-1.9381,-1.9784,-1.8886,-1.8158,-1.8559,-1.6772,-1.547,-1.5696,-1.4817,-1.4088,-1.4088,-1.4088,-1.4088,-1.4088,-1.4088,-1.4088,-1.4088,-1.4088,-1.4088,-1.4088,-1.5801,-1.6772,-1.7001,-1.8877,-1.9794,-1.9566,-1.9566,-1.9478,-1.9301,-1.8399,-1.7908,-1.7738,-1.7917,-1.7423,-1.6437,-1.7334,-1.7074,-1.6003,-1.5831,-1.5433,-1.4901,-1.4084,-1.446,-1.5301,-1.324,-1.3305,-1.4459,-2.8578,-2.8578,-2.8578,-2.851,-2.859,-2.8578,-2.8578,-2.8669,-2.8669,-2.8669,-2.8669,-2.8669,-2.8669,-2.8669,-2.8373,-2.792,-2.7312,-2.6538,-2.5684,-2.5396,-2.5241,-2.5182,-2.4802,-2.4599,-2.4394,-2.3537,-2.3084,-2.3032,-2.2638,-2.2403,-2.2403,-2.2478,-2.2253,-2.1886,-2.1886,-2.1354,-2.0382,-2.0382,-2.0001,-1.939,-1.9557,-1.9645,-1.9715,-1.9715,-1.9715,-1.9636,-1.9469,-1.939,-1.9381,-1.9301,-1.9301,-1.9301,-1.9301,-1.9301,-1.9301,-1.9152,-1.9082,-1.9002,-1.8931,-1.8922,-1.9082,-1.9222,-1.9301,-1.9301,-1.9301,-1.9301,-1.9301,-1.9381,-1.9469,-1.9478,-1.946,-1.9381,-1.9134,-1.847,-1.7334,-1.6601,-1.6764,-1.5228,-1.4412,-1.5137,-1.4573,-1.4088,-1.4088,-1.4088,-1.4088,-1.4088,-1.5235,-1.5884,-1.5884,-1.7683,-1.8736,-1.8816,-1.939,-1.9636,-1.9566,-1.9715,-1.9627,-1.9301,-1.9054,-1.8895,-1.8807,-1.8895,-1.8727,-1.8479,-1.8727,-1.823,-1.7245,-1.7674,-1.7188,-1.6124,-1.5551,-1.5454,-1.5597,-1.4771,-1.4142,-1.3744,-2.851,-2.851,-2.851,-2.851,-2.851,-2.851,-2.851,-2.851,-2.851,-2.851,-2.851,-2.851,-2.851,-2.8318,-2.7981,-2.7452,-2.6719,-2.5937,-2.5289,-2.5241,-2.5241,-2.5111,-2.5052,-2.4921,-2.4718,-2.4238,-2.3998,-2.3863,-2.361,-2.3514,-2.3514,-2.3514,-2.3294,-2.2925,-2.2776,-2.2253,-2.1288,-2.1221,-2.0615,-1.9766,-1.9932,-1.9784,-1.9478,-1.9478,-1.9478,-1.9469,-1.9301,-1.9301,-1.9301,-1.9301,-1.9301,-1.9301,-1.9301,-1.9301,-1.9222,-1.9073,-1.8922,-1.8851,-1.8851,-1.8763,-1.8834,-1.9222,-1.9301,-1.9301,-1.939,-1.9381,-1.9381,-1.946,-1.9548,-1.9469,-1.939,-1.9548,-1.9539,-1.9036,-1.8132,-1.7568,-1.7827,-1.6034,-1.5054,-1.5951,-1.5228,-1.4741,-1.5228,-1.4817,-1.4573,-1.4573,-1.5959,-1.6772,-1.6698,-1.8167,-1.8984,-1.9054,-1.939,-1.9566,-1.9566,-1.9715,-1.9627,-1.9301,-1.9222,-1.9222,-1.9301,-1.9301,-1.9301,-1.9301,-1.8886,-1.8318,-1.7738,-1.8175,-1.7691,-1.678,-1.6108,-1.6149,-1.639,-1.4946,-1.4488,-1.4577,-2.851,-2.851,-2.851,-2.851,-2.851,-2.851,-2.851,-2.851,-2.851,-2.851,-2.851,-2.8498,-2.845,-2.8017,-2.7488,-2.6911,-2.5901,-2.5241,-2.5111,-2.5182,-2.5241,-2.5052,-2.4849,-2.4646,-2.449,-2.4646,-2.479,-2.479,-2.5111,-2.5312,-2.5312,-2.5312,-2.4791,-2.3891,-2.3745,-2.3073,-2.2113,-2.1983,-2.1451,-2.0615,-2.0537,-2.0079,-1.9381,-1.9301,-1.9301,-1.9301,-1.9301,-1.9301,-1.9301,-1.9301,-1.9301,-1.9301,-1.9301,-1.9301,-1.9222,-1.9073,-1.8851,-1.8772,-1.8922,-1.8763,-1.8594,-1.9143,-1.9301,-1.9381,-1.9557,-1.9469,-1.946,-1.9784,-1.9539,-1.9381,-1.9557,-1.9469,-1.946,-1.9863,-1.9036,-1.8381,-1.8559,-1.7001,-1.6034,-1.6617,-1.5966,-1.5876,-1.6838,-1.6124,-1.556,-1.556,-1.6519,-1.7009,-1.6854,-1.7674,-1.8238,-1.8381,-1.9143,-1.9557,-1.9557,-1.9566,-1.9478,-1.9301,-1.9073,-1.9073,-1.9301,-1.9301,-1.9222,-1.9134,-1.823,-1.7738,-1.7577,-1.7738,-1.7423,-1.678,-1.6175,-1.6617,-1.7427,-1.4549,-1.473,-1.6058,-2.851,-2.851,-2.851,-2.851,-2.851,-2.851,-2.851,-2.851,-2.851,-2.851,-2.851,-2.8354,-2.7933,-2.7789,-2.7332,-2.637,-2.5685,-2.5241,-2.5111,-2.5111,-2.5052,-2.4861,-2.4646,-2.449,-2.4273,-2.449,-2.4646,-2.479,-2.5052,-2.5182,-2.5312,-2.5312,-2.5099,-2.4814,-2.4731,-2.4143,-2.3021,-2.3021,-2.2435,-2.1451,-2.0769,-2.0382,-2.0148,-1.9529,-1.9301,-1.9301,-1.9301,-1.9301,-1.9301,-1.9301,-1.9301,-1.9301,-1.9301,-1.9301,-1.9222,-1.9073,-1.9002,-1.8922,-1.878,-1.8851,-1.8913,-1.9222,-1.9301,-1.9301,-1.9381,-1.9469,-1.9557,-1.946,-1.9381,-1.9301,-1.9381,-1.9478,-1.9636,-1.9863,-1.9125,-1.8559,-1.8559,-1.7496,-1.6683,-1.669,-1.6535,-1.6535,-1.6772,-1.6527,-1.6527,-1.6854,-1.7423,-1.7827,-1.798,-1.8638,-1.9054,-1.9054,-1.9301,-1.939,-1.939,-1.9231,-1.9082,-1.9082,-1.9152,-1.9152,-1.9073,-1.9231,-1.8807,-1.8069,-1.8727,-1.798,-1.6495,-1.8078,-1.7674,-1.6116,-1.7115,-1.7082,-1.6526,-1.6622,-1.5906,-1.4609,-2.851,-2.851,-2.851,-2.851,-2.851,-2.851,-2.851,-2.851,-2.851,-2.851,-2.8294,-2.8029,-2.7753,-2.726,-2.661,-2.5793,-2.5397,-2.5111,-2.4992,-2.4992,-2.4849,-2.4646,-2.4574,-2.4418,-2.4345,-2.4345,-2.449,-2.479,-2.4981,-2.5111,-2.5182,-2.5182,-2.5111,-2.4921,-2.4849,-2.4467,-2.3875,-2.379,-2.3202,-2.2306,-2.1461,-2.0847,-2.0382,-1.9608,-1.9301,-1.9301,-1.9301,-1.9301,-1.9301,-1.9301,-1.9301,-1.9301,-1.9301,-1.9301,-1.9222,-1.9073,-1.9002,-1.9002,-1.8851,-1.8922,-1.9082,-1.9222,-1.939,-1.9469,-1.9539,-1.9548,-1.9469,-1.9469,-1.939,-1.9301,-1.9301,-1.939,-1.9548,-1.9863,-1.9539,-1.9204,-1.9204,-1.839,-1.7827,-1.7917,-1.7594,-1.7342,-1.7342,-1.7997,-1.8238,-1.7666,-1.8559,-1.8966,-1.8798,-1.9222,-1.939,-1.9301,-1.9301,-1.9301,-1.9301,-1.9231,-1.9073,-1.9002,-1.9002,-1.9073,-1.9152,-1.9152,-1.8825,-1.8327,-1.8479,-1.7747,-1.6601,-1.7827,-1.7594,-1.6445,-1.7359,-1.7367,-1.6902,-1.6838,-1.5992,-1.477,-2.851,-2.851,-2.851,-2.851,-2.851,-2.851,-2.851,-2.851,-2.8474,-2.839,-2.7993,-2.7657,-2.7464,-2.6562,-2.5781,-2.5277,-2.5182,-2.4981,-2.479,-2.479,-2.4646,-2.4502,-2.449,-2.4418,-2.4418,-2.4273,-2.4345,-2.4718,-2.4921,-2.5052,-2.5052,-2.5052,-2.4921,-2.4718,-2.4574,-2.449,-2.4418,-2.4273,-2.3824,-2.315,-2.2306,-2.1451,-2.0615,-1.9844,-1.946,-1.9301,-1.9301,-1.9301,-1.9301,-1.9301,-1.9301,-1.9301,-1.9301,-1.9301,-1.9301,-1.9073,-1.9082,-1.9082,-1.9082,-1.9082,-1.9073,-1.9301,-1.9469,-1.9636,-1.9784,-1.9627,-1.939,-1.9557,-1.939,-1.9301,-1.9301,-1.9301,-1.946,-1.9863,-1.9863,-1.9863,-1.9863,-1.9213,-1.8886,-1.9222,-1.8647,-1.8238,-1.8247,-1.9381,-1.9618,-1.8479,-1.946,-1.9942,-1.946,-1.9478,-1.9469,-1.9301,-1.9301,-1.9301,-1.9301,-1.9301,-1.9231,-1.9082,-1.8851,-1.8922,-1.9222,-1.9073,-1.8913,-1.8754,-1.8158,-1.7585,-1.7196,-1.7594,-1.7513,-1.7115,-1.7521,-1.761,-1.7529,-1.6542,-1.5898,-1.5362,-2.851,-2.851,-2.851,-2.851,-2.851,-2.851,-2.851,-2.851,-2.8342,-2.7885,-2.7765,-2.7368,-2.6418,-2.5781,-2.5325,-2.5123,-2.5111,-2.4981,-2.479,-2.4646,-2.4502,-2.449,-2.4345,-2.4273,-2.4273,-2.42,-2.4345,-2.4562,-2.4574,-2.4634,-2.4861,-2.4861,-2.4718,-2.4562,-2.449,-2.4418,-2.4273,-2.42,-2.4116,-2.397,-2.3139,-2.2381,-2.1538,-2.0692,-1.9923,-1.9301,-1.9301,-1.9301,-1.9301,-1.9301,-1.9301,-1.9301,-1.9301,-1.9301,-1.9301,-1.9301,-1.9222,-1.9222,-1.9222,-1.9222,-1.9311,-1.9478,-1.9469,-1.939,-1.9557,-1.9636,-1.9557,-1.939,-1.9301,-1.9301,-1.9301,-1.9301,-1.946,-1.9863,-1.9715,-1.9715,-1.9863,-1.9636,-1.939,-1.9301,-1.9222,-1.9222,-1.9399,-1.939,-1.9618,-1.9942,-1.9618,-1.9548,-1.9784,-1.9539,-1.9301,-1.9301,-1.9301,-1.9301,-1.9301,-1.9301,-1.9301,-1.9222,-1.9073,-1.9002,-1.9082,-1.9222,-1.8727,-1.7908,-1.8576,-1.8327,-1.7666,-1.8095,-1.8014,-1.7666,-1.8273,-1.8112,-1.7359,-1.678,-1.6229,-1.5431,-2.851,-2.851,-2.851,-2.851,-2.851,-2.851,-2.851,-2.851,-2.8318,-2.7789,-2.7464,-2.6983,-2.6178,-2.5624,-2.5312,-2.5241,-2.5111,-2.4981,-2.479,-2.4646,-2.4418,-2.4345,-2.4273,-2.42,-2.42,-2.42,-2.4273,-2.4345,-2.4418,-2.4574,-2.4646,-2.4646,-2.4502,-2.4345,-2.4345,-2.4273,-2.42,-2.42,-2.42,-2.4127,-2.3298,-2.2767,-2.2306,-2.1001,-2.0313,-1.9923,-1.946,-1.9301,-1.9301,-1.9301,-1.9301,-1.9301,-1.9301,-1.9301,-1.9301,-1.9301,-1.9301,-1.9301,-1.9301,-1.9381,-1.9478,-1.9469,-1.9469,-1.9478,-1.9469,-1.939,-1.939,-1.9301,-1.9301,-1.9301,-1.9301,-1.9301,-1.9381,-1.9715,-1.9636,-1.9645,-1.9715,-1.9636,-1.9557,-1.9301,-1.9301,-1.9301,-1.939,-1.9469,-1.9548,-1.9706,-1.9706,-1.9618,-1.9548,-1.9469,-1.939,-1.9301,-1.9301,-1.9301,-1.9301,-1.9301,-1.9301,-1.9301,-1.9222,-1.9152,-1.9152,-1.9152,-1.8904,-1.8416,-1.8984,-1.8825,-1.8264,-1.8745,-1.8665,-1.8264,-1.8683,-1.8603,-1.8031,-1.7619,-1.7204,-1.6788]},{"header":{"parameterUnit":"m.s-1","parameterCategory":1,"la1":30.6,"la2":28.766,"lo1":-90.7593,"lo2":-88.6598,"dy":0.0162,"dx":0.0183,"nx":116,"ny":114,"refTime":"2023-05-13T12:00:00:Z","depth":0,"parameterNumber":3,"parameterNumberName":"V-component_of_WINDS"},"data":[0.0,0.0,0.0,0.0,0.0,0.0,0.0,0.0,0.0,0.0,0.0,0.0,0.0,0.0,0.0,0.0,0.0,0.0,0.0,0.0,0.0,0.0,0.0,0.0,0.0,0.0,0.0,0.0,0.0,0.0,0.0,0.0,0.0,0.0,0.0,0.0,0.0,0.0,0.0,0.0,0.0,0.0,0.0,0.0,0.0,0.0,0.0,0.0,0.0,0.0,0.0,0.0,0.0,0.0,0.0,0.0,0.0,0.0,0.0,0.0,0.0,0.0,0.0,0.0,0.0,0.0,0.0,0.0,0.0,0.0,0.0,0.0,0.0,0.0,0.0,0.0,0.0,0.0,0.0,0.0,0.0,0.0,0.0,0.0,0.0,0.0,0.0,0.0,0.0,0.0,0.0,0.0,0.0,0.0,0.0,0.0,0.0,0.0,0.0,0.0,0.0,0.0,0.0,0.0,0.0,0.0,0.0,0.0,0.0,0.0,0.0,0.0,0.0,0.0,0.0,0.0,0.0,0.0,0.0,0.0,0.0,0.0,0.0,0.0,0.0,0.0,0.0,0.0,0.0,0.0,0.0,0.0,0.0,0.0,0.0,0.0,0.0,0.0,0.0,0.0,0.0,0.0,0.0,0.0,0.0,0.0,0.0,0.0,0.0,0.0,0.0,0.0,0.0,0.0,0.0,0.0,0.0,0.0,0.0,0.0,0.0,0.0,0.0,0.0,0.0,0.0,0.0,0.0,0.0,0.0,0.0,0.0,0.0,0.0,0.0,0.0,0.0,0.0,0.0,0.0,0.0,0.0,0.0,0.0,0.0,0.0,0.0,0.0,0.0,0.0,0.0,0.0,0.0,0.0,0.0,0.0,0.0,0.0,0.0,0.0,0.0,0.0,0.0,0.0,0.0,0.0,0.0,0.0,0.0,0.0,0.0,0.0,0.0,0.0,0.0,0.0,0.0,0.0,0.0,0.0,0.0,0.0,0.0,0.0,0.0,0.0,0.0,0.0,0.0,0.0,0.0,0.0,0.0,0.0,0.0,0.0,0.0,0.0,0.0,0.0,0.0,0.0,0.0,0.0,0.0,0.0,0.0,0.0,0.0,0.0,0.0,0.0,0.0,0.0,0.0,0.0,0.0,0.0,0.0,0.0,0.0,0.0,0.0,0.0,0.0,0.0,0.0,0.0,0.0,0.0,0.0,0.0,0.0,0.0,0.0,0.0,0.0,0.0,0.0,0.0,0.0,0.0,0.0,0.0,0.0,0.0,0.0,0.0,0.0,0.0,0.0,0.0,0.0,0.0,0.0,0.0,0.0,0.0,0.0,0.0,0.0,0.0,0.0,0.0,0.0,0.0,0.0,0.0,0.0,0.0,0.0,0.0,0.0,0.0,0.0,0.0,0.0,0.0,0.0,0.0,0.0,0.0,0.0,0.0,0.0,0.0,0.0,0.0,0.0,0.0,0.0,0.0,0.0,0.0,0.0,0.0,0.0,0.0,0.0,0.0,0.0,0.0,0.0,0.0,0.0,0.0,0.0,0.0,0.0,0.0,0.0,0.0,0.0,0.0,0.0,0.0,0.0,0.0,0.0,0.0,0.0,0.0,0.0,0.0,0.0,0.0,0.0,0.0,0.0,0.0,0.0,0.0,0.0,0.0,0.0,0.0,0.0,0.0,0.0,0.0,0.0,0.0,0.0,0.0,0.0,0.0,0.0,0.0,0.0,0.0,0.0,0.0,0.0,0.0,0.0,0.0,0.0,0.0,0.0,0.0,0.0,0.0,0.0,0.0,0.0,0.0,0.0,0.0,0.0,0.0,0.0,0.0,0.0,0.0,0.0,0.0,0.0,0.0,0.0,0.0,0.0,0.0,0.0,0.0,0.0,0.0,0.0,0.0,0.0,0.0,0.0,0.0,0.0,0.0,0.0,0.0,0.0,0.0,0.0,0.0,0.0,0.0,0.0,0.0,0.0,0.0,0.0,0.0,0.0,0.0,0.0,0.0,0.0,0.0,0.0,0.0,0.0,0.0,0.0,0.0,0.0,0.0,0.0,0.0,0.0,0.0,0.0,0.0,0.0,0.0,0.0,0.0,0.0,0.0,0.0,0.0,0.0,0.0,0.0,0.0,0.0,0.0,0.0,0.0,0.0,0.0,0.0,0.0,0.0,0.0,0.0,0.0,0.0,0.0,0.0,0.0,0.0,0.0,0.0,0.0,0.0,0.0,0.0,0.0,0.0,0.0,0.0,0.0,0.0,0.0,0.0,0.0,0.0,0.0,0.0,0.0,0.0,0.0,0.0,0.0,0.0,0.0,0.0,0.0,0.0,0.0,0.0,0.0,0.0,0.0,0.0,0.0,0.0,0.0,0.0,0.0,0.0,0.0,0.0,0.0,0.0,0.0,0.0,0.0,0.0,0.0,0.0,0.0,0.0,0.0,0.0,0.0,0.0,0.0,0.0,0.0,0.0,0.0,0.0,0.0,0.0,0.0,0.0,0.0,0.0,0.0,0.0,0.0,0.0,0.0,0.0,0.0,0.0,0.0,0.0,0.0,0.0,0.0,0.0,0.0,0.0,0.0,0.0,0.0,0.0,0.0,0.0,0.0,0.0,0.0,0.0,0.0,0.0,0.0,0.0,0.0,0.0,0.0,0.0,0.0,0.0,0.0,0.0,0.0,0.0,0.0,0.0,0.0,0.0,0.0,0.0,0.0,0.0,0.0,0.0,0.0,0.0,0.0,0.0,0.0,0.0,0.0,0.0,0.0,0.0,0.0,0.0,0.0,0.0,0.0,0.0,0.0,0.0,0.0,0.0,0.0,0.0,0.0,0.0,0.0,0.0,0.0,0.0,0.0,0.0,0.0,0.0,0.0,0.0,0.0,0.0,0.0,0.0,0.0,0.0,0.0,0.0,0.0,0.0,0.0,0.0,0.0,0.0,0.0,0.0,0.0,0.0,0.0,0.0,0.0,0.0,0.0,0.0,0.0,0.0,0.0,0.0,0.0,0.0,0.0,0.0,0.0,0.0,0.0,0.0,0.0,0.0,0.0,0.0,0.0,0.0,0.0,0.0,0.0,0.0,0.0,0.0,0.0,0.0,0.0,0.0,0.0,0.0,0.0,0.0,0.0,0.0,0.0,0.0,0.0,0.0,0.0,0.0,0.0,0.0,0.0,0.0,0.0,0.0,0.0,0.0,0.0,0.0,0.0,0.0,0.0,0.0,0.0,0.0,0.0,0.0,0.0,0.0,0.0,0.0,0.0,0.0,0.0,0.0,0.0,0.0,0.0,0.0,0.0,0.0,0.0,0.0,0.0,0.0,0.0,0.0,0.0,0.0,0.0,0.0,0.0,0.0,0.0,0.0,0.0,0.0,0.0,0.0,0.0,0.0,0.0,0.0,0.0,0.0,0.0,0.0,0.0,0.0,0.0,0.0,0.0,0.0,0.0,0.0,0.0,0.0,0.0,0.0,0.0,0.0,0.0,0.0,0.0,0.0,0.0,0.0,0.0,0.0,0.0,0.0,0.0,0.0,0.0,0.0,0.0,0.0,0.0,0.0,0.0,0.0,0.0,0.0,0.0,0.0,0.0,0.0,0.0,0.0,0.0,0.0,0.0,0.0,0.0,0.0,0.0,0.0,0.0,0.0,0.0,0.0,0.0,0.0,0.0,0.0,0.0,0.0,0.0,0.0,0.0,0.0,0.0,0.0,0.0,0.0,0.0,0.0,0.0,0.0,0.0,0.0,0.0,0.0,0.0,0.0,0.0,0.0,0.0,0.0,0.0,0.0,0.0,0.0,0.0,0.0,0.0,0.0,0.0,0.0,0.0,0.0,0.0,0.0,0.0,0.0,0.0,0.0,0.0,0.0,0.0,0.0,0.0,0.0,0.0,0.0,0.0,0.0,0.0,0.0,0.0,0.0,0.0,0.0,0.0,0.0,0.0,0.0,0.0,0.0,0.0,0.0,0.0,0.0,0.0,0.0,0.0,0.0,0.0,0.0,0.0,0.0,0.0,0.0,0.0,0.0,0.0,0.0,0.0,0.0,0.0,0.0,0.0,0.0,0.0,0.0,0.0,0.0,0.0,0.0,0.0,0.0,0.0,0.0,0.0,0.0,0.0,0.0,0.0,0.0,0.0,0.0,0.0,0.0,0.0,0.0,0.0,0.0,0.0,0.0,0.0,0.0,0.0,0.0,0.0,0.0,0.0,0.0,0.0,0.0,0.0,0.0,0.0,0.0,0.0,0.0,0.0,0.0,0.0,0.0,0.0,0.0,0.0,0.0,0.0,0.0,0.0,0.0,0.0,0.0,0.0,0.0,0.0,0.0,0.0,0.0,0.0,0.0,0.0,0.0,0.0,0.0,0.0,0.0,0.0,0.0,0.0,0.0,0.0,0.0,0.0,0.0,0.0,0.0,0.0,0.0,0.0,0.0,0.0,0.0,0.0,0.0,0.0,0.0,0.0,0.0,0.0,0.0,0.0,0.0,0.0,0.0,0.0,0.0,0.0,0.0,0.0,0.0,0.0,0.0,0.0,0.0,0.0,0.0,0.0,0.0,0.0,0.0,0.0,0.0,0.0,0.0,0.0,0.0,0.0,0.0,0.0,0.0,0.0,0.0,0.0,0.0,0.0,0.0,0.0,0.0,0.0,0.0,0.0,0.0,0.0,0.0,0.0,0.0,0.0,0.0,0.0,0.0,0.0,0.0,0.0,0.0,0.0,0.0,0.0,0.0,0.0,0.0,0.0,0.0,0.0,0.0,0.0,0.0,0.0,0.0,0.0,0.0,0.0,0.0,0.0,0.0,0.0,0.0,0.0,0.0,0.0,0.0,0.0,0.0,0.0,0.0,0.0,0.0,0.0,0.0,0.0,0.0,0.0,0.0,0.0,0.0,0.0,0.0,0.0,0.0,0.0,0.0,0.0,0.0,0.0,0.0,0.0,0.0,0.0,0.0,0.0,0.0,0.0,0.0,0.0,0.0,0.0,0.0,0.0,0.0,0.0,0.0,0.0,0.0,0.0,0.0,0.0,0.0,0.0,0.0,0.0,0.0,0.0,0.0,0.0,0.0,0.0,0.0,0.0,0.0,0.0,0.0,0.0,0.0,0.0,0.0,0.0,0.0,0.0,0.0,0.0,0.0,0.0,0.0,0.0,0.0,0.0,0.0,0.0,0.0,0.0,0.0,0.0,0.0,0.0,0.0,0.0,0.0,0.0,0.0,0.0,0.0,0.0,0.0,0.0,0.0,0.0,0.0,0.0,0.0,0.0,0.0,0.0,0.0,0.0,0.0,0.0,0.0,0.0,0.0,0.0,0.0,0.0,0.0,0.0,0.0,0.0,0.0,0.0,0.0,0.0,0.0,0.0,0.0,0.0,0.0,0.0,0.0,0.0,0.0,0.0,0.0,0.0,0.0,0.0,0.0,0.0,0.0,0.0,0.0,0.0,0.0,0.0,0.0,0.0,0.0,0.0,0.0,0.0,0.0,0.0,0.0,0.0,0.0,0.0,0.0,0.0,0.0,0.0,0.0,0.0,0.0,0.0,0.0,0.0,0.0,0.0,0.0,0.0,0.0,0.0,0.0,0.0,0.0,0.0,0.0,0.0,0.0,0.0,0.0,0.0,0.0,0.0,0.0,0.0,0.0,0.0,0.0,0.0,0.0,0.0,0.0,0.0,0.0,0.0,0.0,0.0,0.0,0.0,0.0,0.0,0.0,0.0,0.0,0.0,0.0,0.0,0.0,0.0,0.0,0.0,0.0,0.0,0.0,0.0,0.0,0.0,0.0,0.0,0.0,0.0,0.0,0.0,0.0,0.0,0.0,0.0,0.0,0.0,0.0,0.0,0.0,0.0,0.0,0.0,0.0,0.0,0.0,0.0,0.0,0.0,0.0,0.0,0.0,0.0,0.0,0.0,0.0,0.0,0.0,0.0,0.0,0.0,0.0,0.0,0.0,0.0,0.0,0.0,0.0,0.0,0.0,0.0,0.0,0.0,0.0,0.0,0.0,0.0,0.0,0.0,0.0,0.0,0.0,0.0,0.0,0.0,0.0,0.0,0.0,0.0,0.0,0.0,0.0,0.0,0.0,0.0,0.0,0.0,0.0,0.0,-3.5128,-3.4274,0.0,0.0,0.0,0.0,0.0,0.0,0.0,0.0,0.0,0.0,0.0,0.0,0.0,0.0,0.0,0.0,0.0,0.0,0.0,0.0,0.0,0.0,0.0,0.0,0.0,0.0,0.0,0.0,0.0,0.0,0.0,0.0,0.0,0.0,0.0,0.0,0.0,0.0,0.0,0.0,0.0,0.0,0.0,0.0,0.0,0.0,0.0,0.0,0.0,0.0,0.0,0.0,0.0,0.0,0.0,0.0,0.0,0.0,0.0,0.0,0.0,0.0,0.0,0.0,0.0,0.0,0.0,0.0,0.0,0.0,0.0,0.0,0.0,0.0,0.0,0.0,0.0,0.0,0.0,0.0,0.0,0.0,0.0,0.0,0.0,0.0,0.0,0.0,0.0,0.0,0.0,0.0,0.0,0.0,0.0,0.0,0.0,0.0,0.0,0.0,0.0,0.0,0.0,0.0,0.0,0.0,0.0,0.0,0.0,0.0,0.0,0.0,0.0,0.0,-3.6115,-3.5652,0.0,0.0,0.0,0.0,0.0,0.0,0.0,0.0,0.0,0.0,0.0,0.0,0.0,0.0,0.0,0.0,0.0,0.0,0.0,0.0,0.0,0.0,0.0,0.0,0.0,0.0,0.0,0.0,0.0,0.0,0.0,0.0,0.0,0.0,0.0,0.0,0.0,0.0,0.0,0.0,0.0,0.0,0.0,0.0,0.0,0.0,0.0,0.0,0.0,0.0,0.0,0.0,0.0,0.0,0.0,0.0,0.0,0.0,0.0,0.0,0.0,0.0,0.0,0.0,0.0,0.0,0.0,0.0,0.0,0.0,0.0,0.0,0.0,0.0,0.0,0.0,0.0,0.0,0.0,0.0,0.0,0.0,0.0,0.0,0.0,0.0,0.0,0.0,0.0,0.0,0.0,0.0,0.0,0.0,0.0,0.0,0.0,0.0,0.0,0.0,0.0,0.0,0.0,0.0,0.0,0.0,0.0,0.0,-3.6652,-3.6725,-3.6725,-3.6725,-3.7074,-3.7661,-3.7,-3.7019,-3.7386,-3.6009,0.0,0.0,0.0,0.0,0.0,0.0,0.0,0.0,0.0,0.0,0.0,0.0,0.0,0.0,0.0,0.0,0.0,0.0,0.0,0.0,0.0,0.0,0.0,0.0,0.0,0.0,0.0,0.0,0.0,0.0,0.0,0.0,0.0,0.0,0.0,0.0,0.0,0.0,-3.2449,-3.2449,-3.2508,-3.2608,-3.1771,0.0,0.0,0.0,0.0,0.0,0.0,0.0,0.0,0.0,0.0,0.0,0.0,0.0,0.0,0.0,0.0,0.0,0.0,0.0,0.0,0.0,0.0,0.0,0.0,0.0,0.0,0.0,0.0,0.0,0.0,0.0,0.0,0.0,0.0,0.0,0.0,0.0,0.0,0.0,0.0,0.0,0.0,0.0,-3.6977,-3.6977,0.0,0.0,0.0,0.0,0.0,0.0,0.0,0.0,0.0,0.0,0.0,0.0,0.0,-3.6174,-3.6303,-3.6982,-3.7331,-3.7331,-3.8046,-3.8377,-3.8377,-3.8377,-3.845,-3.8542,-3.8432,0.0,-3.7489,-3.7239,0.0,0.0,0.0,0.0,0.0,0.0,0.0,0.0,0.0,0.0,0.0,0.0,0.0,0.0,0.0,0.0,0.0,0.0,0.0,0.0,0.0,0.0,0.0,0.0,0.0,0.0,0.0,0.0,0.0,0.0,0.0,0.0,0.0,0.0,0.0,0.0,-3.2169,-3.2834,-3.3275,-3.3275,-3.3419,-3.3659,-3.3505,-3.2705,-3.1505,-3.1505,0.0,0.0,0.0,0.0,0.0,0.0,0.0,0.0,0.0,0.0,0.0,0.0,0.0,0.0,0.0,0.0,0.0,0.0,0.0,0.0,0.0,0.0,0.0,0.0,0.0,0.0,0.0,0.0,0.0,0.0,0.0,0.0,0.0,0.0,0.0,0.0,0.0,0.0,0.0,-3.5764,-3.6037,-3.6231,-3.5622,-3.5021,0.0,0.0,0.0,0.0,0.0,0.0,0.0,0.0,0.0,-3.6945,-3.6964,-3.7184,-3.7643,-3.7991,-3.8175,-3.8175,-3.8524,-3.8707,-3.8707,-3.8707,-3.8773,-3.8905,-3.8905,-3.8841,-3.8611,-3.7997,-3.7392,-3.6864,0.0,0.0,0.0,0.0,-3.6449,-3.6607,0.0,0.0,0.0,0.0,0.0,0.0,0.0,0.0,0.0,0.0,0.0,0.0,0.0,0.0,0.0,-2.9769,0.0,0.0,0.0,0.0,0.0,0.0,0.0,0.0,0.0,0.0,0.0,0.0,-3.2816,-3.322,-3.3788,-3.385,-3.4043,-3.4357,-3.4655,-3.3999,-3.2615,-3.2615,-3.2033,0.0,0.0,0.0,0.0,0.0,0.0,0.0,0.0,0.0,0.0,0.0,0.0,0.0,0.0,0.0,0.0,0.0,0.0,0.0,0.0,0.0,0.0,0.0,0.0,0.0,0.0,0.0,0.0,0.0,0.0,0.0,0.0,0.0,0.0,0.0,0.0,0.0,0.0,-3.5695,-3.5899,-3.5928,-3.5818,-3.5431,0.0,0.0,0.0,0.0,0.0,0.0,-3.6597,-3.6597,-3.6964,-3.7771,-3.7808,-3.8083,-3.8689,-3.8707,-3.8707,-3.8707,-3.8707,-3.8707,-3.8707,-3.8762,-3.8923,-3.9107,-3.9186,-3.9414,-3.9652,-3.8708,-3.8375,-3.8339,-3.7737,-3.7381,-3.7251,-3.754,-3.7618,-3.7791,0.0,0.0,0.0,0.0,0.0,0.0,0.0,0.0,0.0,0.0,0.0,0.0,0.0,0.0,-2.9414,-3.0206,-3.0277,-3.026,0.0,0.0,0.0,0.0,0.0,0.0,0.0,0.0,0.0,-3.2614,-3.3366,-3.3752,-3.3807,-3.4068,-3.4357,-3.4694,-3.4963,-3.4573,-3.3715,-3.3729,-3.3252,-3.2461,0.0,0.0,0.0,0.0,0.0,0.0,0.0,0.0,0.0,0.0,0.0,0.0,0.0,0.0,0.0,0.0,0.0,0.0,0.0,0.0,0.0,0.0,0.0,0.0,0.0,0.0,0.0,0.0,0.0,0.0,0.0,0.0,0.0,0.0,0.0,0.0,0.0,0.0,0.0,-3.7209,-3.7497,0.0,0.0,0.0,0.0,-3.6229,-3.6266,-3.6615,-3.7386,-3.7452,-3.7808,-3.8615,-3.8634,-3.867,-3.8707,-3.8707,-3.8707,-3.8707,-3.8707,-3.8707,-3.8707,-3.8943,-3.9099,-3.9125,-3.9457,-3.9775,-4.0061,-3.9675,-3.9071,-3.8395,-3.8357,-3.787,-3.7329,-3.8423,-3.8822,-3.8955,0.0,0.0,0.0,0.0,0.0,0.0,0.0,0.0,0.0,0.0,0.0,0.0,0.0,-2.9343,-3.1081,-3.1386,-3.2087,-3.2234,-3.1469,0.0,0.0,0.0,0.0,0.0,0.0,0.0,-3.2852,-3.3366,-3.366,-3.3807,-3.3807,-3.4074,-3.4379,-3.4714,-3.4981,-3.5035,-3.4889,-3.4889,-3.4312,-3.3363,-3.3347,-3.3165,0.0,0.0,0.0,0.0,0.0,0.0,0.0,0.0,0.0,0.0,0.0,0.0,0.0,0.0,0.0,0.0,0.0,0.0,0.0,0.0,0.0,0.0,0.0,0.0,0.0,0.0,0.0,0.0,0.0,0.0,0.0,0.0,0.0,0.0,0.0,0.0,0.0,-3.6972,-3.7336,0.0,-3.65,-3.6812,-3.7055,-3.7055,-3.7551,-3.7973,-3.8267,-3.8267,-3.8395,-3.8689,-3.8707,-3.8707,-3.8707,-3.8707,-3.8707,-3.8707,-3.8707,-3.8773,-3.8961,-3.9063,-3.9358,-3.9754,-3.988,-4.0101,-4.0356,-4.023,-4.0003,-3.9753,-3.9753,-3.9581,-3.9369,-3.978,-3.9931,-3.9986,0.0,0.0,0.0,0.0,0.0,0.0,0.0,0.0,0.0,0.0,0.0,-2.6433,-2.7584,-2.9914,-3.1601,-3.2145,-3.2939,-3.314,-3.2513,0.0,0.0,0.0,0.0,0.0,0.0,-3.2747,-3.3275,-3.3807,-3.3807,-3.3807,-3.3807,-3.4189,-3.4486,-3.4733,-3.5088,-3.532,-3.5493,-3.5493,-3.5053,-3.437,-3.416,-3.3878,-3.3513,0.0,0.0,0.0,0.0,0.0,0.0,0.0,0.0,0.0,0.0,0.0,0.0,0.0,0.0,0.0,0.0,0.0,0.0,0.0,0.0,0.0,0.0,0.0,0.0,0.0,0.0,0.0,0.0,0.0,0.0,0.0,0.0,0.0,0.0,-3.7229,-3.7742,-3.6795,-3.7497,-3.7679,-3.6791,-3.7514,-3.8032,-3.8032,-3.853,-3.8844,-3.8844,-3.8732,-3.8707,-3.8707,-3.8707,-3.8707,-3.8707,-3.8707,-3.8707,-3.8707,-3.8707,-3.8844,-3.908,-3.9212,-3.9576,-4.0101,-4.0195,-4.0339,-4.0489,-4.0489,-4.0489,-4.0489,-4.0489,-4.0489,-4.0489,-4.0489,-4.0489,-4.0489,0.0,0.0,0.0,0.0,0.0,0.0,0.0,0.0,0.0,0.0,-2.4936,-2.6343,-2.8283,-2.9509,-3.0834,-3.2394,-3.2577,-3.2748,-3.3117,-3.2484,0.0,0.0,0.0,0.0,-3.2651,-3.3403,-3.3807,-3.3807,-3.3807,-3.3807,-3.3815,-3.4416,-3.4694,-3.4714,-3.5273,-3.5493,-3.5493,-3.5493,-3.5493,-3.5397,-3.4297,-3.45,-3.5249,0.0,0.0,0.0,0.0,0.0,0.0,0.0,0.0,0.0,0.0,0.0,0.0,0.0,0.0,0.0,0.0,0.0,0.0,0.0,0.0,0.0,0.0,0.0,0.0,0.0,0.0,0.0,0.0,0.0,0.0,0.0,0.0,0.0,-3.7425,-3.7945,-3.8041,-3.692,-3.8175,-3.8683,-3.7647,-3.8498,-3.908,-3.9107,-3.9125,-3.9125,-3.9125,-3.8855,-3.8719,-3.8719,-3.8719,-3.8707,-3.8707,-3.8707,-3.8707,-3.8707,-3.8707,-3.8844,-3.9125,-3.9438,-3.9797,-4.012,-4.0389,-4.0489,-4.0489,-4.0489,-4.0489,-4.0489,-4.0489,-4.0489,-4.0489,-4.0489,-4.0489,-4.0489,0.0,0.0,0.0,0.0,0.0,0.0,0.0,0.0,0.0,0.0,-2.5083,-2.6215,-2.7869,-2.9341,-3.0393,-3.0815,-3.1935,-3.2397,-3.1934,0.0,0.0,0.0,0.0,0.0,-3.3458,-3.3697,-3.3807,-3.3807,-3.3807,-3.3807,-3.3815,-3.4416,-3.4694,-3.4714,-3.5273,-3.5493,-3.5493,-3.5493,-3.5493,-3.5474,-3.5163,-3.4831,-3.4564,0.0,0.0,0.0,0.0,0.0,0.0,0.0,0.0,0.0,0.0,0.0,0.0,0.0,0.0,0.0,0.0,0.0,0.0,0.0,0.0,0.0,0.0,0.0,0.0,0.0,0.0,0.0,0.0,0.0,0.0,0.0,-3.8263,-3.8784,-3.848,-3.9127,-3.9423,-3.887,-3.8976,-3.8979,-3.8683,-3.8933,-3.9186,-3.9438,-3.9462,-3.9462,-3.9462,-3.9383,-3.9249,-3.8999,-3.8999,-3.8913,-3.8707,-3.8707,-3.8707,-3.8707,-3.8707,-3.897,-3.9481,-3.9552,-3.9903,-4.0389,-4.0473,-4.0489,-4.0489,-4.0489,-4.0489,-4.0489,-4.0489,-4.0489,-4.0489,-4.0489,-4.0489,-4.0489,0.0,0.0,0.0,0.0,0.0,0.0,0.0,0.0,0.0,0.0,-2.5232,-2.6241,-2.7924,-2.905,-2.9843,-3.0173,-3.076,-3.1182,-3.1384,0.0,0.0,0.0,0.0,-3.2776,-3.3788,-3.3807,-3.3807,-3.3807,-3.3807,-3.3868,-3.3986,-3.4464,-3.4754,-3.4889,-3.5304,-3.5493,-3.5493,-3.5545,-3.5545,-3.5545,-3.5584,-3.5257,-3.4757,-3.4911,-3.4891,-3.4795,-3.4949,-3.5379,-3.5898,-3.5898,0.0,0.0,0.0,0.0,0.0,0.0,0.0,0.0,0.0,0.0,0.0,0.0,0.0,0.0,0.0,0.0,0.0,0.0,0.0,0.0,0.0,0.0,0.0,0.0,-3.9106,-3.9576,-3.9576,-3.9961,-4.0157,-3.984,-3.9645,-3.9462,-3.9314,-3.9457,-3.9599,-3.9797,-3.9797,-3.9797,-3.9797,-3.9668,-3.951,-3.9333,-3.9314,-3.9171,-3.8884,-3.8855,-3.8855,-3.8855,-3.8855,-3.9189,-3.9797,-3.9797,-4.0062,-4.0489,-4.0489,-4.0489,-4.0489,-4.0489,-4.0489,-4.0489,0.0,0.0,0.0,0.0,-4.0489,-4.0489,0.0,0.0,0.0,0.0,0.0,0.0,0.0,0.0,0.0,0.0,0.0,-2.6241,-2.8066,-2.8658,-2.9167,-2.9813,-2.9368,-2.974,0.0,0.0,0.0,-3.2136,-3.2529,-3.3073,-3.377,-3.3807,-3.3807,-3.3807,-3.3807,-3.3954,-3.42,-3.4551,-3.4832,-3.5105,-3.5403,-3.5526,-3.5526,-3.5584,-3.5597,-3.5618,-3.5676,-3.563,-3.5449,-3.4661,-3.4891,-3.5507,-3.4751,-3.5489,-3.6871,-3.6967,0.0,0.0,0.0,0.0,0.0,0.0,0.0,0.0,0.0,0.0,0.0,0.0,0.0,0.0,0.0,0.0,0.0,0.0,0.0,0.0,0.0,0.0,0.0,0.0,-3.9969,-4.0489,-4.0489,-4.0489,-4.0389,-4.0139,-4.0101,-3.9982,-3.9709,-3.9922,-4.012,-4.0139,-4.0139,-4.0139,-4.0139,-3.9861,0.0,0.0,0.0,-3.9505,-3.9178,-3.9178,-3.9178,-3.9178,-3.9178,-3.9505,-4.0101,-4.0101,-4.0251,-4.0489,-4.0489,-4.0489,-4.0489,-4.0489,-4.0489,-4.0489,-4.0489,-4.0489,-4.0489,-4.0489,-4.0489,-4.0489,0.0,0.0,0.0,0.0,0.0,0.0,0.0,0.0,0.0,-2.4394,-2.4948,-2.5789,-2.7355,-2.8112,-2.8316,-2.7834,-2.8811,-2.9898,0.0,0.0,-3.1726,-3.2454,-3.3193,-3.3642,-3.3807,-3.3807,-3.3807,-3.3807,-3.3807,-3.3954,-3.42,-3.4551,-3.4832,-3.5105,-3.5441,-3.5584,-3.5603,-3.5661,-3.5678,-3.5682,-3.5682,-3.5678,-3.5641,-3.5468,-3.5526,-3.5663,-3.5485,-3.5652,-3.606,-3.6767,-3.7117,-3.7331,-3.7883,0.0,0.0,0.0,0.0,0.0,0.0,0.0,0.0,0.0,0.0,0.0,0.0,0.0,0.0,0.0,0.0,0.0,0.0,0.0,0.0,-3.9258,-3.9969,-4.0489,-4.0489,-4.0489,-4.0389,-4.0139,-4.0101,-4.0081,-4.0002,-4.0061,-4.0195,-4.0425,-4.0406,-4.0406,-4.0406,-4.0353,-4.023,-4.0002,-4.0002,-3.984,-3.9505,-3.9486,-3.9486,-3.9486,-3.9486,0.0,-4.0101,-4.0101,-4.0251,-4.0489,-4.0489,-4.0489,-4.0489,-4.0489,-4.0489,-4.0489,-4.0489,-4.0489,-4.0489,-4.0489,-4.0489,-4.0489,0.0,0.0,0.0,0.0,0.0,0.0,0.0,0.0,0.0,0.0,-2.4282,-2.4969,-2.6068,-2.6694,-2.6849,-2.6437,-2.7648,0.0,0.0,-3.065,-3.1751,-3.2577,-3.3366,-3.3807,-3.3807,-3.3807,-3.3868,-3.4012,-3.4012,-3.4218,-3.4656,-3.4832,-3.5053,-3.5362,-3.5542,-3.5618,-3.5658,-3.5759,-3.5804,-3.5795,-3.5842,-3.5838,-3.5843,-3.5746,-3.5736,-3.5803,-3.5789,-3.6098,-3.657,-3.6999,-3.7721,-3.8447,-3.8447,-3.8701,-3.874,0.0,0.0,0.0,0.0,0.0,0.0,0.0,0.0,0.0,0.0,0.0,0.0,0.0,0.0,-3.8123,-3.8565,0.0,-3.9431,-3.9835,-4.0239,-4.0489,-4.0489,-4.0489,-4.0457,-4.0321,-4.0304,-4.0304,-4.0304,-4.0304,-4.0356,-4.0489,-4.0489,-4.0489,-4.0489,-4.0489,-4.0633,-4.0936,-4.0955,-4.0998,-4.1095,-4.1095,-4.1095,-4.1095,-4.0659,-4.0632,-4.0936,-4.0496,-4.0372,-4.0489,-4.0489,-4.0489,-4.0489,-4.0489,-4.0489,-4.0489,-4.0489,-4.0489,-4.0489,-4.0489,-4.0489,-4.0489,0.0,0.0,0.0,0.0,0.0,0.0,0.0,0.0,0.0,0.0,0.0,-2.4147,-2.489,-2.5304,-2.5508,0.0,0.0,0.0,0.0,-2.9965,-3.1604,-3.2577,-3.322,-3.3642,-3.3807,-3.3807,-3.391,-3.42,-3.42,-3.4513,-3.5105,-3.5107,-3.528,-3.5603,-3.5641,-3.5697,-3.576,-3.5862,-3.5925,-3.5913,-3.5978,-3.6006,-3.5986,-3.5811,-3.5834,-3.5916,-3.5916,-3.6411,-3.707,-3.7246,-3.8223,-3.9336,-3.8965,-3.914,-3.9188,-3.7681,-3.7598,0.0,0.0,0.0,0.0,0.0,0.0,0.0,0.0,-3.7353,-3.745,-3.8315,-3.8488,-3.87,-3.9392,-3.9527,-3.9738,-4.0392,-4.0489,-4.0489,-4.0489,-4.0489,-4.0489,-4.0489,-4.0489,-4.0489,-4.0489,-4.0489,-4.0489,-4.0489,-4.0662,-4.0739,-4.0739,-4.0912,-4.1335,-4.2027,-4.2047,-4.2251,-4.268,-4.2699,-4.2699,-4.268,-4.1992,-4.1798,-4.2027,-4.1335,-4.1008,-4.0989,-4.0816,-4.0739,-4.0739,-4.0566,-4.0489,-4.0489,-4.0489,-4.0489,-4.0489,-4.0489,-4.0489,-4.0489,0.0,0.0,0.0,0.0,0.0,0.0,0.0,0.0,0.0,0.0,0.0,0.0,0.0,0.0,0.0,0.0,0.0,0.0,-2.8254,-2.9582,-3.1017,-3.254,-3.2706,-3.3073,-3.377,-3.3807,-3.391,-3.42,-3.42,-3.4513,-3.5105,-3.515,-3.5343,-3.5622,-3.5795,-3.5861,-3.5881,-3.5968,-3.6002,-3.5997,-3.6001,-3.5995,-3.5995,-3.5975,-3.5973,-3.5989,-3.5989,-3.6052,-3.6269,-3.7031,-3.7422,-3.7832,-3.9297,-3.9276,-3.865,-3.828,-3.7666,-3.6901,-3.5795,-3.6252,-3.7212,-3.7964,-3.8141,-3.8529,0.0,-3.9706,-3.9311,-4.0081,-4.0219,-4.0239,-4.0335,-4.0354,-4.0392,-4.0489,-4.0489,-4.0489,-4.0489,-4.0489,-4.0489,-4.0489,-4.0489,-4.0489,-4.0489,-4.0489,-4.0489,-4.0489,-4.1219,-4.1662,-4.1662,-4.2393,-4.2854,-4.2951,-4.2951,-4.2972,-4.3032,-4.3032,-4.3032,-4.3032,-4.2956,-4.2934,-4.2951,-4.2854,-4.2816,-4.2777,-4.1989,-4.1662,-4.1585,-4.0816,-4.0489,-4.0489,-4.0489,-4.0489,-4.0489,-4.0489,-4.0489,-4.0489,0.0,0.0,0.0,0.0,0.0,0.0,0.0,0.0,0.0,0.0,0.0,0.0,0.0,0.0,0.0,0.0,0.0,0.0,-2.7287,-2.9148,-3.0705,-3.1843,-3.2357,-3.2981,-3.377,-3.3961,-3.4171,-3.4508,-3.4636,-3.4925,-3.532,-3.54,-3.5501,-3.5679,-3.583,-3.5908,-3.5967,-3.5987,-3.6001,-3.6006,-3.6009,-3.5996,-3.5996,-3.5996,-3.5684,-3.5234,-3.5234,-3.5234,0.0,0.0,-3.6113,-3.6756,-3.7994,-3.8433,-3.8364,-3.7732,-3.7617,-3.7728,-3.7844,-3.78,-3.7943,-3.8887,-3.9111,-3.928,-3.9946,-3.9811,-3.973,-4.0466,-4.062,-4.06,-4.0508,-4.0489,-4.0489,-4.0489,-4.0489,-4.0489,-4.0489,-4.0489,-4.0489,-4.0489,-4.0489,-4.0489,-4.0489,-4.095,-4.1258,-4.1258,-4.2066,-4.2566,-4.2566,-4.2893,-4.3316,-4.3778,-4.3797,-4.4047,-4.4547,-4.4547,-4.4547,-4.4547,-4.4047,-4.3797,-4.3778,-4.3316,-4.3104,-4.3085,-4.272,-4.2566,-4.2527,-4.2162,-4.17,-4.1258,-4.1258,-4.095,-4.0489,-4.0489,-4.0489,-4.0489,0.0,0.0,0.0,0.0,0.0,0.0,0.0,0.0,0.0,0.0,0.0,0.0,0.0,0.0,0.0,0.0,0.0,0.0,0.0,-2.8384,-2.9989,-3.1017,-3.1843,-3.2684,-3.3552,-3.3987,-3.4401,-3.4793,-3.4999,-3.5258,-3.5545,-3.5603,-3.5674,-3.5754,-3.5883,-3.5943,-3.5996,-3.5996,-3.5996,-3.5996,-3.5996,-3.5996,-3.5996,-3.5996,-3.5469,-3.4707,-3.4688,-3.4518,0.0,0.0,-3.4739,-3.5412,-3.6284,-3.6909,-3.7257,-3.6755,-3.703,-3.7676,-3.8609,-3.8604,-3.8542,-3.9472,-3.9912,-4.0095,-4.0012,-3.9996,-4.0126,-4.0617,-4.0733,-4.0696,-4.0581,-4.0581,-4.0562,-4.0508,-4.0543,-4.0543,-4.0508,-4.0489,-4.0489,-4.0489,-4.0489,-4.0585,-4.0835,-4.1431,-4.1797,-4.1797,-4.2816,-4.3431,-4.3431,-4.3662,-4.4066,-4.4643,-4.4662,-4.4951,-4.5586,-4.5586,-4.5586,-4.5586,-4.4951,-4.4662,-4.4643,-4.4066,-4.3797,-4.3778,-4.3547,-4.3431,-4.3412,-4.3181,-4.2739,-4.2162,-4.2162,-4.1758,-4.1232,-4.1232,-4.0908,-4.0489,0.0,0.0,0.0,0.0,0.0,0.0,0.0,0.0,0.0,0.0,0.0,0.0,0.0,0.0,0.0,0.0,0.0,0.0,0.0,-2.7232,-2.8576,-3.0173,-3.0999,-3.1942,-3.3003,-3.3808,-3.4492,-3.5088,-3.5105,-3.5277,-3.5603,-3.568,-3.5771,-3.5907,-3.5962,-3.5996,-3.5996,-3.5996,-3.5996,-3.5996,-3.5996,-3.5996,-3.5996,-3.5996,-3.5469,-3.4684,-3.4639,0.0,0.0,-3.3339,-3.3356,-3.3539,-3.4407,-3.4713,-3.4839,-3.5451,-3.5649,-3.5872,-3.6747,-3.7679,-3.8612,-3.9482,-4.0435,-4.1113,-4.0996,-4.0957,-4.0928,-4.0811,-4.0796,-4.0773,-4.0716,-4.0754,-4.0735,-4.0543,-4.062,-4.0658,-4.0508,-4.0489,-4.0489,-4.0489,-4.0489,-4.0835,-4.1681,-4.1777,-4.1797,-4.1797,-4.3335,-4.4259,-4.4259,-4.5047,-4.5528,-4.5547,-4.5547,-4.5566,-4.5586,-4.5586,-4.5586,-4.5586,-4.5566,-4.5547,-4.5547,-4.5528,-4.5509,-4.547,-4.4624,-4.4259,-4.4201,-4.3412,-4.3085,-4.3066,-4.3066,-4.3041,-4.3015,-4.3015,-4.1959,-4.0489,0.0,0.0,0.0,0.0,0.0,0.0,0.0,0.0,0.0,0.0,0.0,0.0,0.0,0.0,0.0,0.0,0.0,0.0,0.0,-2.6957,-2.8281,-3.0136,-3.0962,-3.1906,-3.2989,-3.4011,-3.4715,-3.5105,-3.5289,-3.5456,-3.5603,-3.5667,-3.5773,-3.5913,-3.5966,-3.5996,-3.5996,-3.5996,-3.5996,-3.5996,-3.5996,-3.5996,-3.5996,-3.5996,-3.5067,-3.3759,0.0,0.0,0.0,-3.2393,-3.2377,-3.2512,-3.3402,-3.3644,-3.3737,-3.4501,-3.5572,-3.667,-3.7621,-3.8554,-3.9482,-4.0467,-4.0943,-4.1191,-4.1133,-4.1133,-4.1093,-4.0962,-4.0442,-3.9966,-3.9871,-3.9849,-3.985,-3.9773,-4.0292,-4.0677,-4.0639,-4.0562,-4.0489,-4.0489,-4.0489,-4.0835,-4.172,-4.2316,-4.2874,-4.3412,-4.4509,-4.5163,-4.5163,-4.5432,-4.5586,-4.5586,-4.5586,-4.5586,-4.5586,-4.5586,-4.5622,-4.5676,-4.5671,-4.5668,-4.5668,-4.5668,-4.5668,-4.5648,-4.5359,-4.5244,-4.5224,-4.4954,-4.4511,-4.4029,-4.4029,-4.3682,-4.3177,-4.3177,-4.2811,-4.2294,0.0,0.0,0.0,0.0,0.0,0.0,0.0,0.0,0.0,0.0,0.0,0.0,0.0,0.0,0.0,0.0,0.0,0.0,0.0,0.0,-2.7476,-2.8847,-3.0246,-3.1381,-3.2266,-3.3275,-3.4282,-3.5239,-3.5105,-3.5238,-3.5603,-3.5659,-3.5772,-3.5899,-3.5977,-3.5996,-3.5996,-3.5996,-3.5996,-3.5996,-3.5996,-3.5792,-3.5494,-3.5494,-3.438,0.0,0.0,0.0,0.0,-3.1415,-3.1419,-3.1526,-3.2097,-3.2677,-3.3352,-3.4462,-3.5861,-3.728,-3.8535,-3.9309,-3.9991,-4.0951,-4.1191,-4.1191,-4.1191,-4.1191,-4.1172,-4.1094,-4.0306,-3.9597,-3.9486,-3.949,-3.936,-3.8965,-3.9689,-4.0275,-4.0246,-4.0158,-4.0215,-4.0543,-4.0581,-4.1008,-4.2162,-4.2777,-4.3431,-4.4239,-4.5105,-4.5586,-4.5586,-4.5586,-4.5586,-4.5586,-4.5586,-4.5603,-4.564,-4.564,-4.5657,-4.5706,-4.57,-4.57,-4.57,-4.57,-4.57,-4.57,-4.57,-4.57,-4.57,-4.57,-4.5391,-4.4928,-4.4928,-4.4596,-4.4129,-4.4129,-4.4143,-4.4028,0.0,0.0,0.0,0.0,0.0,0.0,0.0,0.0,0.0,0.0,0.0,0.0,0.0,0.0,0.0,0.0,0.0,0.0,0.0,0.0,0.0,-2.6551,-2.8847,-3.0379,-3.0918,-3.1751,-3.3215,-3.5359,-3.4551,-3.4628,-3.5545,-3.563,-3.5753,-3.5898,-3.5957,-3.5996,-3.5996,-3.5996,-3.5976,-3.5918,-3.5937,-3.5378,-3.4527,-3.4523,0.0,0.0,0.0,0.0,0.0,-3.0506,-3.0575,-3.0683,-3.076,-3.1969,-3.3651,-3.5303,-3.6516,-3.7693,-3.9283,-3.9844,-4.0176,-4.0996,-4.1191,-4.1191,-4.1191,-4.1191,-4.1191,-4.1132,-4.0322,-3.9579,-3.9488,-3.9546,-3.9282,-3.8185,-3.8956,-3.9634,-3.9499,-3.9475,-3.9764,-4.0611,-4.075,-4.1389,-4.2951,-4.3143,-4.3508,-4.4316,-4.5124,-4.5586,-4.5586,-4.5586,-4.5586,-4.5586,-4.5603,-4.564,-4.5693,-4.5709,-4.5706,-4.5715,-4.5715,-4.5715,-4.5715,-4.5715,-4.5715,-4.5715,-4.5715,-4.5715,-4.5715,-4.5715,-4.5715,-4.5715,-4.5715,-4.5731,-4.5815,-4.5815,-4.581,-4.5568,0.0,0.0,0.0,0.0,0.0,0.0,0.0,0.0,0.0,0.0,0.0,0.0,0.0,0.0,0.0,0.0,0.0,0.0,0.0,0.0,0.0,0.0,0.0,0.0,0.0,0.0,0.0,0.0,0.0,-3.4151,-3.4653,-3.5316,-3.567,-3.5768,-3.5872,-3.5868,-3.5792,-3.5932,-3.5577,-3.4896,0.0,-3.4384,-3.3565,0.0,0.0,0.0,0.0,0.0,-3.0417,-3.0487,-3.0985,-3.179,-3.3106,-3.4268,-3.5352,-3.6485,-3.7881,-3.9173,-3.9711,-4.0344,-4.0918,-4.1133,-4.1191,-4.1191,-4.1191,-4.1191,-4.0986,-4.0246,-3.9316,-3.8443,-3.7733,-3.8175,-3.8556,-3.8277,-3.9585,-4.0636,-4.0602,-4.0521,-4.0539,-4.0752,-4.1299,-4.2082,-4.3079,-4.3679,-4.4355,-4.5201,-4.547,-4.5586,-4.5586,-4.5586,-4.5586,-4.5586,-4.564,-4.5693,-4.5693,-4.5738,-4.5765,-4.5765,-4.5757,-4.5771,-4.5771,-4.5771,-4.5771,-4.5771,-4.5771,-4.5771,-4.5771,-4.5771,-4.5771,-4.5771,-4.5771,-4.5786,-4.5805,-4.5916,-4.5955,-4.5877,0.0,0.0,0.0,0.0,0.0,0.0,0.0,0.0,0.0,0.0,0.0,0.0,0.0,0.0,0.0,0.0,0.0,0.0,0.0,0.0,0.0,0.0,0.0,0.0,0.0,0.0,0.0,0.0,0.0,0.0,0.0,-3.409,-3.4518,-3.4555,-3.4665,-3.4664,-3.4607,0.0,0.0,0.0,0.0,0.0,0.0,0.0,0.0,0.0,0.0,0.0,-3.1118,-3.1536,-3.2046,-3.2695,-3.3711,-3.4889,-3.6072,-3.6988,-3.8454,-3.9883,-4.0347,-4.082,-4.1191,-4.1191,-4.1191,-4.1094,-4.0723,-4.0581,-4.0264,-3.9322,-3.8365,-3.7538,-3.7038,-3.7698,-3.8163,-3.779,-3.9252,-4.0431,-4.043,-4.0362,-4.0459,-4.0838,-4.1629,-4.2438,-4.3208,-4.4006,-4.4814,-4.568,-4.5699,-4.5643,-4.5586,-4.5643,-4.5661,-4.564,-4.5693,-4.5726,-4.5738,-4.5785,-4.5795,-4.5791,-4.58,-4.58,-4.58,-4.58,-4.58,-4.58,-4.58,-4.58,-4.58,-4.58,-4.58,-4.58,-4.58,-4.5838,-4.5896,-4.5969,-4.6016,-4.6033,0.0,0.0,0.0,0.0,0.0,0.0,0.0,0.0,0.0,0.0,0.0,0.0,0.0,0.0,0.0,0.0,0.0,0.0,0.0,0.0,0.0,0.0,0.0,0.0,0.0,0.0,0.0,0.0,0.0,0.0,0.0,0.0,0.0,0.0,0.0,0.0,0.0,0.0,0.0,0.0,0.0,0.0,0.0,0.0,0.0,0.0,0.0,0.0,0.0,-3.29,-3.3324,-3.3557,-3.3951,-3.5137,-3.6543,-3.7539,-3.8887,-4.0234,-4.0996,-4.1191,-4.1191,-4.1191,-4.1191,-4.0976,-4.0072,-3.9774,-3.9397,-3.8406,-3.7506,-3.6881,-3.6804,-3.7527,-3.792,-3.7284,-3.8609,-3.9764,-3.9885,-3.9905,-4.0178,-4.0935,-4.1875,-4.2717,-4.3349,-4.4307,-4.5144,-4.5841,-4.5868,-4.5774,-4.5651,-4.5753,-4.5774,-4.5693,-4.5709,-4.5722,-4.58,-4.5815,-4.581,-4.58,-4.5819,-4.5819,-4.58,-4.58,-4.58,-4.58,-4.58,-4.58,-4.5819,-4.5819,-4.5819,-4.5838,-4.5838,-4.591,-4.6007,-4.6027,-4.605,-4.6107,0.0,0.0,0.0,0.0,0.0,0.0,0.0,0.0,0.0,0.0,-2.1086,-2.1244,0.0,0.0,0.0,0.0,0.0,0.0,0.0,0.0,0.0,0.0,0.0,0.0,0.0,0.0,0.0,0.0,-3.062,0.0,0.0,0.0,0.0,0.0,0.0,0.0,0.0,0.0,0.0,0.0,0.0,0.0,0.0,0.0,0.0,0.0,0.0,0.0,0.0,0.0,-3.3754,-3.4834,-3.7011,-3.791,-3.8457,-4.0059,-4.0742,-4.1016,-4.1152,-4.1191,-4.1191,-4.1191,-4.1191,-4.0947,-3.9956,-3.9721,-3.9224,-3.7506,-3.703,-3.667,-3.5892,-3.6559,-3.7413,-3.7975,-3.9078,-4.0116,-4.0848,-4.0943,-4.1008,-4.1152,-4.2461,-4.3416,-4.3557,-4.4857,-4.5745,-4.589,-4.5989,-4.5982,-4.5861,-4.5834,-4.5774,-4.5693,-4.5703,-4.5735,-4.58,-4.5921,-4.5916,-4.58,-4.591,-4.591,-4.58,-4.58,-4.58,-4.58,-4.58,-4.5858,-4.5969,-4.5969,-4.6007,-4.6046,-4.6046,-4.6065,-4.6085,-4.6143,-4.617,-4.6189,0.0,0.0,0.0,0.0,0.0,0.0,0.0,-1.9726,-1.9909,-2.055,-2.0616,-2.0975,-2.1869,-2.1957,-2.2032,0.0,0.0,0.0,0.0,0.0,0.0,0.0,0.0,0.0,0.0,-2.7163,-2.7899,-2.8108,0.0,-3.0037,-2.9804,-3.0892,-3.1397,-3.1397,-3.1604,0.0,0.0,0.0,0.0,0.0,0.0,0.0,0.0,0.0,0.0,0.0,0.0,0.0,0.0,0.0,-3.3824,-3.5039,-3.7226,-3.8223,-3.8848,-4.0156,-4.084,-4.1191,-4.1191,-4.1191,-4.1191,-4.1191,-4.1191,-4.0826,-3.9364,-3.9012,-3.8458,-3.6593,-3.6194,-3.604,-3.5641,-3.6315,-3.7104,-3.7552,-3.8843,-3.9941,-4.0351,-4.0879,-4.1191,-4.1191,-4.2656,-4.3652,-4.3652,-4.5148,-4.6105,-4.6119,-4.6177,-4.6116,-4.5909,-4.5844,-4.5794,-4.5806,-4.5742,-4.5731,-4.5791,-4.5907,-4.5887,-4.58,-4.5949,-4.5969,-4.5896,-4.5896,-4.5896,-4.591,-4.5949,-4.5969,-4.5988,-4.603,-4.6065,-4.6104,-4.6104,-4.6123,-4.6162,-4.6201,-4.6219,-4.6255,0.0,0.0,0.0,0.0,0.0,0.0,0.0,-1.969,-1.9839,-2.0246,-2.0382,-2.0878,-2.2032,-2.2135,-2.218,0.0,0.0,0.0,0.0,0.0,0.0,0.0,0.0,0.0,0.0,0.0,0.0,-2.7081,-2.8646,0.0,0.0,0.0,0.0,0.0,-3.0196,-3.0311,-3.0311,0.0,0.0,0.0,0.0,-3.0398,0.0,0.0,0.0,0.0,0.0,-3.0883,-3.1665,-3.2743,-3.3619,-3.4627,-3.6612,-3.7721,-3.8495,-3.9522,-4.0324,-4.0894,-4.1093,-4.1131,-4.1123,-4.1147,-4.1136,-4.0625,-3.8767,-3.8329,-3.7756,-3.5949,-3.5545,-3.5526,-3.5584,-3.6155,-3.6704,-3.6947,-3.8185,-3.9264,-3.9648,-4.0371,-4.0957,-4.1172,-4.2676,-4.3691,-4.3691,-4.5273,-4.6288,-4.63,-4.6299,-4.6203,-4.5969,-4.5886,-4.5887,-4.5902,-4.58,-4.5789,-4.5844,-4.5931,-4.5935,-4.5873,-4.5996,-4.6046,-4.6027,-4.6022,-4.6009,-4.6009,-4.6093,-4.6085,-4.606,-4.6105,-4.613,-4.6142,-4.6142,-4.6174,-4.6208,-4.6208,-4.6255,-4.6308,0.0,0.0,0.0,0.0,0.0,0.0,0.0,-1.969,-1.9839,-2.0246,-2.0682,-2.1118,-2.1628,-2.1658,-2.184,0.0,0.0,0.0,0.0,0.0,0.0,0.0,0.0,0.0,0.0,0.0,0.0,-2.7721,-2.8843,0.0,0.0,0.0,0.0,0.0,0.0,-3.0047,-3.0042,-3.0299,0.0,0.0,0.0,0.0,0.0,0.0,0.0,0.0,0.0,-3.0467,-3.0794,-3.2519,-3.3159,-3.3677,-3.6227,-3.7171,-3.7626,-3.9174,-3.9668,-3.9922,-4.0796,-4.0925,-4.0863,-4.0978,-4.0925,-4.038,-3.8633,-3.8209,-3.7695,-3.5872,-3.5493,-3.5493,-3.5526,-3.5622,-3.5982,-3.6768,-3.7096,-3.7812,-3.9469,-3.9785,-4.0176,-4.1094,-4.2676,-4.3691,-4.3691,-4.5273,-4.6306,-4.6303,-4.6306,-4.6248,-4.6092,-4.607,-4.6021,-4.5907,-4.5938,-4.5986,-4.5982,-4.61,-4.6143,-4.6076,-4.6143,-4.6143,-4.6085,-4.6085,-4.6096,-4.6088,-4.6092,-4.6123,-4.6181,-4.6189,-4.6227,-4.6288,-4.6288,-4.6287,-4.6285,-4.6285,-4.6288,-4.6308,0.0,0.0,0.0,0.0,0.0,0.0,-1.969,-1.969,-1.9945,-2.0616,-2.0894,-2.126,-2.1945,-2.2032,-2.2106,-2.2282,0.0,0.0,0.0,0.0,0.0,0.0,0.0,0.0,0.0,0.0,-2.6312,-2.6772,-2.8382,0.0,0.0,0.0,0.0,0.0,0.0,-2.9813,-2.9829,-3.0061,0.0,0.0,0.0,0.0,0.0,0.0,0.0,0.0,0.0,0.0,-3.0602,-3.1833,-3.2535,-3.3157,-3.4805,-3.5643,-3.6473,-3.8891,-3.9611,-3.9797,-4.0645,-4.0846,-4.08,-4.0877,-4.0467,-3.9753,-3.8488,-3.7786,-3.7055,-3.5776,-3.5493,-3.5493,-3.5493,-3.5526,-3.5661,-3.6001,-3.6554,-3.7179,-3.7907,-3.8955,-3.979,-4.0234,-4.2285,-4.3652,-4.3691,-4.5273,-4.6308,-4.6308,-4.6308,-4.6289,-4.6211,-4.6133,-4.6083,-4.6086,-4.6027,-4.6022,-4.6055,-4.6151,-4.6174,-4.6098,-4.617,-4.618,-4.6162,-4.615,-4.6158,-4.6153,-4.6197,-4.621,-4.6209,-4.6244,-4.6284,-4.6308,-4.6308,-4.6308,-4.6308,-4.6308,-4.6308,-4.6308,0.0,0.0,0.0,0.0,0.0,-1.9726,-1.969,-1.969,-1.9909,-2.0548,-2.0829,-2.1229,-2.1857,-2.2152,-2.231,-2.231,-2.231,0.0,0.0,0.0,0.0,0.0,0.0,0.0,0.0,0.0,-2.5991,-2.6103,-2.8054,-2.8994,0.0,0.0,-2.9289,-2.9289,0.0,0.0,0.0,0.0,0.0,0.0,0.0,0.0,0.0,0.0,0.0,0.0,0.0,0.0,0.0,0.0,0.0,-3.2403,-3.3601,0.0,0.0,-3.7928,-3.8926,-3.93,-4.0162,-4.0552,-4.0729,-4.0757,-4.0154,-3.9268,-3.8349,-3.7464,-3.6579,-3.5699,-3.5493,-3.5493,-3.5493,-3.5493,-3.5493,0.0,-3.6059,-3.6573,-3.6862,-3.8009,-3.901,-3.9604,-4.1518,-4.304,-4.3613,-4.5273,-4.6308,-4.6308,-4.6308,-4.6308,-4.6308,-4.6211,-4.6172,-4.623,-4.6136,-4.6117,-4.6158,-4.6216,-4.6216,-4.6158,-4.6205,-4.6222,-4.6222,-4.6222,-4.6222,-4.623,-4.6289,-4.6277,-4.6231,-4.6273,-4.6308,-4.6308,-4.6308,-4.6308,-4.6308,-4.6308,-4.6308,-4.6308,0.0,0.0,0.0,0.0,0.0,0.0,-1.9726,-1.969,-1.969,-1.9711,-2.0465,-2.0991,-2.0991,-2.1781,-2.231,-2.231,-2.231,0.0,0.0,0.0,0.0,0.0,0.0,0.0,0.0,0.0,-2.5779,-2.6103,-2.8054,-2.8994,-2.8994,-2.9017,-2.9017,-2.9017,0.0,0.0,0.0,0.0,0.0,0.0,0.0,0.0,0.0,0.0,0.0,0.0,0.0,0.0,0.0,0.0,0.0,0.0,0.0,0.0,0.0,0.0,-3.7334,-3.8219,-3.9165,-3.995,-4.0523,-4.0677,-4.0004,-3.9065,-3.82,-3.7334,-3.6469,-3.568,-3.5493,-3.5493,-3.5493,-3.5493,-3.5493,-3.5493,-3.5526,-3.5834,-3.6766,-3.6914,-3.7593,-3.9392,-4.04,-4.1635,-4.3437,-4.5234,-4.6308,-4.6308,-4.6308,-4.6308,-4.6308,-4.6308,-4.6308,-4.6308,-4.6308,-4.6308,-4.6308,-4.6308,-4.6308,-4.6308,-4.6308,-4.6308,-4.6308,-4.6308,-4.6308,-4.6308,-4.6308,-4.6308,-4.6308,-4.6308,-4.6308,-4.6308,-4.6308,-4.6308,-4.6308,-4.6308,-4.6308,-4.6308,0.0,0.0,0.0,0.0,0.0,0.0,0.0,-1.9726,-1.9818,-2.0054,-2.0348,-2.0748,-2.1337,-2.1658,-2.1957,-2.2282,-2.231,0.0,0.0,0.0,0.0,0.0,0.0,0.0,0.0,0.0,0.0,0.0,-2.7669,-2.8725,-2.8994,-2.8994,-2.8994,-2.9017,-2.9089,-2.9134,0.0,0.0,0.0,0.0,0.0,0.0,-2.9696,0.0,0.0,0.0,0.0,0.0,0.0,0.0,0.0,0.0,0.0,0.0,0.0,0.0,-3.6058,-3.7037,-3.7936,-3.8457,-3.8796,-3.8834,-3.8051,-3.7171,-3.6903,-3.6214,-3.5529,-3.528,-3.5369,-3.5493,-3.5493,-3.5493,-3.5493,-3.5493,-3.5493,-3.5603,-3.5892,-3.6944,-3.8099,-3.933,-4.1884,-4.4054,-4.5311,-4.5957,-4.6308,-4.6308,-4.6308,-4.6308,-4.6308,-4.6308,-4.6308,-4.6308,-4.6308,-4.6308,-4.6308,-4.6308,-4.6308,-4.6308,-4.6308,-4.6308,-4.6308,-4.6308,-4.6308,-4.6308,-4.6308,-4.6308,-4.6308,-4.6308,-4.6308,-4.6308,-4.6308,-4.6308,-4.6308,-4.6308,-4.6308,-4.6308,0.0,0.0,0.0,0.0,0.0,0.0,0.0,-1.9848,-1.9889,-2.0154,-2.0311,-2.0632,-2.115,-2.1337,-2.1598,-2.2077,-2.2077,0.0,0.0,0.0,0.0,0.0,0.0,0.0,0.0,0.0,0.0,0.0,0.0,0.0,-2.8773,-2.8773,-2.8863,-2.8994,-2.8994,-2.8994,0.0,0.0,0.0,0.0,0.0,0.0,-2.9436,0.0,0.0,0.0,0.0,0.0,0.0,0.0,0.0,0.0,0.0,0.0,0.0,0.0,-3.4666,-3.5722,-3.6692,-3.7317,-3.7689,-3.7689,-3.6916,-3.6141,-3.6141,-3.5533,-3.4944,-3.4944,-3.5088,-3.5207,-3.5207,-3.5289,-3.5354,-3.5354,-3.5432,-3.5622,-3.5911,-3.6853,-3.8084,-3.9619,-4.2756,-4.5016,-4.5633,-4.6052,-4.6308,-4.6308,-4.6308,-4.6308,-4.6308,-4.6308,-4.6308,-4.6308,-4.6308,-4.6308,-4.6308,-4.6308,-4.6308,-4.6308,-4.6308,-4.6308,-4.6308,-4.6308,-4.6308,-4.6308,-4.6308,-4.6308,0.0,-4.6308,-4.6308,-4.6308,-4.6308,-4.6308,-4.6308,-4.6308,-4.6308,-4.6308,0.0,0.0,0.0,0.0,0.0,0.0,0.0,-1.999,-2.0005,-2.0005,-2.0308,-2.0563,-2.0597,-2.0862,-2.1244,-2.1721,0.0,0.0,0.0,0.0,0.0,0.0,0.0,0.0,0.0,0.0,0.0,-2.5177,-2.6986,-2.802,-2.835,0.0,-2.8565,-2.8929,-2.8929,-2.8929,0.0,0.0,0.0,0.0,0.0,0.0,0.0,0.0,0.0,0.0,0.0,0.0,0.0,0.0,0.0,0.0,0.0,0.0,0.0,0.0,0.0,0.0,0.0,-3.6375,-3.7022,-3.7022,-3.6394,-3.5788,-3.5788,-3.5202,0.0,-3.4674,-3.4674,-3.4694,-3.4694,-3.4926,-3.5088,-3.5088,-3.5304,-3.5762,-3.6555,-3.6897,-3.795,-4.0315,-4.3086,-4.4767,-4.4713,-4.5665,-4.6289,-4.6308,-4.6308,-4.6308,-4.6308,-4.6308,-4.6308,-4.6308,-4.6308,-4.6308,-4.6308,-4.6308,-4.6308,-4.6308,-4.6308,-4.6308,-4.6308,-4.6308,-4.6308,-4.6308,-4.6308,-4.6308,-4.6308,-4.6308,-4.6308,-4.6308,-4.6308,-4.6308,-4.6308,-4.6308,-4.6308,-4.6308,0.0,0.0,0.0,0.0,0.0,0.0,0.0,0.0,0.0,0.0,-2.0061,-2.0254,-2.0563,-2.0681,-2.091,0.0,0.0,0.0,0.0,0.0,0.0,0.0,0.0,0.0,0.0,0.0,0.0,-2.5947,-2.6956,-2.7648,-2.8037,-2.8037,0.0,0.0,-2.8147,0.0,0.0,0.0,0.0,0.0,0.0,0.0,0.0,0.0,0.0,0.0,-2.8994,-2.8994,0.0,0.0,0.0,0.0,0.0,0.0,0.0,0.0,-3.3217,-3.3939,-3.4227,0.0,-3.5299,-3.5299,-3.4943,-3.4596,0.0,-3.4465,-3.4334,-3.4334,-3.4529,-3.4694,-3.4694,-3.4926,-3.5016,-3.4832,-3.519,-3.5701,-3.6313,-3.8818,-4.0854,-4.1566,-4.3952,-4.5367,-4.4904,-4.5643,-4.6191,-4.6289,-4.6308,-4.6308,-4.6308,-4.6308,-4.6308,-4.6308,-4.6308,-4.6308,-4.6308,-4.6308,-4.6308,-4.6308,-4.6308,-4.6308,-4.6308,-4.6308,-4.6308,-4.6308,-4.6308,-4.6308,-4.6308,-4.6308,-4.6308,-4.6308,-4.6308,-4.6308,-4.6308,-4.6308,-4.6308,-4.6308,0.0,0.0,0.0,0.0,0.0,0.0,0.0,0.0,0.0,0.0,0.0,-2.0235,-2.046,-2.041,0.0,0.0,0.0,0.0,0.0,0.0,0.0,0.0,0.0,0.0,0.0,0.0,0.0,0.0,0.0,-2.7241,0.0,0.0,0.0,0.0,0.0,0.0,0.0,0.0,0.0,0.0,-2.8264,0.0,0.0,0.0,0.0,0.0,-2.8658,-2.8707,0.0,-2.8929,-2.8994,-2.9067,0.0,0.0,0.0,0.0,-3.2889,-3.3807,-3.3807,-3.4055,-3.4302,-3.4302,-3.4141,-3.4018,-3.4018,-3.4018,-3.4018,-3.4018,-3.4141,-3.4307,-3.4464,-3.5018,-3.5344,-3.4946,-3.5889,-3.6887,-3.7581,-3.9714,-4.1527,-4.2393,-4.4102,-4.524,-4.5354,-4.5818,-4.6152,-4.6289,-4.6308,-4.6308,-4.6308,-4.6308,-4.6308,-4.6308,-4.6308,-4.6308,-4.6308,-4.6308,-4.6308,-4.6308,-4.6308,-4.6308,-4.6308,-4.6308,-4.6308,-4.6308,-4.6308,-4.6308,-4.6308,-4.6308,-4.6308,-4.6308,-4.6308,-4.6308,-4.6308,-4.6308,-4.6308,-4.6308,0.0,0.0,0.0,0.0,0.0,0.0,0.0,0.0,0.0,0.0,0.0,0.0,0.0,0.0,0.0,0.0,0.0,0.0,0.0,0.0,0.0,0.0,0.0,0.0,0.0,0.0,0.0,0.0,0.0,0.0,0.0,0.0,-2.7378,0.0,0.0,0.0,0.0,0.0,0.0,0.0,-2.8084,0.0,0.0,0.0,0.0,0.0,0.0,0.0,0.0,-2.8725,-2.8881,-2.8905,-2.8905,0.0,0.0,0.0,0.0,0.0,-3.3807,-3.3899,-3.3954,-3.3825,-3.3807,-3.3807,-3.3807,0.0,-3.3807,-3.3807,-3.3807,-3.3913,-3.432,-3.5127,-3.5626,-3.5284,-3.6763,-3.8304,-3.9335,-4.0296,-4.1431,-4.2912,-4.4025,-4.493,-4.5622,-4.592,-4.6131,-4.6269,-4.6289,-4.6308,-4.6308,-4.6308,-4.6308,-4.6308,-4.6308,-4.6308,-4.6308,-4.6308,-4.6308,-4.6308,-4.6308,-4.6308,-4.6308,-4.6308,-4.6308,-4.6308,-4.6308,-4.6308,-4.6308,-4.6308,-4.6308,-4.6308,-4.6308,-4.6308,-4.6308,-4.6308,-4.6308,-4.6308,0.0,0.0,0.0,0.0,0.0,0.0,0.0,0.0,0.0,0.0,0.0,0.0,0.0,0.0,0.0,0.0,0.0,0.0,0.0,0.0,0.0,0.0,0.0,0.0,0.0,0.0,0.0,0.0,0.0,0.0,-2.6791,-2.6791,-2.6825,-2.6873,0.0,0.0,0.0,0.0,0.0,0.0,-2.7317,0.0,0.0,0.0,0.0,0.0,0.0,0.0,0.0,-2.8065,-2.8255,-2.8471,-2.8471,0.0,0.0,0.0,0.0,0.0,-3.3807,-3.4302,-3.4642,-3.3972,-3.3807,-3.3807,-3.3807,0.0,-3.3807,-3.3807,-3.3807,-3.4123,-3.5107,-3.5071,-3.5073,-3.5681,-3.6843,-3.8278,-4.0069,-4.1681,-4.2797,-4.3066,-4.447,-4.5238,-4.4757,-4.5459,-4.5991,-4.6113,-4.623,-4.6308,-4.6308,-4.6308,-4.6308,-4.6308,-4.6308,-4.6308,-4.6308,-4.6308,-4.6308,-4.6308,-4.6308,-4.6308,-4.6308,-4.6308,-4.6308,-4.6308,-4.6308,-4.6308,-4.6308,-4.6308,-4.6308,-4.6308,-4.6308,-4.6308,-4.6308,-4.6308,-4.6308,-4.6308,0.0,0.0,0.0,0.0,0.0,0.0,0.0,0.0,0.0,0.0,0.0,0.0,0.0,0.0,0.0,0.0,0.0,0.0,0.0,0.0,0.0,0.0,0.0,0.0,0.0,0.0,0.0,0.0,0.0,-2.6691,-2.6691,-2.6691,-2.6691,-2.6691,0.0,0.0,0.0,0.0,0.0,0.0,0.0,0.0,0.0,0.0,0.0,0.0,0.0,0.0,0.0,0.0,-2.8129,-2.8368,-2.8183,0.0,0.0,0.0,0.0,0.0,-3.3807,-3.4082,-3.4376,-3.4431,-3.4924,-3.541,-3.5589,0.0,-3.5459,-3.4853,-3.471,-3.4903,-3.5589,-3.5916,-3.6574,-3.8117,-3.8068,-3.8607,-4.0877,-4.1489,-4.22,-4.3585,-4.4432,-4.497,-4.518,-4.5626,-4.5959,-4.6093,-4.6211,-4.6308,-4.6308,-4.6308,-4.6308,-4.6308,-4.6308,-4.6308,-4.6308,-4.6308,-4.6308,-4.6308,-4.6308,-4.6308,-4.6308,-4.6308,-4.6308,-4.6308,-4.6308,-4.6308,-4.6308,-4.6308,-4.6308,-4.6308,-4.6308,-4.6308,-4.6308,-4.6308,-4.6308,-4.6308,0.0,0.0,0.0,0.0,0.0,0.0,0.0,0.0,0.0,0.0,0.0,0.0,0.0,0.0,0.0,0.0,0.0,0.0,0.0,0.0,-2.3985,-2.4712,-2.5304,0.0,0.0,0.0,-2.6133,-2.6691,-2.6691,-2.6691,-2.6691,-2.6691,-2.6691,-2.6691,0.0,0.0,-2.6691,-2.6691,0.0,0.0,0.0,0.0,0.0,0.0,0.0,0.0,0.0,0.0,0.0,0.0,0.0,0.0,0.0,0.0,0.0,-3.0939,-3.2201,-3.368,-3.3762,-3.3935,-3.4256,-3.4944,-3.5592,0.0,0.0,0.0,0.0,-3.6016,-3.5895,-3.5968,-3.6249,-3.688,-3.7909,-3.9567,-3.8958,-3.9181,-4.1758,-4.1527,-4.197,-4.4335,-4.4605,-4.4913,-4.5719,-4.5853,-4.5963,-4.608,-4.6225,-4.6308,-4.6308,-4.6308,-4.6308,-4.6308,-4.6308,-4.6308,-4.6308,-4.6308,-4.6308,-4.6308,-4.6308,-4.6308,-4.6308,-4.6308,-4.6308,-4.6308,-4.6308,-4.6308,-4.6308,-4.6308,-4.6308,-4.6308,-4.6308,-4.6308,-4.6308,-4.6308,-4.6308,-4.6308,0.0,0.0,0.0,0.0,0.0,0.0,0.0,0.0,0.0,0.0,0.0,0.0,0.0,0.0,0.0,0.0,0.0,0.0,0.0,0.0,-2.4729,-2.549,-2.5575,0.0,0.0,-2.6268,-2.664,-2.6691,-2.6691,-2.6691,-2.6691,-2.6691,-2.6691,-2.6691,0.0,-2.6691,-2.6691,-2.6691,-2.6691,-2.6691,0.0,0.0,0.0,0.0,0.0,0.0,0.0,0.0,0.0,0.0,0.0,0.0,0.0,0.0,-3.0368,-3.08,-3.2014,-3.3332,-3.3707,-3.4357,-3.5009,-3.5374,-3.4722,0.0,-3.6317,-3.6155,0.0,-3.688,-3.7095,-3.7158,-3.7432,-3.7737,-3.7897,-3.7825,-3.861,-4.0104,-4.2643,-4.2951,-4.3566,-4.5297,-4.5509,-4.5566,-4.5776,-4.5853,-4.5965,-4.6089,-4.6222,-4.6308,-4.6308,-4.6308,-4.6308,-4.6308,-4.6308,-4.6308,-4.6308,-4.6308,-4.6308,-4.6308,-4.6308,-4.6308,-4.6308,-4.6308,-4.6308,-4.6308,-4.6308,-4.6308,-4.6308,-4.6308,-4.6308,-4.6308,-4.6308,-4.6308,-4.6308,-4.6308,-4.6308,-4.6308,0.0,0.0,0.0,0.0,0.0,0.0,0.0,0.0,0.0,0.0,0.0,0.0,0.0,0.0,0.0,0.0,0.0,0.0,0.0,0.0,-2.5507,-2.6251,-2.6285,-2.6168,-2.5914,-2.6438,-2.6691,-2.6691,-2.6691,-2.6691,-2.6691,-2.6691,0.0,0.0,-2.6691,-2.6691,-2.6691,-2.6691,-2.6691,-2.6691,-2.6691,0.0,0.0,0.0,0.0,0.0,0.0,0.0,0.0,0.0,-2.6971,-2.7272,0.0,-2.8421,-3.0229,-3.0457,-3.1793,-3.3273,-3.3707,-3.4394,-3.5046,-3.5172,-3.487,0.0,0.0,-3.7521,-3.7284,-3.7147,-3.7586,-3.7879,-3.7641,-3.8671,-3.9358,-3.8741,-3.9442,-4.0758,-4.2816,-4.3104,-4.372,-4.5393,-4.5586,-4.5605,-4.568,-4.5805,-4.5917,-4.5976,-4.6182,-4.6308,-4.6308,-4.6308,-4.6308,-4.6308,-4.6308,-4.6308,-4.6308,-4.6308,-4.6308,-4.6308,-4.6308,-4.6308,-4.6308,-4.6308,-4.6308,-4.6308,-4.6308,-4.6308,-4.6308,-4.6308,-4.6308,-4.6308,-4.6308,-4.6308,-4.6308,-4.6308,-4.6308,-4.6308,0.0,0.0,0.0,0.0,0.0,0.0,0.0,0.0,0.0,0.0,0.0,0.0,0.0,0.0,0.0,0.0,0.0,0.0,0.0,0.0,-2.6034,-2.6674,0.0,-2.6573,-2.628,-2.6539,-2.659,-2.6297,-2.6401,-2.6539,-2.6691,0.0,0.0,0.0,0.0,-2.6691,-2.6691,-2.6691,-2.6691,-2.6691,-2.6691,-2.6691,0.0,0.0,0.0,0.0,0.0,0.0,0.0,0.0,-2.6873,-2.7051,0.0,-2.8131,-2.9869,-3.0216,-3.1755,-3.3484,-3.4018,-3.4568,-3.5064,-3.532,0.0,0.0,-3.7636,-3.7981,-3.789,-3.801,-3.8379,-3.8556,-3.8098,-3.9169,-3.9915,-3.9276,-3.9919,-4.1104,-4.2854,-4.3104,-4.372,-4.5393,-4.5586,-4.5605,-4.5643,-4.5814,-4.593,-4.5962,-4.618,-4.6308,-4.6308,-4.6308,-4.6308,-4.6308,-4.6308,-4.6308,-4.6308,-4.6308,-4.6308,-4.6308,-4.6308,-4.6308,-4.6308,-4.6308,-4.6308,-4.6308,-4.6308,-4.6308,-4.6308,-4.6308,-4.6308,-4.6308,-4.6308,-4.6308,-4.6308,-4.6308,-4.6308,-4.6308,0.0,0.0,0.0,0.0,0.0,0.0,0.0,0.0,0.0,0.0,0.0,0.0,0.0,0.0,0.0,0.0,0.0,0.0,0.0,0.0,0.0,0.0,0.0,-2.6691,-2.6691,-2.6691,-2.6245,-2.5406,-2.5815,-2.6227,-2.6691,-2.6691,0.0,0.0,0.0,-2.6691,-2.6691,-2.6691,-2.6691,-2.6691,-2.6691,-2.6691,-2.6691,0.0,0.0,0.0,0.0,0.0,0.0,0.0,-2.6691,-2.6691,0.0,0.0,-2.9174,-3.0029,-3.1909,-3.3886,-3.4736,-3.499,-3.521,-3.6064,-3.5661,-3.5477,-3.711,-3.7091,-3.7341,-3.964,-3.9653,-3.9231,-3.8953,-3.9131,-3.9215,-3.8953,-3.9799,-4.1104,-4.2854,-4.3104,-4.372,-4.5393,-4.5586,-4.5643,-4.5796,-4.5853,-4.5951,-4.6092,-4.6211,-4.6308,-4.6308,-4.6308,-4.6308,-4.6308,-4.6308,-4.6308,-4.6308,-4.6308,-4.6308,-4.6308,-4.6308,-4.6308,-4.6308,-4.6308,-4.6308,-4.6308,-4.6308,-4.6308,-4.6308,-4.6308,-4.6308,-4.6308,-4.6308,-4.6308,-4.6308,-4.6308,-4.6308,-4.6308,0.0,0.0,0.0,0.0,0.0,0.0,0.0,0.0,0.0,0.0,0.0,0.0,0.0,0.0,0.0,0.0,0.0,0.0,0.0,0.0,0.0,0.0,0.0,0.0,0.0,0.0,-2.5961,-2.6315,-2.6436,-2.6539,0.0,0.0,0.0,-2.6691,0.0,0.0,-2.6691,-2.6691,-2.6691,-2.6691,-2.6691,-2.6691,-2.6691,0.0,0.0,0.0,0.0,0.0,0.0,0.0,0.0,0.0,-2.6691,0.0,-2.9174,-3.0029,-3.1487,-3.3051,-3.3925,-3.5018,-3.5844,-3.5477,-3.6083,-3.689,-3.7397,-3.7393,-3.7728,-3.9415,-3.9317,-3.8988,-3.9144,-3.9707,-3.9935,-3.9292,-3.9919,-4.1104,-4.2854,-4.3104,-4.372,-4.5393,-4.5586,-4.5605,-4.5643,-4.5757,-4.5863,-4.5949,-4.608,-4.6191,-4.6289,-4.6308,-4.6308,-4.6308,-4.6308,-4.6308,-4.6308,-4.6308,-4.6308,-4.6308,-4.6308,-4.6308,-4.6308,-4.6308,-4.6308,-4.6308,-4.6308,-4.6308,-4.6308,-4.6308,-4.6308,-4.6308,-4.6308,-4.6308,-4.6308,-4.6308,-4.6308,-4.6308,0.0,0.0,0.0,0.0,0.0,0.0,0.0,0.0,0.0,0.0,0.0,0.0,0.0,0.0,0.0,0.0,0.0,0.0,0.0,0.0,0.0,0.0,0.0,0.0,0.0,-2.6068,-2.6175,0.0,0.0,0.0,0.0,0.0,-2.6691,-2.6691,0.0,-2.6691,-2.6691,-2.6691,-2.6691,-2.6691,-2.6691,-2.6691,-2.6691,0.0,0.0,0.0,0.0,0.0,0.0,0.0,0.0,0.0,-2.6691,0.0,-2.942,-3.0476,-3.1965,-3.3562,-3.4885,-3.5771,-3.6321,-3.645,-3.6982,-3.761,-3.8032,-3.8257,-3.8618,-3.9615,-3.9623,-3.9538,-3.9742,-4.0162,-4.0335,-3.9854,-4.0181,-4.1104,-4.2854,-4.3104,-4.372,-4.5393,-4.5586,-4.5586,-4.5586,-4.5719,-4.5819,-4.5893,-4.6026,-4.6152,-4.6289,-4.6308,-4.6308,-4.6308,-4.6308,-4.6308,-4.6308,-4.6308,-4.6308,-4.6308,-4.6308,-4.6308,-4.6308,-4.6308,-4.6308,-4.6308,-4.6308,-4.6308,-4.6308,-4.6308,-4.6308,-4.6308,-4.6308,-4.6308,-4.6308,-4.6308,-4.6308,-4.6308,0.0,0.0,0.0,0.0,0.0,0.0,0.0,0.0,0.0,0.0,0.0,0.0,0.0,0.0,0.0,0.0,0.0,0.0,0.0,0.0,0.0,0.0,0.0,0.0,0.0,0.0,0.0,0.0,0.0,0.0,0.0,0.0,-2.6691,-2.6691,0.0,-2.6691,-2.6691,-2.6691,-2.6691,-2.6691,-2.6691,-2.6691,-2.6691,-2.6691,0.0,0.0,0.0,0.0,0.0,0.0,0.0,0.0,-2.6691,-2.798,-2.9723,-3.1013,-3.276,-3.4733,-3.6728,-3.6835,-3.6762,-3.823,-3.8113,-3.7911,-3.8958,-3.9432,-3.9731,-4.0022,-4.0285,-4.0473,-4.0489,-4.0489,-4.0489,-4.0489,-4.0489,-4.1066,-4.2758,-4.3047,-4.3682,-4.5278,-4.5547,-4.5586,-4.5586,-4.5719,-4.5815,-4.5892,-4.602,-4.6132,-4.6269,-4.6289,-4.6308,-4.6308,-4.6308,-4.6308,-4.6308,-4.6308,-4.6308,-4.6308,-4.6308,-4.6308,-4.6308,-4.6308,-4.6308,-4.6308,-4.6308,-4.6308,-4.6308,-4.6308,-4.6308,-4.6308,-4.6308,-4.6308,-4.6308,-4.6308,-4.6308,-4.6308,0.0,0.0,0.0,0.0,0.0,0.0,0.0,0.0,0.0,0.0,0.0,0.0,0.0,0.0,0.0,0.0,0.0,0.0,0.0,0.0,0.0,0.0,0.0,0.0,0.0,0.0,0.0,0.0,0.0,0.0,0.0,0.0,0.0,-2.6691,0.0,-2.6691,-2.6691,-2.6691,-2.6691,-2.6691,-2.6691,-2.6691,-2.6691,-2.6691,-2.6691,0.0,0.0,0.0,0.0,0.0,0.0,0.0,-2.6691,-2.7587,-2.8893,-3.0185,-3.1936,-3.3743,-3.5143,-3.6376,-3.7312,-3.7661,-3.8245,-3.8947,-3.9716,-3.9943,-4.0002,-4.0081,-4.0139,-4.025,-4.0457,-4.0489,-4.0489,-4.0489,-4.0489,-4.0873,-4.1931,-4.2662,-4.347,-4.4451,-4.5182,-4.5586,-4.5586,-4.5624,-4.5699,-4.5815,-4.5897,-4.6002,-4.6133,-4.623,-4.6308,-4.6308,-4.6308,-4.6308,-4.6308,-4.6308,-4.6308,-4.6308,-4.6308,-4.6308,-4.6308,-4.6308,-4.6308,-4.6308,-4.6308,-4.6308,-4.6308,-4.6308,-4.6308,-4.6308,-4.6308,-4.6308,-4.6308,-4.6308,-4.6308,-4.6308,0.0,0.0,0.0,0.0,0.0,0.0,0.0,0.0,0.0,0.0,0.0,0.0,0.0,0.0,0.0,0.0,0.0,0.0,0.0,0.0,0.0,0.0,0.0,0.0,0.0,0.0,0.0,0.0,0.0,0.0,0.0,0.0,0.0,-2.6691,0.0,-2.6691,-2.6691,-2.6691,-2.6691,-2.6691,-2.6691,-2.6691,-2.6691,-2.6691,-2.6691,-2.6691,-2.6691,0.0,0.0,0.0,0.0,0.0,0.0,0.0,-2.9018,-3.0442,-3.184,-3.3395,-3.5604,-3.6541,-3.7151,-3.8052,-3.8801,-3.9462,-3.9982,-4.0195,-4.0285,-4.0285,-4.0285,-4.0339,-4.0473,-4.0489,-4.0489,-4.0489,-4.0489,-4.0796,-4.1681,-4.22,-4.2931,-4.4143,-4.4701,-4.5143,-4.5547,-4.5586,-4.5643,-4.5796,-4.5853,-4.5959,-4.6093,-4.623,-4.6308,-4.6308,-4.6308,-4.6308,-4.6308,-4.6308,-4.6308,-4.6308,-4.6308,-4.6308,-4.6308,-4.6308,-4.6308,-4.6308,-4.6308,-4.6308,-4.6308,-4.6308,-4.6308,-4.6308,-4.6308,-4.6308,-4.6308,-4.6308,-4.6308,-4.6308,0.0,0.0,0.0,0.0,0.0,0.0,0.0,0.0,0.0,0.0,0.0,0.0,0.0,0.0,0.0,0.0,0.0,0.0,0.0,0.0,0.0,0.0,-2.6657,0.0,0.0,0.0,0.0,0.0,0.0,0.0,0.0,0.0,0.0,-2.6691,0.0,-2.6691,-2.6691,-2.6691,-2.6691,-2.6691,-2.6691,-2.6691,-2.6691,-2.6691,-2.6691,-2.6691,-2.6691,-2.6691,-2.6691,-2.6691,0.0,0.0,0.0,0.0,-2.9195,-3.0818,-3.1895,-3.3256,-3.6248,-3.678,-3.6932,-3.8745,-3.9389,-3.969,-4.0081,-4.0339,-4.0489,-4.0489,-4.0489,-4.0489,-4.0489,-4.0489,-4.0489,-4.0489,-4.0489,-4.0739,-4.147,-4.172,-4.2316,-4.3701,-4.4124,-4.4586,-4.5297,-4.5509,-4.5643,-4.5757,-4.5834,-4.5938,-4.6065,-4.6191,-4.6289,-4.6308,-4.6308,-4.6308,-4.6308,-4.6308,-4.6308,-4.6308,-4.6308,-4.6308,-4.6308,-4.6308,-4.6308,-4.6308,-4.6308,-4.6308,-4.6308,-4.6308,-4.6308,-4.6308,-4.6308,-4.6308,-4.6308,-4.6308,-4.6308,-4.6308,0.0,0.0,0.0,0.0,0.0,0.0,0.0,0.0,0.0,0.0,0.0,0.0,0.0,0.0,0.0,0.0,0.0,0.0,-2.4736,0.0,0.0,-2.6068,-2.647,-2.6505,0.0,0.0,0.0,0.0,0.0,0.0,0.0,0.0,0.0,-2.6691,0.0,0.0,-2.6691,-2.6691,-2.6691,-2.6691,-2.6691,-2.6691,-2.6691,-2.6691,-2.6691,-2.6691,-2.6691,-2.6691,-2.6691,-2.6691,-2.6691,0.0,0.0,0.0,-2.8386,-3.0006,-3.148,-3.3018,-3.4853,-3.6321,-3.77,-3.9158,-3.9576,-3.9757,-4.0319,-4.0473,-4.0489,-4.0489,-4.0489,-4.0489,-4.0489,-4.0489,-4.0489,-4.0489,-4.0489,-4.0527,-4.0662,-4.1316,-4.1893,-4.2124,-4.3412,-4.4355,-4.4451,-4.5163,-4.5605,-4.5624,-4.5738,-4.5849,-4.5913,-4.6056,-4.6172,-4.6308,-4.6308,-4.6308,-4.6308,-4.6308,-4.6308,-4.6308,-4.6308,-4.6308,-4.6308,-4.6308,-4.6308,-4.6308,-4.6308,-4.6308,-4.6308,-4.6308,-4.6308,-4.6308,-4.6308,-4.6308,-4.6308,-4.6308,-4.6308,-4.6308,0.0,0.0,0.0,0.0,0.0,0.0,0.0,0.0,0.0,0.0,0.0,0.0,0.0,0.0,0.0,-2.4389,-2.4632,-2.4792,-2.4816,-2.5297,-2.554,-2.554,-2.5746,-2.5746,-2.5577,0.0,0.0,0.0,0.0,0.0,0.0,-2.6624,-2.6691,0.0,0.0,0.0,0.0,-2.6691,-2.6691,-2.6691,-2.6691,-2.6945,-2.7283,-2.686,-2.6962,-2.7266,-2.6843,-2.6691,-2.6691,-2.6691,-2.6691,-2.6691,-2.6691,0.0,0.0,0.0,-3.1408,-3.3073,-3.5165,-3.6712,-3.8024,-3.9298,-3.9754,-3.9983,-4.0406,-4.0489,-4.0489,-4.0489,-4.0489,-4.0489,-4.0489,-4.0489,-4.0489,-4.0489,-4.0489,-4.0489,-4.0489,-4.0835,-4.1258,-4.1739,-4.245,-4.3278,-4.4201,-4.4643,-4.5066,-4.5547,-4.5719,-4.5822,-4.5833,-4.6016,-4.6133,-4.6191,-4.6269,-4.6308,-4.6308,-4.6308,-4.6308,-4.6308,-4.6308,-4.6308,-4.6308,-4.6308,-4.6308,-4.6308,-4.6308,-4.6308,-4.6308,-4.6308,-4.6308,-4.6308,-4.6308,-4.6308,-4.6308,-4.6308,-4.6308,-4.6308,0.0,0.0,0.0,0.0,0.0,0.0,0.0,0.0,0.0,0.0,0.0,0.0,0.0,0.0,0.0,0.0,-2.4511,-2.4776,-2.5182,-2.5221,-2.5221,-2.5221,-2.5335,-2.5411,-2.5411,0.0,0.0,0.0,0.0,0.0,-2.6505,-2.6505,-2.659,0.0,-2.6691,-2.6691,0.0,0.0,0.0,-2.6708,-2.6894,-2.7317,-2.7739,-2.7418,-2.7621,-2.801,-2.7249,-2.6979,-2.6945,-2.6759,-2.6691,-2.6691,-2.6691,-2.7806,0.0,0.0,0.0,-3.3348,-3.5422,-3.6565,-3.7515,-3.894,-3.9475,-3.9814,-4.0383,-4.0489,-4.0489,-4.0489,-4.0489,-4.0489,-4.0489,-4.0489,-4.0489,-4.0489,-4.0489,-4.0489,-4.0489,-4.0489,-4.0739,-4.1393,-4.1681,-4.2297,-4.3547,-4.3874,-4.4259,-4.4913,-4.524,-4.5413,-4.547,-4.5822,-4.6053,-4.6094,-4.6191,-4.6269,-4.6308,-4.6308,-4.6308,-4.6308,-4.6308,-4.6308,-4.6308,-4.6308,-4.6308,-4.6308,-4.6308,-4.6308,-4.6308,-4.6308,-4.6308,-4.6308,-4.6308,-4.6308,-4.6308,-4.6308,-4.6308,-4.6308,0.0,0.0,0.0,0.0,0.0,0.0,0.0,0.0,0.0,0.0,0.0,0.0,0.0,-2.4348,-2.4389,-2.4389,-2.4855,-2.5182,-2.5221,-2.5221,-2.5221,-2.5221,-2.5689,0.0,-2.5977,0.0,0.0,0.0,0.0,0.0,-2.6049,-2.6049,-2.6262,-2.6691,-2.6691,-2.6691,-2.6691,0.0,0.0,0.0,-2.7469,-2.7755,-2.7857,-2.8602,-2.889,-2.8822,-2.8044,-2.7722,-2.762,-2.6945,-2.6691,-2.6691,-2.6691,-2.7806,-2.9249,0.0,0.0,0.0,-3.4835,-3.511,-3.567,-3.792,-3.8471,-3.8833,-4.0197,-4.0489,-4.0489,-4.0489,-4.0489,-4.0489,-4.0489,-4.0489,-4.0489,-4.0489,-4.0489,-4.0489,-4.0489,-4.0489,-4.0508,-4.0546,-4.1296,-4.1835,-4.1931,-4.2681,-4.3181,-4.322,-4.3932,-4.4432,-4.4568,-4.5368,-4.5894,-4.6093,-4.6113,-4.6172,-4.6308,-4.6308,-4.6308,-4.6308,-4.6308,-4.6308,-4.6308,-4.6308,-4.6308,-4.6308,-4.6308,-4.6308,-4.6308,-4.6308,-4.6308,-4.6308,-4.6308,-4.6308,-4.6308,-4.6308,-4.6308,-4.6308,0.0,0.0,0.0,0.0,0.0,0.0,0.0,0.0,0.0,0.0,0.0,0.0,0.0,-2.3879,-2.3879,-2.3879,-2.4074,-2.4184,-2.4184,-2.4184,-2.4184,-2.4184,-2.4712,-2.4973,-2.4973,0.0,0.0,0.0,0.0,-2.628,-2.6436,-2.6436,-2.6556,-2.6691,-2.6691,-2.6691,-2.6691,-2.6691,0.0,-2.6759,-2.752,-2.8112,-2.8552,-2.8332,-2.8839,-2.955,-2.8281,-2.7789,-2.7739,-2.752,-2.7097,-2.6843,-2.7602,-2.8788,-3.022,-3.2025,-3.3122,-3.3972,-3.477,-3.5172,-3.5659,-3.719,-3.8148,-3.8899,-3.9596,-4.0123,-4.0489,-4.0489,-4.0489,-4.0489,-4.0489,-4.0489,-4.0489,-4.0489,-4.0489,-4.0489,-4.0489,-4.0489,-4.0489,-4.0489,-4.0777,-4.1181,-4.1758,-4.2085,-4.2508,-4.3066,-4.3374,-4.3547,-4.3588,-4.3951,-4.4172,-4.4245,-4.4318,-4.4392,-4.4431,-4.4431,-4.446,-4.4493,-4.4547,-4.4863,-4.5391,-4.5449,-4.5762,-4.6308,-4.6308,-4.6308,-4.6308,-4.6308,-4.6308,-4.6308,-4.6308,-4.6308,-4.6308,-4.6308,-4.6308,-4.6308,0.0,0.0,0.0,0.0,0.0,0.0,0.0,0.0,0.0,0.0,0.0,0.0,0.0,0.0,-2.3595,-2.3595,-2.3595,-2.3595,-2.3595,-2.3752,-2.3948,-2.4116,-2.4657,-2.5012,-2.5166,0.0,0.0,0.0,0.0,0.0,0.0,-2.6691,-2.6691,-2.6691,-2.6691,-2.6691,0.0,-2.6691,-2.6691,-2.6776,-2.7807,-2.8518,-2.9011,-2.8958,-2.9583,-3.0383,-2.9498,-2.9194,-2.9177,-2.9386,-2.911,-2.8797,-2.9333,-3.015,-3.1296,-3.3223,-3.3807,-3.3917,-3.4468,-3.4766,-3.5194,-3.6287,-3.7171,-3.8004,-3.8961,-3.9567,-4.0079,-4.0431,-4.0489,-4.0489,-4.0489,-4.0489,-4.0489,-4.0489,-4.0489,-4.0489,-4.0489,-4.0489,-4.0489,-4.0489,-4.0489,-4.0719,-4.1316,-4.1354,-4.1604,-4.2181,-4.2508,-4.2662,-4.2662,-4.2989,-4.3181,-4.3201,-4.3324,-4.3393,-4.3393,-4.3451,-4.3491,-4.3539,-4.361,-4.3947,-4.4492,-4.4531,-4.5039,-4.5859,-4.5859,-4.6035,-4.6308,-4.6308,-4.6308,-4.6308,-4.6308,-4.6308,-4.6308,-4.6308,-4.6308,-4.6308,0.0,0.0,0.0,0.0,0.0,0.0,0.0,0.0,0.0,0.0,0.0,0.0,0.0,0.0,0.0,-2.3638,-2.3638,-2.3638,-2.3638,-2.4116,-2.4672,-2.5182,-2.5726,-2.6227,-2.6657,0.0,0.0,0.0,0.0,0.0,0.0,0.0,-2.6691,-2.6691,-2.6691,-2.6691,-2.6691,-2.6691,-2.6691,-2.6826,-2.8383,-2.9008,-2.9178,-3.0666,-3.1241,-3.132,-3.1785,-3.1914,-3.1968,-3.2502,-3.2681,-3.2485,-3.1756,-3.1805,-3.2353,-3.3488,-3.3807,-3.3807,0.0,0.0,0.0,-3.5181,-3.5477,-3.6096,-3.8309,-3.886,-3.92,-4.0246,-4.0469,-4.0489,-4.0489,-4.0489,-4.0489,-4.0489,-4.0489,-4.0489,-4.0489,-4.0489,-4.0489,-4.0489,-4.0489,-4.0489,-4.0489,-4.0489,-4.0489,-4.0489,-4.1277,-4.1758,-4.1758,-4.2566,-4.3063,-4.3118,-4.3246,-4.3316,-4.3316,-4.3451,-4.3509,-4.3509,-4.3576,-4.3631,-4.3652,-4.3652,-4.4141,-4.5,-4.5,-4.5488,-4.6308,-4.6308,-4.6308,-4.6308,-4.6308,-4.6308,-4.6308,-4.6308,-4.6308,-4.6308,0.0,0.0,0.0,0.0,0.0,0.0,0.0,0.0,0.0,0.0,0.0,0.0,0.0,0.0,-2.4752,-2.4752,-2.4752,-2.4752,-2.4752,-2.491,-2.5051,-2.5182,-2.5726,-2.6068,-2.6191,0.0,0.0,0.0,0.0,0.0,0.0,0.0,0.0,0.0,-2.6691,-2.6691,-2.6691,-2.6691,-2.6691,-2.6877,-2.8958,-2.9803,-2.9956,-3.141,-3.2324,-3.273,-3.2338,-3.1832,-3.1572,-3.2647,-3.1882,-3.0633,-3.1601,-3.2379,-3.3013,-3.3607,-3.3807,-3.3807,-3.3807,0.0,0.0,0.0,0.0,0.0,-3.6551,-3.7871,-3.8974,-3.9275,-3.9967,-4.0489,-4.0489,-4.0489,-4.0489,-4.0489,-4.0489,-4.0489,-4.0489,-4.0489,-4.0489,-4.0489,-4.0489,-4.0489,-4.0489,-4.0489,-4.0489,-4.0489,-4.0719,-4.0854,-4.0854,-4.1085,-4.1235,-4.1254,-4.1289,-4.1309,-4.1309,-4.1347,-4.1378,-4.1437,-4.1501,-4.1902,-4.2627,-4.2671,-4.3535,-4.5,-4.5,-4.5488,-4.6308,-4.6308,-4.6308,-4.6308,-4.6308,-4.6308,-4.6308,-4.6308,-4.6308,-4.6308,0.0,0.0,0.0,0.0,0.0,0.0,0.0,0.0,0.0,0.0,0.0,0.0,0.0,0.0,0.0,-2.491,-2.5067,-2.5221,-2.5221,-2.5411,-2.5524,-2.5524,-2.6033,-2.6297,-2.6297,0.0,0.0,0.0,0.0,0.0,0.0,0.0,0.0,0.0,0.0,0.0,0.0,-2.6691,-2.6877,-2.7334,-2.9313,-3.0294,-3.0717,-3.2188,-3.3034,-3.3431,-3.3509,-3.3407,-3.3346,-3.4451,-3.36,-3.2231,-3.3237,-3.3513,-3.3465,-3.3522,-3.368,-3.3807,-3.3807,-3.3807,-3.3842,-3.3993,0.0,0.0,-3.6198,-3.7354,-3.8461,-3.9388,-4.006,-4.0489,-4.0489,-4.0489,-4.0489,-4.0489,-4.0489,-4.0489,-4.0489,-4.0489,-4.0489,-4.0489,-4.0489,-4.0489,-4.0489,-4.0489,-4.0489,-4.0489,-4.0489,-4.0489,-4.0489,-4.0489,-4.0489,-4.0489,-4.0489,-4.0489,-4.0489,-4.0562,-4.0611,-4.0631,-4.0706,-4.1061,-4.1655,-4.1671,-4.2458,-4.3852,-4.4256,-4.4902,-4.5742,-4.6133,-4.6308,-4.6308,-4.6308,-4.6308,-4.6308,-4.6308,-4.6308,-4.6308,0.0,0.0,0.0,0.0,0.0,0.0,0.0,0.0,0.0,0.0,0.0,0.0,0.0,0.0,0.0,0.0,-2.5265,-2.5486,-2.5486,-2.5848,-2.6085,-2.6085,-2.647,-2.6691,-2.6691,0.0,0.0,0.0,0.0,0.0,0.0,0.0,0.0,0.0,0.0,0.0,0.0,-2.6691,-2.7232,-2.8197,-2.9567,-3.0598,-3.1478,-3.2966,-3.3575,-3.377,-3.4926,-3.5584,-3.6038,-3.6695,-3.6328,-3.5522,-3.5475,-3.4733,-3.3844,-3.3386,-3.3577,-3.3917,-3.3825,-3.3807,-3.3807,-3.3807,-3.3807,0.0,-3.6351,-3.692,-3.758,-3.9538,-4.006,-4.0134,-4.0134,-4.0134,-4.0134,-4.0169,-4.0246,-4.0358,-4.0469,-4.0489,-4.0489,-4.0489,-4.0489,-4.0489,-4.0489,-4.0489,-4.0489,-4.0489,-4.0489,-4.0489,-4.0489,-4.0489,-4.0489,-4.0489,-4.0489,-4.0489,-4.0489,-4.062,-4.0673,-4.068,-4.0747,-4.08,-4.0872,-4.0829,-4.1299,-4.224,-4.3082,-4.3982,-4.4959,-4.5799,-4.6191,-4.6308,-4.6308,-4.6308,-4.6308,-4.6308,-4.6308,-4.6308,-2.542,0.0,0.0,0.0,0.0,0.0,0.0,0.0,0.0,0.0,0.0,0.0,0.0,0.0,0.0,0.0,-2.7604,-2.7289,-2.7289,-2.6841,-2.6539,-2.6539,-2.6657,-2.6691,-2.6691,-2.6691,0.0,0.0,0.0,0.0,0.0,0.0,0.0,0.0,0.0,0.0,0.0,-2.6691,-2.7841,-2.9685,-2.9989,-3.0903,-3.2239,-3.3711,-3.4658,-3.5199,-3.5467,-3.5521,-3.5405,-3.5311,-3.5545,-3.574,-3.4828,-3.4598,-3.4464,-3.3858,-3.4211,-3.4633,-3.3972,-3.3807,-3.3807,-3.3807,-3.3807,0.0,-3.4367,-3.5175,-3.5956,-3.6389,-3.7211,-3.7849,-3.7849,-3.7849,-3.7908,-3.8132,-3.876,-3.9519,-4.0377,-4.0489,-4.0489,-4.0489,-4.0489,-4.0489,-4.0489,-4.0489,-4.0489,-4.0489,-4.0489,-4.0489,-4.0489,-4.0489,-4.0489,-4.0489,-4.0489,-4.0489,-4.0489,-4.0543,-4.0577,-4.0626,-4.0641,-4.066,-4.0733,-4.0771,-4.1306,-4.2221,-4.2391,-4.3369,-4.483,-4.5025,-4.5578,-4.6308,-4.6308,-4.6308,-4.6308,-4.6308,-4.6308,-4.6308,-2.6093,0.0,0.0,0.0,0.0,0.0,0.0,0.0,0.0,0.0,0.0,0.0,0.0,0.0,0.0,0.0,0.0,0.0,0.0,-2.7689,-2.7249,-2.7249,-2.6894,-2.6691,-2.6691,-2.6691,-2.6691,0.0,0.0,0.0,0.0,0.0,0.0,0.0,0.0,0.0,0.0,-2.7249,-2.8146,-2.9617,-3.0345,-3.1749,-3.3508,-3.4624,-3.5301,-3.5622,-3.5898,-3.6132,-3.6309,-3.6626,-3.6163,-3.5421,-3.5526,-3.5098,-3.4548,-3.4195,-3.452,-3.4807,-3.4027,-3.3807,-3.3807,-3.3807,-3.3807,0.0,0.0,-3.5095,-3.5656,-3.6212,-3.6782,-3.7192,-3.7192,-3.7192,-3.7234,-3.7375,-3.8233,-3.8953,-3.9057,-3.9903,-4.0489,-4.0489,-4.0489,-4.0489,-4.0489,-4.0489,-4.0489,-4.0489,-4.0489,-4.0489,-4.0489,-4.0489,-4.0489,-4.0489,-4.0489,-4.0489,-4.0489,-4.0489,-4.0539,-4.0607,-4.0573,-4.0592,-4.066,-4.0641,-4.0921,-4.1426,-4.1905,-4.2858,-4.4132,-4.4637,-4.5395,-4.6255,-4.6243,-4.6269,-4.6308,-4.6308,-4.6308,-4.6308,-2.6782,0.0,0.0,0.0,0.0,0.0,0.0,0.0,0.0,0.0,0.0,0.0,0.0,0.0,0.0,0.0,0.0,0.0,-2.9414,-2.8687,-2.8228,-2.8228,-2.7402,-2.6979,-2.7131,-2.6843,-2.6691,0.0,0.0,0.0,0.0,0.0,0.0,0.0,0.0,0.0,0.0,-2.7926,-2.8569,-2.9533,-3.0869,-3.2476,-3.415,-3.4912,-3.5284,-3.5508,-3.6281,-3.6843,-3.7305,-3.7954,-3.6795,-3.5155,-3.5842,-3.5439,-3.4641,-3.4285,-3.4695,-3.5055,-3.4064,-3.3807,-3.3807,-3.3807,-3.3807,-3.4034,0.0,0.0,0.0,-3.637,-3.6547,-3.6547,-3.6547,-3.6547,-3.6569,-3.6594,-3.7542,-3.8023,-3.7375,-3.8759,-3.989,-4.0008,-4.0296,-4.0431,-4.0277,-4.0258,-4.0315,-4.0489,-4.0354,-4.0335,-4.0489,-4.0489,-4.0489,-4.0489,-4.0489,-4.0489,-4.0489,-4.0489,-4.0523,-4.0573,-4.0523,-4.0523,-4.0573,-4.0539,-4.0534,-4.0646,-4.1401,-4.2369,-4.346,-4.4277,-4.5239,-4.6197,-4.6218,-4.625,-4.6308,-4.6308,-4.6308,-4.6308,-2.7505,-2.7565,0.0,0.0,0.0,0.0,0.0,0.0,0.0,0.0,0.0,0.0,0.0,-3.2177,-3.2857,-3.2799,-3.229,-3.163,-3.0987,-3.026,-2.9854,-2.9854,-2.8467,-2.801,-2.8704,-2.7385,-2.6691,-2.6691,0.0,0.0,0.0,0.0,0.0,0.0,-2.7435,-2.7368,-2.6911,-2.8264,-2.9651,-3.1004,-3.1833,-3.2307,-3.2611,-3.3372,-3.4066,-3.4865,-3.6501,-3.7152,-3.7104,-3.6505,-3.6096,-3.5579,-3.3927,-3.4514,-3.5492,-3.3831,-3.4659,-3.5807,-3.4229,-3.3807,-3.3807,-3.3807,-3.3807,-3.3852,-3.3952,0.0,-3.4034,-3.416,0.0,-3.4179,-3.4179,0.0,0.0,-3.4503,-3.5287,-3.5931,-3.6075,-3.6952,-3.7757,-3.8232,-3.9604,-4.0219,-3.9508,-3.9431,-3.9719,-4.045,-3.9835,-3.9738,-4.045,-4.0489,-4.0489,-4.0489,-4.0489,-4.0489,-4.0489,-4.0489,-4.0504,-4.0504,-4.0504,-4.0504,-4.0504,-4.0573,-4.0588,-4.0622,-4.0723,-4.1768,-4.3399,-4.3515,-4.4606,-4.6216,-4.6277,-4.6289,-4.6308,-4.6308,-4.6308,-4.6308,-2.7625,-2.7625,0.0,0.0,-2.7625,-2.7625,0.0,0.0,0.0,0.0,0.0,0.0,-3.0243,-3.074,-3.1407,-3.2157,-3.195,-3.1775,-3.185,-3.114,0.0,-3.0125,-2.9076,-2.8433,-2.8315,-2.7672,-2.7131,-2.6691,-2.6691,0.0,0.0,0.0,0.0,0.0,-2.7637,-2.8146,-2.8738,-2.982,-3.0632,-3.1292,-3.2459,-3.2662,-3.2459,-3.4066,-3.5078,-3.5693,-3.6441,-3.696,-3.7175,-3.6821,-3.5927,-3.5054,-3.5651,-3.5315,-3.4709,-3.4921,-3.5271,-3.5293,-3.4119,-3.4137,-3.4394,-3.3917,-3.4156,-3.4376,-3.3917,-3.3807,-3.3807,-3.3807,0.0,0.0,0.0,0.0,0.0,0.0,-3.4829,-3.5357,-3.4963,-3.6214,-3.7275,-3.7509,-3.8284,-3.8955,-3.9277,-3.9719,-4.0142,-4.0469,-4.0181,-4.0142,-4.0469,-4.0489,-4.0489,-4.0489,-4.0489,-4.0489,-4.0489,-4.0489,-4.0489,-4.0489,-4.0489,-4.0489,-4.0489,-4.0523,-4.0573,-4.0607,-4.0593,-4.1335,-4.2579,-4.3163,-4.4133,-4.5334,-4.5897,-4.6198,-4.6308,-4.6308,-4.6308,-4.6308,-2.7625,0.0,0.0,0.0,-2.7625,-2.7675,-2.781,-2.8238,-2.8559,-2.8732,-2.9293,-2.9678,-2.9678,-3.0213,-3.092,-3.1907,-3.2315,-3.2627,-3.2899,-3.2205,-3.1647,-3.1326,-3.0006,-2.9211,-2.9042,-2.8212,-2.7554,-2.6996,0.0,0.0,0.0,0.0,0.0,0.0,-2.7688,-2.8552,-2.9854,-3.0801,-3.1427,-3.1901,-3.3186,-3.3508,-3.3355,-3.4776,-3.5684,-3.6224,-3.635,-3.6643,-3.6964,-3.6752,-3.5714,-3.4753,-3.6198,-3.5491,-3.4376,-3.5553,-3.569,-3.525,-3.4385,-3.4578,-3.4807,-3.4009,-3.4247,-3.4523,-3.3935,-3.3807,-3.3807,-3.3807,-3.3807,0.0,0.0,0.0,-3.3807,-3.3807,0.0,-3.481,-3.4191,-3.5362,-3.6318,-3.6489,-3.6881,-3.7583,-3.8722,-3.9353,-3.9826,-4.0142,-4.0162,-4.0258,-4.0489,-4.0489,-4.0489,-4.0489,-4.0489,-4.0489,-4.0489,-4.0489,-4.0489,-4.0489,-4.0489,-4.0489,-4.0489,-4.0489,-4.0523,-4.0573,-4.0564,-4.1094,-4.1991,-4.2969,-4.3873,-4.4722,-4.5658,-4.6125,-4.6257,-4.6256,-4.6241,-4.6241,-2.7625,-2.7625,0.0,-2.7625,-2.7625,-2.781,-2.8367,-2.8463,-2.8701,-2.9271,-3.0028,-3.0491,-3.0491,-3.2275,-3.3499,-3.3532,-3.4734,-3.5155,-3.4472,-3.3744,-3.3643,-3.432,-3.1596,-3.0717,-3.2144,-2.9296,-2.7772,-2.7755,0.0,0.0,0.0,0.0,0.0,0.0,-2.7503,-2.8264,-2.911,-3.0581,-3.2019,-3.3406,-3.415,-3.4878,-3.5436,-3.4776,-3.4979,-3.5694,-3.6224,-3.6416,-3.6312,-3.559,-3.5312,-3.5077,-3.3911,-3.4339,-3.5205,-3.4942,-3.5683,-3.6389,-3.529,-3.4972,-3.4807,-3.4009,-3.3825,-3.3825,-3.3807,-3.3807,-3.3807,-3.3807,-3.3807,-3.3807,-3.3807,-3.3807,-3.3807,-3.3807,-3.3825,0.0,0.0,-3.387,-3.4129,-3.4708,-3.5469,-3.6405,-3.7544,-3.7677,-3.8146,-3.9262,-3.9335,-3.9681,-4.045,-4.0489,-4.0489,-4.0489,-4.0489,-4.0489,-4.0489,-4.0489,-4.0489,-4.0489,-4.0489,-4.0489,-4.0489,-4.0489,-4.0489,-4.0504,-4.0504,-4.1074,-4.2073,-4.2941,-4.3848,-4.4793,-4.5728,-4.6098,-4.61,-4.6111,-4.6105,-4.6105,-2.7625,0.0,0.0,-2.7625,-2.7625,-2.7675,-2.786,-2.7894,-2.8293,-2.939,-2.9379,-2.9738,-3.1086,-3.1453,-3.216,-3.3456,-3.4031,-3.4354,-3.4506,-3.3812,-3.3508,-3.3761,-3.1884,-3.1055,-3.1546,-3.0091,-2.8839,-2.7789,-2.7571,0.0,0.0,0.0,0.0,0.0,0.0,-2.8805,-3.0514,-3.1495,-3.2763,-3.415,-3.4387,-3.4641,-3.4895,-3.5148,-3.5402,-3.5605,-3.5827,-3.5854,-3.582,-3.5564,-3.5181,-3.4848,-3.5273,-3.5179,-3.5116,-3.5845,-3.6226,-3.6364,-3.5981,-3.6248,-3.6321,-3.4945,-3.5037,-3.5165,-3.4045,-3.3807,-3.3807,-3.3807,-3.3807,-3.3807,-3.3807,-3.3807,-3.3807,-3.3807,-3.3807,-3.3807,0.0,-3.3807,-3.3868,-3.4062,-3.5016,-3.5866,-3.6423,-3.768,-3.8629,-3.9006,-3.9695,-4.02,-4.0489,-4.0489,-4.0489,-4.0489,-4.0489,-4.0489,-4.0489,-4.0489,-4.0489,-4.0489,-4.0489,-4.0489,-4.0489,-4.0489,-4.0489,-4.0504,-4.0558,-4.0727,-4.1112,-4.2568,-4.3374,-4.3848,-4.5268,-4.5853,-4.591,-4.6053,-4.6072,-4.6035,-2.7625,-2.7625,-2.7625,-2.7625,-2.7625,-2.7625,-2.7625,-2.776,-2.8236,-2.9143,-2.9063,-2.9511,-3.1082,-3.1268,-3.1932,-3.3472,-3.4047,-3.437,-3.4506,-3.4066,-3.3795,-3.3795,-3.2628,-3.2104,-3.2357,-3.114,-3.0006,-2.9025,-2.8213,-2.7571,0.0,0.0,0.0,0.0,-2.7486,-2.9076,-3.1241,-3.1968,-3.3288,-3.4895,-3.4895,-3.4895,-3.4945,-3.5436,-3.5453,-3.525,-3.552,-3.5622,-3.5622,-3.5622,-3.5301,-3.505,-3.6069,-3.5906,-3.5592,-3.677,-3.7007,-3.6857,-3.6751,-3.7092,-3.7165,-3.5807,-3.5881,-3.5936,-3.4541,-3.4229,-3.4229,-3.4229,-3.4009,-3.3972,-3.4578,-3.4192,-3.3899,-3.4192,-3.399,-3.3807,0.0,-3.3807,-3.3807,-3.3807,-3.4448,-3.5131,-3.5713,-3.701,-3.8118,-3.8803,-3.9608,-4.02,-4.0469,-4.0489,-4.0489,-4.0489,-4.0489,-4.0489,-4.0489,-4.0489,-4.0489,-4.0489,-4.0489,-4.0489,-4.0489,-4.0489,-4.0489,-4.0504,-4.0558,-4.0539,-4.062,-4.2075,-4.2857,-4.3293,-4.4716,-4.5476,-4.5791,-4.5935,-4.5965,-4.5924,-2.7625,-2.7625,-2.7625,-2.7625,-2.7625,-2.7625,-2.7625,-2.8122,-2.8578,-2.8755,-2.9241,-2.9925,-3.0694,-3.1942,-3.2983,-3.3601,-3.4851,-3.5318,-3.459,-3.4506,-3.4506,-3.4539,-3.3812,-3.3744,-3.4472,-3.2357,-3.1241,-3.119,-2.9008,0.0,0.0,0.0,0.0,0.0,-2.7554,-2.9127,-3.1292,-3.1985,-3.3575,-3.5622,-3.5622,-3.5605,-3.5571,-3.5605,-3.5148,-3.459,-3.5351,-3.5622,-3.5622,-3.5622,-3.5622,-3.5694,-3.6224,-3.6374,-3.6643,-3.756,-3.7893,-3.7884,-3.7625,-3.7581,-3.7349,-3.656,-3.6358,-3.6138,-3.5247,-3.5045,-3.5045,-3.5045,-3.4468,-3.4394,-3.5954,-3.4926,-3.41,-3.4807,-3.4302,-3.3807,-3.3807,-3.3807,-3.3807,-3.3807,-3.3844,-3.4271,-3.5324,-3.5728,-3.6704,-3.8556,-3.9057,-3.9627,-4.0399,-4.045,-4.045,-4.0473,-4.0489,-4.0489,-4.0489,-4.0489,-4.0489,-4.0489,-4.0489,-4.0489,-4.0489,-4.0489,-4.0489,-4.0489,-4.0489,-4.0489,-4.0581,-4.1517,-4.2379,-4.3188,-4.4122,-4.4986,-4.5715,-4.5771,-4.5791,-4.5781,-2.7625,-2.7625,-2.7625,-2.7625,-2.7625,-2.7625,-2.7625,-2.8147,-2.9149,-3.0618,-3.0967,-3.1699,-3.3405,-3.3892,-3.4168,-3.4312,-3.509,-3.5537,-3.5351,-3.4793,-3.4742,-3.5301,-3.41,-3.3744,-3.4472,-3.2848,-3.1732,-3.119,-3.0074,-2.9228,-2.8687,0.0,0.0,0.0,-2.8602,-2.9922,-3.2019,-3.2205,-3.3575,-3.5622,-3.5622,-3.5284,-3.4844,-3.5402,-3.5148,-3.459,-3.5351,-3.5622,-3.5622,-3.5622,-3.5622,-3.5605,-3.5783,-3.6357,-3.7076,-3.7285,-3.7895,-3.8491,-3.8401,-3.8395,-3.8193,-3.7386,-3.7184,-3.6964,-3.6156,-3.5973,-3.5973,-3.5973,-3.5807,-3.5587,-3.5385,-3.4972,-3.4578,-3.4174,-3.3935,-3.3807,-3.3807,-3.3807,-3.3807,-3.3807,-3.4339,-3.4568,-3.4271,-3.5603,-3.67,-3.7207,-3.8287,-3.9185,-3.9804,-3.9693,-3.9791,-4.0176,-4.0389,-4.0489,-4.0489,-4.0489,-4.0489,-4.0489,-4.0489,-4.0489,-4.0489,-4.0489,-4.0489,-4.0489,-4.0489,-4.0489,-4.0566,-4.1466,-4.2329,-4.3188,-4.4071,-4.4951,-4.57,-4.5719,-4.5719,-4.5715,-2.7625,-2.7625,-2.7625,-2.7625,-2.7814,-2.8023,-2.8023,-2.8339,-2.9164,-3.0892,-3.1104,-3.1784,-3.3521,-3.3735,-3.3836,-3.4137,-3.48,-3.5027,-3.471,-3.488,-3.503,-3.5131,-3.4641,-3.4573,-3.4979,-3.3846,-3.2882,-3.2154,-3.1106,-3.0209,-2.9465,0.0,0.0,0.0,-2.933,-3.0345,-3.1867,-3.2831,-3.3964,-3.5165,-3.5487,-3.5368,0.0,-3.5453,-3.5351,-3.5047,-3.547,-3.5622,-3.5622,-3.5622,-3.5622,-3.5667,-3.5854,-3.6374,-3.696,-3.7396,-3.7929,-3.8382,-3.8627,-3.8707,-3.8597,-3.8138,-3.801,-3.7808,-3.7,-3.6817,-3.6817,-3.6817,-3.6541,-3.6376,-3.6597,-3.5724,-3.4734,-3.3935,-3.3807,-3.3807,-3.3807,-3.3807,-3.3807,-3.3807,-3.4211,-3.4302,-3.3844,-3.5544,-3.6696,-3.6702,-3.7543,-3.8205,-3.8531,-3.8784,-3.9052,-3.9351,-4.0004,-4.0248,-4.012,-4.0248,-4.0321,-4.0321,-4.0321,-4.0389,-4.0489,-4.0489,-4.0489,-4.0489,-4.0489,-4.0489,-4.0527,-4.1027,-4.1966,-4.3214,-4.4463,-4.523,-4.5687,-4.5673,-4.5673,-4.5687,-2.7625,-2.7625,-2.7655,-2.7745,-2.8278,-2.8786,-2.8951,-2.8845,-2.92,-3.0488,-3.0708,-3.1217,-3.2462,-3.2695,-3.2933,-3.3443,-3.4087,-3.4216,-3.3561,-3.4764,-3.5166,-3.4553,-3.5222,-3.5622,-3.5622,-3.4878,-3.4134,-3.3406,-3.2019,-3.097,0.0,0.0,0.0,0.0,-2.9956,-3.0717,-3.1613,-3.3643,-3.4556,-3.4692,-3.5351,-3.5622,-3.5622,-3.5622,-3.5622,-3.5622,-3.5622,-3.5622,-3.5622,-3.5622,-3.5622,-3.5694,-3.6139,-3.6333,-3.6563,-3.7452,-3.7755,-3.7911,-3.8465,-3.8596,-3.8627,-3.8676,-3.8707,-3.8524,-3.7808,-3.7643,-3.7643,-3.7643,-3.7092,-3.7,-3.8303,-3.6707,-3.488,-3.41,-3.4045,-3.4137,-3.4137,-3.4137,-3.4082,-3.3972,-3.4064,0.0,-3.3825,-3.5417,-3.6489,-3.6477,-3.6714,-3.699,-3.7231,-3.7882,-3.8316,-3.8478,-3.9501,-3.9901,-3.9599,-3.9901,-4.0061,-4.0101,-4.0101,-4.0232,-4.0489,-4.0489,-4.0489,-4.0489,-4.0489,-4.0489,-4.0489,-4.0489,-4.1527,-4.3278,-4.4951,-4.564,-4.5693,-4.5622,-4.564,-4.5693,-2.7625,-2.7625,-2.7754,-2.8323,-2.8966,-2.9774,-3.0851,-3.0543,-3.0431,-3.132,-3.1913,-3.2323,-3.2571,-3.3093,-3.3235,-3.2788,-3.3391,-3.3738,-3.3558,-3.4317,-3.4733,-3.4601,-3.5249,-3.5622,-3.5622,-3.4878,-3.4134,-3.3406,-3.2527,-3.1715,0.0,0.0,0.0,0.0,-3.0954,-3.1749,-3.3085,-3.4066,-3.4844,-3.5436,-3.5571,-3.5622,-3.5622,-3.5622,-3.5622,-3.5622,-3.5622,-3.5622,-3.5622,-3.5622,-3.5622,-3.5622,-3.5694,-3.6054,-3.6416,-3.6603,-3.6981,-3.7433,-3.7911,-3.8032,-3.815,-3.8578,-3.8707,-3.867,-3.8524,-3.8487,-3.8487,-3.8487,-3.8377,-3.8157,-3.7771,-3.6798,-3.5789,-3.4917,-3.5404,-3.5862,-3.5862,-3.5862,-3.5605,-3.4862,-3.5422,-3.5312,-3.3935,-3.4724,-3.5303,-3.5303,-3.5609,-3.6279,-3.7377,-3.736,-3.7826,-3.8943,-3.9453,-3.9645,-3.9599,-3.9645,-3.9819,-4.0101,-4.0101,-4.0232,-4.0489,-4.0489,-4.0489,-4.0489,-4.0489,-4.0489,-4.0489,-4.0489,-4.1527,-4.3278,-4.4951,-4.5622,-4.5622,-4.5603,-4.5622,-4.5622,-2.8622,-2.8622,-2.8816,-2.9475,-3.0148,-3.0926,-3.1898,-3.2048,-3.2165,-3.257,-3.254,-3.2661,-3.3011,-3.3356,-3.326,-3.2612,-3.3193,-3.3546,-3.3614,-3.4235,-3.4736,-3.5098,-3.5424,-3.5622,-3.5622,-3.5267,-3.4523,-3.3406,-3.3034,-3.229,0.0,-3.119,-3.119,-3.1207,-3.1596,-3.2154,-3.2899,-3.4015,-3.4692,-3.5064,-3.547,-3.5622,-3.5622,-3.5622,-3.5622,-3.5622,-3.5622,-3.5622,-3.5622,-3.5622,-3.5622,-3.5622,-3.5622,-3.5783,-3.6054,-3.6291,-3.6563,-3.6943,-3.7685,-3.7893,-3.8013,-3.8578,-3.8707,-3.8707,-3.8707,-3.8707,-3.8707,-3.8707,-3.8707,-3.845,-3.7643,-3.6835,-3.6156,-3.5752,-3.5661,-3.5789,-3.6229,-3.6303,-3.6138,-3.5734,-3.5661,-3.5312,-3.4504,-3.4412,-3.4559,-3.4954,-3.5137,-3.5725,-3.6828,-3.6747,-3.7177,-3.8229,-3.8973,-3.9257,-3.9127,-3.9257,-3.9414,-3.9576,-3.9576,-3.9735,-4.0043,-4.0082,-4.0082,-4.0082,-4.012,-4.0138,-4.0177,-4.0635,-4.1628,-4.3023,-4.4288,-4.5111,-4.5586,-4.5586,-4.5586,-4.5586,-2.9759,-2.9774,-3.0028,-3.0791,-3.1495,-3.2168,-3.2826,-3.3499,-3.3814,-3.3529,-3.3036,-3.2916,-3.344,-3.3499,-3.329,-3.2766,-3.3056,-3.3386,-3.3577,-3.4068,-3.4688,-3.5362,-3.5515,-3.5622,-3.5622,-3.5622,-3.4962,-3.3643,-3.3491,-3.273,-3.1427,-3.1258,-3.1275,-3.1444,-3.2019,-3.2442,-3.2814,-3.3998,-3.459,-3.4776,-3.5385,-3.5622,-3.5622,-3.5622,-3.5622,-3.5622,-3.5622,-3.5622,-3.5622,-3.5622,-3.5622,-3.5622,-3.5622,-3.5622,-3.5694,-3.6097,-3.6291,-3.6563,-3.7379,-3.7755,-3.798,-3.8415,-3.8627,-3.8707,-3.8707,-3.8707,-3.8707,-3.8707,-3.8707,-3.845,-3.7643,-3.711,-3.6743,-3.6578,-3.6119,-3.6046,-3.6707,-3.6798,-3.6743,-3.6578,-3.5954,-3.5477,-3.5284,-3.4706,-3.4596,-3.521,-3.5082,-3.5385,-3.6248,-3.6303,-3.667,-3.7489,-3.8331,-3.8664,-3.845,-3.883,-3.9036,-3.9099,-3.9099,-3.9264,-3.9599,-3.9645,-3.9687,-3.9687,-3.9712,-3.9775,-3.9854,-4.0791,-4.1753,-4.2695,-4.3615,-4.4614,-4.5513,-4.5513,-4.5513,-4.5513,-3.0313,-3.0417,-3.0821,-3.2108,-3.2871,-3.3529,-3.4188,-3.4876,-3.4876,-3.3664,-3.344,-3.3425,-3.3484,-3.3499,-3.3469,-3.341,-3.2916,-3.2849,-3.3454,-3.362,-3.3987,-3.4671,-3.5253,-3.5622,-3.5622,-3.5622,-3.5216,-3.4387,-3.3728,-3.2983,-3.2171,-3.1495,-3.1546,-3.2188,-3.2297,-3.3017,-3.4286,-3.4438,-3.4895,-3.552,-3.5588,-3.5622,-3.5622,-3.5622,-3.5622,-3.5622,-3.5622,-3.5622,-3.5622,-3.5622,-3.5622,-3.5622,-3.5622,-3.5622,-3.5622,-3.565,-3.6028,-3.6416,-3.6522,-3.7193,-3.7893,-3.7946,-3.835,-3.8707,-3.8707,-3.8707,-3.8707,-3.8707,-3.8707,-3.845,-3.7643,-3.8028,-3.8248,-3.7496,-3.7936,-3.8395,-3.8469,-3.8487,-3.8193,-3.7459,-3.7312,-3.6964,-3.6248,-3.6101,-3.6101,-3.6174,-3.5459,-3.5385,-3.6248,-3.6303,-3.667,-3.7489,-3.761,-3.7647,-3.7606,-3.8352,-3.8855,-3.9099,-3.9099,-3.9264,-3.9599,-3.9599,-3.9599,-3.9599,-3.9622,-3.9645,-3.9788,-4.0919,-4.1755,-4.2439,-4.3495,-4.4437,-4.5243,-4.5243,-4.5243,-4.5243,-3.2243,-3.2302,-3.2602,-3.3529,-3.3903,-3.4307,-3.4996,-3.5325,-3.531,-3.4771,-3.4696,-3.4696,-3.4696,-3.4696,-3.4532,-3.4128,-3.4288,-3.4272,-3.4148,-3.4626,-3.4956,-3.5178,-3.547,-3.5622,-3.5622,-3.5622,-3.525,-3.4489,-3.3761,-3.3017,-3.2273,-3.1985,-3.2239,-3.2983,-3.3406,-3.3931,-3.4523,-3.4979,-3.5351,-3.5622,-3.5622,-3.5622,-3.5622,-3.5622,-3.5622,-3.5622,-3.5622,-3.5622,-3.5622,-3.5622,-3.5622,-3.5622,-3.5622,-3.5622,-3.5622,-3.5622,-3.5739,-3.5985,-3.6291,-3.6943,-3.7542,-3.7825,-3.83,-3.8707,-3.8707,-3.8707,-3.8707,-3.8707,-3.8707,-3.8597,-3.8267,-3.8083,-3.8028,-3.8193,-3.8065,-3.8138,-3.8634,-3.8707,-3.8579,-3.8267,-3.7771,-3.7349,-3.7037,-3.6578,-3.6303,-3.6303,-3.5973,-3.5936,-3.6266,-3.6743,-3.7165,-3.7477,-3.7955,-3.8212,-3.8212,-3.8542,-3.8762,-3.8855,-3.8855,-3.8942,-3.9064,-3.91,-3.9154,-3.9234,-3.9287,-3.9313,-3.9401,-3.9827,-4.0847,-4.214,-4.2602,-4.3649,-4.4962,-4.4962,-4.4962,-4.4962,-3.3739,-3.3784,-3.3993,-3.4666,-3.4771,-3.4936,-3.5429,-3.5504,-3.5504,-3.5504,-3.5504,-3.5504,-3.5504,-3.5504,-3.531,-3.4816,-3.5263,-3.5388,-3.493,-3.5375,-3.5675,-3.5594,-3.5622,-3.5622,-3.5622,-3.5622,-3.5351,-3.4827,-3.4083,-3.3457,-3.2916,-3.2713,-3.3017,-3.3744,-3.4269,-3.4624,-3.4861,-3.5402,-3.5622,-3.5622,-3.5622,-3.5622,-3.5622,-3.5622,-3.5622,-3.5622,-3.5622,-3.5622,-3.5622,-3.5622,-3.5622,-3.5622,-3.5622,-3.5622,-3.5622,-3.5667,-3.5783,-3.5941,-3.6224,-3.6764,-3.7377,-3.7649,-3.8117,-3.8546,-3.8658,-3.8707,-3.8707,-3.8707,-3.8707,-3.8707,-3.8707,-3.823,-3.8028,-3.8615,-3.8212,-3.8046,-3.8615,-3.8707,-3.8615,-3.8377,-3.7845,-3.7507,-3.7507,-3.6982,-3.6652,-3.6652,-3.6872,-3.689,-3.667,-3.7184,-3.7507,-3.7507,-3.8046,-3.834,-3.834,-3.8579,-3.8707,-3.8719,-3.8719,-3.875,-3.875,-3.8792,-3.8881,-3.8979,-3.9036,-3.9073,-3.9073,-3.9183,-4.0269,-4.19,-4.1961,-4.3069,-4.4676,-4.4676,-4.4701,-4.4701,-3.4337,-3.4472,-3.4681,-3.537,-3.5489,-3.5489,-3.5504,-3.5504,-3.5504,-3.5504,-3.5504,-3.5504,-3.5504,-3.5504,-3.5504,-3.5489,-3.5554,-3.5591,-3.5593,-3.5668,-3.5675,-3.5594,-3.5622,-3.5622,-3.5622,-3.5622,-3.5622,-3.5605,-3.4844,-3.4472,-3.4455,-3.3728,-3.3778,-3.4472,-3.4489,-3.4912,-3.5605,-3.5622,-3.5622,-3.5622,-3.5622,-3.5622,-3.5622,-3.5622,-3.5622,-3.5622,-3.5622,-3.5622,-3.5622,-3.5622,-3.5622,-3.5622,-3.5622,-3.5622,-3.5622,-3.5773,-3.6156,-3.6498,-3.6088,-3.6741,-3.7451,-3.7342,-3.7703,-3.8219,-3.8596,-3.8707,-3.8707,-3.8707,-3.8707,-3.8707,-3.8707,-3.8689,-3.8689,-3.8707,-3.8689,-3.8689,-3.8707,-3.8707,-3.8414,-3.7606,-3.7526,-3.7507,-3.7507,-3.7477,-3.7477,-3.7477,-3.8212,-3.8322,-3.7544,-3.7477,-3.7507,-3.7507,-3.7526,-3.7496,-3.7496,-3.8303,-3.8719,-3.8792,-3.8792,-3.8851,-3.891,-3.891,-3.891,-3.8892,-3.8979,-3.8979,-3.9036,-3.935,-4.0341,-4.1619,-4.1809,-4.2938,-4.4383,-4.4383,-4.4457,-4.4511,-3.513,-3.5175,-3.525,-3.5474,-3.5504,-3.5504,-3.5504,-3.5504,-3.5504,-3.5504,-3.5504,-3.5504,-3.5504,-3.5504,-3.5504,-3.5504,-3.6445,-3.6689,-3.5641,-3.6585,-3.6706,-3.5628,-3.5622,-3.5622,-3.5622,-3.5622,-3.5622,-3.5622,-3.4861,-3.4489,-3.4489,-3.4252,-3.4539,-3.5267,-3.5267,-3.5402,-3.5622,-3.5622,-3.5622,-3.5622,-3.5622,-3.5622,-3.5622,-3.5622,-3.5622,-3.5622,-3.5622,-3.5667,-3.5728,-3.5728,-3.5728,-3.5756,-3.5844,-3.58,-3.5773,-3.5905,-3.6062,-3.6174,-3.6002,-3.6457,-3.6943,-3.6886,-3.7506,-3.8135,-3.8252,-3.8515,-3.8707,-3.8707,-3.8707,-3.8707,-3.8707,-3.8707,-3.8707,-3.8707,-3.8707,-3.8707,-3.8707,-3.8707,-3.8597,-3.834,-3.8322,-3.8322,-3.8322,-3.8322,-3.8083,-3.7533,-3.7734,-3.7514,-3.6707,-3.7716,-3.8065,-3.7514,-3.8028,-3.8322,-3.8322,-3.8579,-3.8707,-3.8719,-3.8762,-3.8851,-3.891,-3.8968,-3.8968,-3.8979,-3.9036,-3.9073,-3.9073,-3.9165,-4.0151,-4.159,-4.1688,-4.2686,-4.4121,-4.4121,-4.4151,-4.4151,-3.5504,-3.5504,-3.5504,-3.5504,-3.5504,-3.5504,-3.5504,-3.5504,-3.5504,-3.5504,-3.5504,-3.5504,-3.5504,-3.5504,-3.5619,-3.5894,-3.7055,-3.7383,-3.6518,-3.7353,-3.7364,-3.6113,-3.5774,-3.5622,-3.5622,-3.5622,-3.5622,-3.5622,-3.5148,-3.4912,-3.4912,-3.4912,-3.5165,-3.5622,-3.5622,-3.5622,-3.5622,-3.5622,-3.5622,-3.5622,-3.5622,-3.5622,-3.5622,-3.5622,-3.5622,-3.5622,-3.5622,-3.5684,-3.5817,-3.5817,-3.5817,-3.5905,-3.6019,-3.6036,-3.5949,-3.6036,-3.6079,-3.6062,-3.6105,-3.6326,-3.6603,-3.6904,-3.734,-3.7739,-3.8034,-3.8285,-3.8515,-3.8676,-3.8707,-3.8707,-3.8707,-3.8707,-3.8707,-3.8707,-3.8707,-3.8707,-3.8707,-3.8707,-3.8597,-3.8285,-3.8248,-3.8248,-3.8248,-3.8248,-3.8175,-3.7955,-3.7936,-3.7716,-3.7221,-3.7863,-3.8157,-3.7955,-3.8432,-3.8707,-3.8707,-3.8707,-3.8689,-3.875,-3.8792,-3.8862,-3.8921,-3.8979,-3.9007,-3.9036,-3.9073,-3.9101,-3.9101,-3.9101,-4.0085,-4.159,-4.159,-4.2575,-4.4005,-4.4005,-4.4036,-4.4085,-3.5504,-3.5504,-3.5504,-3.5504,-3.5504,-3.5504,-3.5504,-3.5504,-3.5504,-3.5504,-3.5504,-3.5504,-3.5504,-3.5504,-3.5782,-3.6554,-3.7338,-3.7802,-3.7797,-3.7869,-3.7567,-3.6806,-3.6028,-3.5622,-3.5622,-3.5622,-3.5622,-3.5622,-3.5622,-3.5622,-3.5622,-3.5622,-3.5622,-3.5622,-3.5622,-3.5622,-3.5622,-3.5622,-3.5622,-3.5622,-3.5622,-3.5622,-3.5622,-3.5622,-3.5622,-3.5622,-3.5622,-3.5684,-3.5817,-3.5817,-3.5905,-3.6019,-3.6165,-3.6208,-3.6225,-3.6225,-3.6225,-3.6208,-3.6259,-3.6301,-3.6492,-3.7246,-3.717,-3.7094,-3.7879,-3.8068,-3.8219,-3.8596,-3.8676,-3.8707,-3.8707,-3.8707,-3.8707,-3.8707,-3.8707,-3.8707,-3.8707,-3.8707,-3.8414,-3.7661,-3.7599,-3.7599,-3.7599,-3.7599,-3.7863,-3.856,-3.8615,-3.8615,-3.8615,-3.7851,-3.7814,-3.867,-3.8658,-3.8658,-3.8627,-3.8676,-3.8719,-3.8792,-3.8862,-3.8921,-3.8979,-3.8979,-3.9036,-3.9101,-3.9101,-3.9101,-3.9101,-3.9129,-4.0085,-4.159,-4.159,-4.2593,-4.4005,-4.4005,-4.4085,-4.4184,-3.5504,-3.5504,-3.5504,-3.5504,-3.5504,-3.5504,-3.5504,-3.5504,-3.5504,-3.5504,-3.5504,-3.5504,-3.5504,-3.5504,-3.5782,-3.6554,-3.7338,-3.7802,-3.7797,-3.7869,-3.7567,-3.6806,-3.6028,-3.5622,-3.5622,-3.5622,-3.5622,-3.5622,-3.5622,-3.5622,-3.5622,-3.5622,-3.5622,-3.5622,-3.5622,-3.5622,-3.5622,-3.5622,-3.5622,-3.5622,-3.5622,-3.5622,-3.5622,-3.5622,-3.5622,-3.5622,-3.5622,-3.5684,-3.5817,-3.5932,-3.5975,-3.6019,-3.6233,-3.6251,-3.6208,-3.6276,-3.6276,-3.6259,-3.6301,-3.6301,-3.6343,-3.6533,-3.6741,-3.7017,-3.7542,-3.7879,-3.8135,-3.8219,-3.8483,-3.8707,-3.8707,-3.8707,-3.8707,-3.8707,-3.8707,-3.8707,-3.8707,-3.8707,-3.8634,-3.8432,-3.8414,-3.8414,-3.8414,-3.8414,-3.823,-3.7808,-3.7771,-3.7771,-3.7771,-3.7226,-3.7449,-3.864,-3.8401,-3.8201,-3.8099,-3.8515,-3.8719,-3.8792,-3.8822,-3.8881,-3.8979,-3.8979,-3.9036,-3.9101,-3.9156,-3.9156,-3.9101,-3.9275,-4.0235,-4.159,-4.1667,-4.2634,-4.4005,-4.4104,-4.4184,-4.4214,-3.5504,-3.5504,-3.5504,-3.5504,-3.5504,-3.5504,-3.5504,-3.5504,-3.5504,-3.5504,-3.5504,-3.5504,-3.5504,-3.5504,-3.5782,-3.6554,-3.7338,-3.7931,-3.8311,-3.8053,-3.7719,-3.7313,-3.6214,-3.5622,-3.5622,-3.5667,-3.5667,-3.5667,-3.5622,-3.5622,-3.5622,-3.5622,-3.5622,-3.5622,-3.5622,-3.5622,-3.5622,-3.5622,-3.5622,-3.5622,-3.5622,-3.5622,-3.5622,-3.5622,-3.5622,-3.5622,-3.5622,-3.5684,-3.5817,-3.5932,-3.6019,-3.6122,-3.6276,-3.6276,-3.6233,-3.6301,-3.6301,-3.6301,-3.6301,-3.6301,-3.6301,-3.6301,-3.6759,-3.7228,-3.7469,-3.7809,-3.8135,-3.8336,-3.8564,-3.8707,-3.8707,-3.8707,-3.8707,-3.8707,-3.8395,-3.8267,-3.8652,-3.8377,-3.8285,-3.867,-3.8707,-3.8707,-3.8707,-3.8707,-3.8524,-3.8065,-3.8046,-3.8046,-3.8046,-3.7598,-3.7682,-3.8382,-3.7982,-3.7738,-3.7703,-3.8016,-3.8168,-3.8216,-3.8216,-3.8263,-3.836,-3.8597,-3.873,-3.8828,-3.9055,-3.9202,-3.9248,-3.9301,-4.002,-4.1185,-4.1586,-4.247,-4.3565,-4.4035,-4.4184,-4.4214,-3.5504,-3.5504,-3.5504,-3.5504,-3.5504,-3.5504,-3.5504,-3.5504,-3.5504,-3.5504,-3.5504,-3.5504,-3.5504,-3.5504,-3.5782,-3.6446,-3.7219,-3.7978,-3.869,-3.7985,-3.7631,-3.7728,-3.6279,-3.5515,-3.5622,-3.5728,-3.5817,-3.5817,-3.5667,-3.5622,-3.5622,-3.5622,-3.5622,-3.5622,-3.5622,-3.5622,-3.5622,-3.5622,-3.5622,-3.5622,-3.5622,-3.5622,-3.5622,-3.5622,-3.5622,-3.5622,-3.5622,-3.5667,-3.5817,-3.5932,-3.6079,-3.6165,-3.6259,-3.6301,-3.6301,-3.6301,-3.6301,-3.6301,-3.6301,-3.6301,-3.6301,-3.6301,-3.6821,-3.734,-3.7395,-3.7721,-3.8135,-3.8515,-3.8676,-3.8707,-3.8707,-3.8707,-3.867,-3.8542,-3.8046,-3.7863,-3.8432,-3.8028,-3.7918,-3.8615,-3.8707,-3.8707,-3.8707,-3.8707,-3.8707,-3.8707,-3.8707,-3.8707,-3.8707,-3.8285,-3.8101,-3.8101,-3.7667,-3.747,-3.7578,-3.7451,-3.7414,-3.7505,-3.7505,-3.756,-3.7685,-3.8096,-3.8418,-3.8584,-3.8952,-3.9202,-3.9346,-3.9256,-3.9759,-4.0653,-4.1474,-4.2238,-4.2999,-4.3867,-4.4184,-4.4184,-3.5504,-3.5504,-3.5504,-3.5504,-3.5504,-3.5504,-3.5504,-3.5504,-3.5504,-3.5504,-3.5504,-3.5504,-3.5504,-3.5504,-3.5604,-3.58,-3.6585,-3.7294,-3.7921,-3.677,-3.63,-3.6868,-3.553,-3.5098,-3.5773,-3.5773,-3.5817,-3.5817,-3.5667,-3.5622,-3.5622,-3.5622,-3.5622,-3.5622,-3.5622,-3.5622,-3.5622,-3.5622,-3.5622,-3.5622,-3.5622,-3.5622,-3.5622,-3.5622,-3.5622,-3.5622,-3.5622,-3.5622,-3.5667,-3.5932,-3.6019,-3.6062,-3.6259,-3.6301,-3.6301,-3.6301,-3.6301,-3.6301,-3.6301,-3.6301,-3.6301,-3.6301,-3.6367,-3.6557,-3.69,-3.7303,-3.7721,-3.8101,-3.8465,-3.8707,-3.8707,-3.8707,-3.8487,-3.779,-3.8138,-3.8322,-3.7753,-3.8157,-3.856,-3.8689,-3.8707,-3.8707,-3.8707,-3.8707,-3.8707,-3.8707,-3.8707,-3.8707,-3.8707,-3.8216,-3.7998,-3.8101,-3.8016,-3.7982,-3.8,-3.721,-3.7058,-3.7505,-3.7505,-3.7703,-3.8114,-3.8245,-3.8517,-3.8931,-3.9101,-3.9156,-3.9175,-3.932,-3.9778,-4.0533,-4.1361,-4.218,-4.2939,-4.3855,-4.4184,-4.4214,-3.5504,-3.5504,-3.5504,-3.5504,-3.5504,-3.5504,-3.5504,-3.5504,-3.5504,-3.5504,-3.5504,-3.5504,-3.5504,-3.5504,-3.5489,-3.5604,-3.6006,-3.6199,-3.6135,-3.595,-3.5893,-3.614,-3.525,-3.5128,-3.5993,-3.5949,-3.5905,-3.5905,-3.5756,-3.5667,-3.5622,-3.5622,-3.5622,-3.5622,-3.5684,-3.5728,-3.5728,-3.5728,-3.5728,-3.5711,-3.5622,-3.5622,-3.5622,-3.5622,-3.5622,-3.5622,-3.5622,-3.5667,-3.5711,-3.5932,-3.6036,-3.6122,-3.6259,-3.6301,-3.6301,-3.6301,-3.6301,-3.6301,-3.6301,-3.6301,-3.6301,-3.6301,-3.6451,-3.6678,-3.686,-3.7208,-3.7542,-3.7721,-3.8101,-3.8368,-3.8368,-3.8546,-3.8579,-3.8212,-3.8083,-3.8065,-3.8138,-3.8083,-3.8212,-3.8652,-3.8707,-3.8707,-3.8707,-3.8707,-3.8707,-3.8707,-3.8707,-3.8707,-3.8707,-3.8465,-3.8267,-3.8101,-3.7685,-3.7542,-3.7756,-3.6921,-3.6741,-3.717,-3.717,-3.7303,-3.7506,-3.8029,-3.8405,-3.867,-3.897,-3.9147,-3.9275,-3.9275,-3.9517,-4.0001,-4.1278,-4.193,-4.2374,-4.3718,-4.4184,-4.4214,-3.5554,-3.5554,-3.5554,-3.5619,-3.5554,-3.5554,-3.5554,-3.5504,-3.5504,-3.5504,-3.5504,-3.5504,-3.5504,-3.5554,-3.5554,-3.5554,-3.5567,-3.5316,-3.4557,-3.4971,-3.5268,-3.5293,-3.502,-3.522,-3.5975,-3.6019,-3.6019,-3.6019,-3.5861,-3.5773,-3.5667,-3.5622,-3.5622,-3.5711,-3.5773,-3.5817,-3.5861,-3.5861,-3.5817,-3.5773,-3.5684,-3.5622,-3.5622,-3.5622,-3.5622,-3.5622,-3.5622,-3.5711,-3.5817,-3.5993,-3.6122,-3.6208,-3.6259,-3.6301,-3.6301,-3.6301,-3.6301,-3.6301,-3.6301,-3.6301,-3.6301,-3.6301,-3.6516,-3.6799,-3.686,-3.7132,-3.7395,-3.7469,-3.7739,-3.7948,-3.7913,-3.8285,-3.8491,-3.8259,-3.7986,-3.7918,-3.8358,-3.8046,-3.801,-3.8634,-3.8707,-3.8707,-3.8707,-3.8707,-3.8707,-3.8707,-3.8707,-3.8707,-3.8707,-3.8707,-3.8515,-3.8101,-3.7303,-3.7017,-3.7358,-3.6638,-3.6451,-3.6741,-3.686,-3.6978,-3.7094,-3.7755,-3.8245,-3.853,-3.8766,-3.9036,-3.932,-3.9229,-3.9256,-3.9514,-4.1166,-4.1763,-4.1911,-4.3599,-4.4214,-4.4214,-3.5638,-3.5688,-3.5752,-3.591,-3.5831,-3.5688,-3.5688,-3.5604,-3.5504,-3.5504,-3.5504,-3.5504,-3.5504,-3.5589,-3.5688,-3.5688,-3.5381,-3.4881,-3.4091,-3.3643,-3.363,-3.4109,-3.4775,-3.5174,-3.5266,-3.5871,-3.6122,-3.6019,-3.5861,-3.5773,-3.5773,-3.5667,-3.5711,-3.5975,-3.5861,-3.5861,-3.5975,-3.5975,-3.5888,-3.5817,-3.5773,-3.5711,-3.5622,-3.5622,-3.5622,-3.5622,-3.5728,-3.5773,-3.5817,-3.6096,-3.6165,-3.6208,-3.6259,-3.6301,-3.6301,-3.6301,-3.6301,-3.6301,-3.6301,-3.6301,-3.6301,-3.6301,-3.6343,-3.6451,-3.6821,-3.6939,-3.7055,-3.7432,-3.7542,-3.7487,-3.7379,-3.7791,-3.7848,-3.6988,-3.7854,-3.8377,-3.7661,-3.8175,-3.8634,-3.8689,-3.8707,-3.8707,-3.8707,-3.8707,-3.8707,-3.8707,-3.8707,-3.8707,-3.8707,-3.8707,-3.8515,-3.8101,-3.721,-3.6803,-3.6939,-3.6468,-3.6233,-3.6343,-3.6719,-3.7114,-3.7542,-3.7614,-3.808,-3.8862,-3.8579,-3.8681,-3.9129,-3.9183,-3.921,-3.9378,-4.112,-4.1745,-4.1921,-4.3639,-4.4285,-4.4285,-3.5894,-3.5894,-3.5894,-3.5973,-3.5973,-3.5894,-3.5894,-3.5846,-3.5797,-3.5797,-3.5797,-3.5797,-3.5797,-3.5846,-3.5894,-3.5894,-3.5476,-3.4912,-3.4195,-3.3625,-3.3382,-3.3518,-3.4183,-3.4671,-3.483,-3.5419,-3.5677,-3.5605,-3.5905,-3.5993,-3.5932,-3.5888,-3.5888,-3.6019,-3.6036,-3.6079,-3.6122,-3.6122,-3.6079,-3.6036,-3.5861,-3.5773,-3.5711,-3.5711,-3.5711,-3.5711,-3.5905,-3.5993,-3.6036,-3.6182,-3.6208,-3.6276,-3.6301,-3.6301,-3.6301,-3.6301,-3.6301,-3.6301,-3.6301,-3.6301,-3.6301,-3.6301,-3.6301,-3.6343,-3.6492,-3.6533,-3.6557,-3.6701,-3.6882,-3.702,-3.7038,-3.736,-3.7613,-3.7566,-3.802,-3.8176,-3.7798,-3.8314,-3.8596,-3.8249,-3.8496,-3.8707,-3.8707,-3.8707,-3.8707,-3.8707,-3.8707,-3.8596,-3.8336,-3.7791,-3.7396,-3.7248,-3.6603,-3.658,-3.7283,-3.655,-3.636,-3.6678,-3.6821,-3.7017,-3.719,-3.7414,-3.7738,-3.808,-3.7962,-3.8044,-3.8255,-3.8455,-3.8504,-3.8645,-4.0111,-4.1,-4.1605,-4.2936,-4.3807,-4.4285,-3.6022,-3.6037,-3.61,-3.6163,-3.61,-3.6037,-3.6037,-3.6037,-3.5973,-3.5973,-3.5973,-3.5973,-3.5973,-3.6037,-3.5946,-3.5685,-3.5232,-3.4666,-3.3918,-3.3361,-3.3027,-3.2964,-3.3633,-3.4087,-3.4284,-3.483,-3.5144,-3.5085,-3.5391,-3.5526,-3.5419,-3.5391,-3.5543,-3.5827,-3.5871,-3.6019,-3.6251,-3.6251,-3.6208,-3.6182,-3.5993,-3.5905,-3.5861,-3.5861,-3.5861,-3.5905,-3.6019,-3.6122,-3.6208,-3.6208,-3.6276,-3.6301,-3.6301,-3.6301,-3.6301,-3.6301,-3.6343,-3.6343,-3.6301,-3.6343,-3.6343,-3.6301,-3.6301,-3.6301,-3.6301,-3.6301,-3.6301,-3.6259,-3.6433,-3.6563,-3.662,-3.6921,-3.7285,-3.756,-3.7913,-3.805,-3.7911,-3.835,-3.8546,-3.8183,-3.8465,-3.8707,-3.8707,-3.8707,-3.8707,-3.8707,-3.8707,-3.8596,-3.8285,-3.7451,-3.6943,-3.6886,-3.6308,-3.6367,-3.7094,-3.6509,-3.636,-3.6701,-3.6821,-3.69,-3.6921,-3.7208,-3.7414,-3.7578,-3.747,-3.7524,-3.7701,-3.7928,-3.8065,-3.8274,-3.9528,-4.0462,-4.1285,-4.2552,-4.3509,-4.4158,-3.6211,-3.6196,-3.6274,-3.6492,-3.6352,-3.6196,-3.6196,-3.6085,-3.5973,-3.5973,-3.5973,-3.5973,-3.5973,-3.6148,-3.5873,-3.5094,-3.4681,-3.4125,-3.323,-3.2726,-3.2398,-3.2398,-3.3198,-3.3582,-3.3582,-3.4235,-3.4544,-3.4382,-3.4252,-3.4186,-3.4186,-3.407,-3.4512,-3.5374,-3.5266,-3.5599,-3.6301,-3.6301,-3.6276,-3.6225,-3.6225,-3.6122,-3.6019,-3.6019,-3.6019,-3.6019,-3.6165,-3.6225,-3.6208,-3.6276,-3.6301,-3.6301,-3.6301,-3.6301,-3.6301,-3.6301,-3.6402,-3.6444,-3.6343,-3.6402,-3.6461,-3.6343,-3.6301,-3.6301,-3.6301,-3.6301,-3.6259,-3.6208,-3.6233,-3.6259,-3.6062,-3.6474,-3.6821,-3.662,-3.7451,-3.805,-3.7893,-3.835,-3.8707,-3.8707,-3.8707,-3.8707,-3.8707,-3.8707,-3.8707,-3.8707,-3.8707,-3.8707,-3.8707,-3.7913,-3.7451,-3.7305,-3.6457,-3.6079,-3.6225,-3.6225,-3.6251,-3.6301,-3.6701,-3.6921,-3.6981,-3.6939,-3.7152,-3.7578,-3.7173,-3.725,-3.7701,-3.7753,-3.7959,-3.8318,-3.9498,-4.0276,-4.0924,-4.264,-4.3519,-4.3849,-3.6414,-3.6414,-3.6414,-3.6492,-3.6429,-3.6414,-3.6414,-3.6367,-3.6367,-3.6367,-3.6367,-3.6367,-3.6367,-3.6367,-3.6153,-3.5416,-3.4801,-3.3967,-3.2726,-3.2505,-3.2453,-3.2523,-3.2765,-3.2942,-3.3118,-3.3614,-3.3903,-3.3986,-3.4202,-3.4333,-3.4333,-3.4284,-3.4431,-3.4688,-3.4688,-3.5018,-3.5661,-3.5661,-3.5898,-3.6276,-3.6208,-3.6182,-3.6122,-3.6122,-3.6122,-3.6165,-3.6233,-3.6276,-3.6259,-3.6301,-3.6301,-3.6301,-3.6301,-3.6301,-3.6301,-3.6402,-3.6461,-3.6502,-3.6561,-3.6544,-3.6461,-3.6343,-3.6301,-3.6301,-3.6301,-3.6301,-3.6301,-3.6259,-3.6233,-3.6251,-3.6216,-3.6259,-3.6367,-3.6643,-3.7173,-3.7506,-3.7433,-3.8168,-3.8546,-3.8183,-3.8465,-3.8707,-3.8707,-3.8707,-3.8707,-3.8707,-3.8186,-3.7879,-3.7879,-3.7073,-3.6574,-3.6533,-3.6276,-3.6165,-3.6225,-3.6122,-3.6148,-3.6301,-3.6409,-3.6492,-3.6516,-3.6492,-3.6557,-3.6661,-3.6557,-3.6764,-3.7193,-3.7055,-3.7283,-3.7756,-3.8249,-3.8982,-3.9849,-4.114,-4.2267,-4.326,-3.6492,-3.6492,-3.6492,-3.6492,-3.6492,-3.6492,-3.6492,-3.6492,-3.6492,-3.6492,-3.6492,-3.6492,-3.6492,-3.6245,-3.5814,-3.5137,-3.4198,-3.3347,-3.2514,-3.2453,-3.2453,-3.2578,-3.2648,-3.2773,-3.2951,-3.3208,-3.3335,-3.3455,-3.3563,-3.3582,-3.3582,-3.3582,-3.3735,-3.3987,-3.4087,-3.4431,-3.5081,-3.5144,-3.5526,-3.6028,-3.5958,-3.6062,-3.6251,-3.6251,-3.6251,-3.6233,-3.6301,-3.6301,-3.6301,-3.6301,-3.6301,-3.6301,-3.6301,-3.6301,-3.6343,-3.6444,-3.6544,-3.6602,-3.6602,-3.6626,-3.6568,-3.6343,-3.6301,-3.6301,-3.6276,-3.6259,-3.6259,-3.6216,-3.6191,-3.6233,-3.6276,-3.6191,-3.6174,-3.6374,-3.6768,-3.7041,-3.696,-3.7773,-3.8216,-3.7808,-3.8168,-3.8401,-3.8168,-3.835,-3.8465,-3.8465,-3.7826,-3.7451,-3.7505,-3.6838,-3.6468,-3.6409,-3.6276,-3.6225,-3.6225,-3.6122,-3.6148,-3.6301,-3.6343,-3.6343,-3.6301,-3.6301,-3.6301,-3.6301,-3.6474,-3.6741,-3.6981,-3.6856,-3.7091,-3.7469,-3.772,-3.8276,-3.9085,-4.0244,-4.1199,-4.2036,-3.6492,-3.6492,-3.6492,-3.6492,-3.6492,-3.6492,-3.6492,-3.6492,-3.6492,-3.6492,-3.6492,-3.6476,-3.6415,-3.5861,-3.5183,-3.4445,-3.3152,-3.2453,-3.2578,-3.2523,-3.2453,-3.2648,-3.2827,-3.3005,-3.3096,-3.3005,-3.2897,-3.2897,-3.2578,-3.2398,-3.2398,-3.2398,-3.2749,-3.3339,-3.3443,-3.3887,-3.4544,-3.4673,-3.5005,-3.5526,-3.5571,-3.5854,-3.6259,-3.6301,-3.6301,-3.6301,-3.6301,-3.6301,-3.6301,-3.6301,-3.6301,-3.6301,-3.6301,-3.6301,-3.6343,-3.6444,-3.6602,-3.6643,-3.6544,-3.6626,-3.669,-3.6385,-3.6301,-3.6259,-3.6208,-3.6233,-3.6216,-3.6062,-3.6174,-3.6259,-3.6208,-3.6233,-3.6216,-3.6019,-3.6374,-3.6666,-3.662,-3.7305,-3.7773,-3.7542,-3.7844,-3.7861,-3.7379,-3.7756,-3.8034,-3.8034,-3.7542,-3.7323,-3.7414,-3.7055,-3.6781,-3.6666,-3.6385,-3.6208,-3.6208,-3.6225,-3.6251,-3.6301,-3.6444,-3.6444,-3.6301,-3.6301,-3.6343,-3.6367,-3.6764,-3.6981,-3.7058,-3.6981,-3.7152,-3.7469,-3.7649,-3.799,-3.8463,-3.9703,-4.0198,-4.0507,-3.6492,-3.6492,-3.6492,-3.6492,-3.6492,-3.6492,-3.6492,-3.6492,-3.6492,-3.6492,-3.6492,-3.6292,-3.5753,-3.5568,-3.4983,-3.3752,-3.2875,-3.2453,-3.2578,-3.2578,-3.2648,-3.2843,-3.3005,-3.3096,-3.3256,-3.3096,-3.3005,-3.2897,-3.2648,-3.2523,-3.2398,-3.2398,-3.2563,-3.278,-3.2819,-3.323,-3.3969,-3.3969,-3.4382,-3.5005,-3.5436,-3.5661,-3.5793,-3.6156,-3.6301,-3.6301,-3.6301,-3.6301,-3.6301,-3.6301,-3.6301,-3.6301,-3.6301,-3.6301,-3.6343,-3.6444,-3.6502,-3.6544,-3.6661,-3.6602,-3.6527,-3.6343,-3.6301,-3.6301,-3.6259,-3.6233,-3.6208,-3.6216,-3.6259,-3.6301,-3.6259,-3.6251,-3.6165,-3.6019,-3.635,-3.662,-3.662,-3.7097,-3.747,-3.7487,-3.7578,-3.7578,-3.7451,-3.756,-3.756,-3.7414,-3.7152,-3.696,-3.6865,-3.658,-3.6409,-3.6409,-3.6301,-3.6276,-3.6276,-3.636,-3.6461,-3.6461,-3.6402,-3.6402,-3.6444,-3.636,-3.6516,-3.6843,-3.6557,-3.6865,-3.7488,-3.686,-3.7055,-3.7738,-3.7339,-3.7482,-3.8008,-3.869,-3.9369,-4.0139,-3.6492,-3.6492,-3.6492,-3.6492,-3.6492,-3.6492,-3.6492,-3.6492,-3.6492,-3.6492,-3.6215,-3.5876,-3.5522,-3.4891,-3.406,-3.3013,-3.2653,-3.2578,-3.2718,-3.2718,-3.2827,-3.3005,-3.3058,-3.315,-3.3203,-3.3203,-3.3096,-3.2897,-3.2703,-3.2578,-3.2523,-3.2523,-3.2578,-3.2773,-3.2827,-3.3065,-3.3471,-3.3507,-3.3917,-3.4513,-3.5021,-3.5391,-3.5661,-3.6114,-3.6301,-3.6301,-3.6301,-3.6301,-3.6301,-3.6301,-3.6301,-3.6301,-3.6301,-3.6301,-3.6343,-3.6444,-3.6502,-3.6502,-3.6602,-3.6544,-3.6461,-3.6343,-3.6276,-3.6233,-3.6174,-3.6191,-3.6233,-3.6233,-3.6276,-3.6301,-3.6301,-3.6276,-3.6191,-3.6019,-3.6174,-3.6308,-3.6308,-3.6684,-3.696,-3.6939,-3.7094,-3.719,-3.719,-3.69,-3.6781,-3.7038,-3.662,-3.6433,-3.6498,-3.6343,-3.6276,-3.6301,-3.6301,-3.6301,-3.6301,-3.636,-3.6444,-3.6502,-3.6502,-3.6444,-3.6402,-3.6402,-3.655,-3.6759,-3.6661,-3.6999,-3.7506,-3.696,-3.7094,-3.7596,-3.7226,-3.7243,-3.7521,-3.8042,-3.8849,-3.9768,-3.6492,-3.6492,-3.6492,-3.6492,-3.6492,-3.6492,-3.6492,-3.6492,-3.6445,-3.6338,-3.583,-3.5399,-3.5153,-3.3998,-3.2998,-3.2499,-3.2523,-3.2703,-3.2897,-3.2897,-3.3005,-3.3112,-3.3096,-3.315,-3.315,-3.3256,-3.3203,-3.2951,-3.2773,-3.2648,-3.2648,-3.2648,-3.2773,-3.2951,-3.3058,-3.3096,-3.315,-3.3256,-3.3555,-3.4,-3.4513,-3.5005,-3.5526,-3.5985,-3.6216,-3.6301,-3.6301,-3.6301,-3.6301,-3.6301,-3.6301,-3.6301,-3.6301,-3.6301,-3.6301,-3.6444,-3.6461,-3.6461,-3.6461,-3.6461,-3.6444,-3.6301,-3.6233,-3.6165,-3.6062,-3.6148,-3.6276,-3.6208,-3.6276,-3.6301,-3.6301,-3.6301,-3.6216,-3.6019,-3.6019,-3.6019,-3.6019,-3.6326,-3.6474,-3.6343,-3.6597,-3.6781,-3.6799,-3.6259,-3.6131,-3.6661,-3.6216,-3.5975,-3.6216,-3.6251,-3.6233,-3.6301,-3.6301,-3.6301,-3.6301,-3.6301,-3.636,-3.6461,-3.6602,-3.6544,-3.6343,-3.6444,-3.6527,-3.6609,-3.6821,-3.7076,-3.7301,-3.7094,-3.7132,-3.7339,-3.715,-3.7129,-3.7167,-3.7596,-3.8381,-3.9249,-3.6492,-3.6492,-3.6492,-3.6492,-3.6492,-3.6492,-3.6492,-3.6492,-3.6276,-3.5691,-3.5537,-3.5029,-3.3814,-3.2998,-3.2561,-3.2594,-3.2578,-3.2703,-3.2897,-3.3005,-3.3112,-3.3096,-3.3203,-3.3256,-3.3256,-3.3309,-3.3203,-3.3043,-3.3058,-3.2989,-3.2843,-3.2843,-3.2951,-3.3043,-3.3096,-3.315,-3.3256,-3.3309,-3.3346,-3.345,-3.3984,-3.4464,-3.4975,-3.5481,-3.5941,-3.6301,-3.6301,-3.6301,-3.6301,-3.6301,-3.6301,-3.6301,-3.6301,-3.6301,-3.6301,-3.6301,-3.6343,-3.6343,-3.6343,-3.6343,-3.6318,-3.6251,-3.6233,-3.6276,-3.6208,-3.6165,-3.6208,-3.6276,-3.6301,-3.6301,-3.6301,-3.6301,-3.6216,-3.6019,-3.6122,-3.6122,-3.6019,-3.6165,-3.6276,-3.6301,-3.6343,-3.6343,-3.6293,-3.6276,-3.6131,-3.5975,-3.6131,-3.6191,-3.6062,-3.6174,-3.6301,-3.6301,-3.6301,-3.6301,-3.6301,-3.6301,-3.6301,-3.6343,-3.6444,-3.6502,-3.6461,-3.6343,-3.6557,-3.6921,-3.6655,-3.6759,-3.7038,-3.6895,-3.6935,-3.7038,-3.6851,-3.693,-3.7226,-3.7469,-3.7774,-3.8192,-3.6492,-3.6492,-3.6492,-3.6492,-3.6492,-3.6492,-3.6492,-3.6492,-3.6245,-3.5568,-3.5153,-3.4537,-3.3506,-3.2798,-3.2398,-3.2453,-3.2578,-3.2703,-3.2897,-3.3005,-3.315,-3.3203,-3.3256,-3.3309,-3.3309,-3.3309,-3.3256,-3.3203,-3.315,-3.3058,-3.3005,-3.3005,-3.3112,-3.3203,-3.3203,-3.3256,-3.3309,-3.3309,-3.3309,-3.3361,-3.3899,-3.4234,-3.4513,-3.5299,-3.5722,-3.5941,-3.6216,-3.6301,-3.6301,-3.6301,-3.6301,-3.6301,-3.6301,-3.6301,-3.6301,-3.6301,-3.6301,-3.6301,-3.6301,-3.6259,-3.6251,-3.6233,-3.6233,-3.6251,-3.6233,-3.6276,-3.6276,-3.6301,-3.6301,-3.6301,-3.6301,-3.6301,-3.6259,-3.6122,-3.6165,-3.6182,-3.6122,-3.6165,-3.6208,-3.6301,-3.6301,-3.6301,-3.6276,-3.6233,-3.6191,-3.6105,-3.6105,-3.6131,-3.6191,-3.6233,-3.6276,-3.6301,-3.6301,-3.6301,-3.6301,-3.6301,-3.6301,-3.6301,-3.6343,-3.6402,-3.6402,-3.6402,-3.6509,-3.6736,-3.6468,-3.655,-3.6834,-3.6591,-3.6632,-3.6834,-3.6667,-3.6708,-3.697,-3.7147,-3.7319,-3.7487]}]]